[[{"header":{"parameterUnit":"m.s-1","parameterCategory":1,"la1":30.6,"la2":29.2853,"lo1":-89.7004,"lo2":-87.6739,"dy":0.0162,"dx":0.0183,"nx":112,"ny":82,"refTime":"2023-08-21T06:00:00:Z","depth":0,"parameterNumber":2,"parameterNumberName":"U-component_of_WINDS"},"data":[0.0,0.0,0.0,0.0,0.0,0.0,0.0,0.0,0.0,0.0,0.0,0.0,0.0,0.0,0.0,0.0,0.0,0.0,0.0,0.0,0.0,0.0,0.0,0.0,0.0,0.0,0.0,0.0,0.0,0.0,0.0,0.0,0.0,0.0,0.0,0.0,0.0,0.0,0.0,0.0,0.0,0.0,0.0,0.0,0.0,0.0,0.0,0.0,0.0,0.0,0.0,0.0,0.0,0.0,0.0,0.0,0.0,0.0,0.0,0.0,0.0,0.0,0.0,0.0,0.0,0.0,0.0,0.0,0.0,0.0,0.0,0.0,0.0,0.0,0.0,0.0,0.0,0.0,0.0,0.0,0.0,0.0,0.0,0.0,0.0,0.0,0.0,0.0,0.0,0.0,0.873,0.8045,0.8981,0.9544,0.9247,0.9015,0.9277,1.0206,0.0,0.0,0.0,0.0,0.0,0.0,0.0,0.0,0.0,0.0,0.0,0.0,0.0,0.0,0.0,0.0,0.0,0.0,0.0,0.0,0.0,0.0,0.0,0.0,0.0,0.0,0.0,0.0,0.0,0.0,0.0,0.0,0.0,0.0,0.0,0.0,0.0,0.0,0.0,0.0,0.0,0.0,0.0,0.0,0.0,0.0,0.0,0.0,0.0,0.0,0.0,0.0,0.0,0.0,0.0,0.0,0.0,0.0,0.0,0.0,0.0,0.0,0.0,0.0,0.0,0.0,0.0,0.0,0.0,0.0,0.0,0.0,0.0,0.0,0.0,0.0,0.0,0.0,0.0,0.0,0.0,0.0,0.0,0.0,0.0,0.0,0.0,0.0,0.0,0.0,0.0,0.0,0.0,0.0,0.0,0.0,0.0,0.0,0.0,0.0,0.0,0.0,0.0,0.0,0.9714,0.9192,0.9626,0.9778,0.941,0.8974,0.9126,1.0062,0.0,0.0,0.0,0.0,0.0,0.0,0.0,0.0,0.0,0.0,0.0,0.0,0.0,0.0,0.0,0.0,0.0,0.0,0.0,0.0,0.0,0.0,0.0,0.0,0.0,0.0,0.0,0.0,0.0,0.0,0.0,0.0,0.0,0.0,0.0,0.0,0.0,0.0,0.0,0.0,0.0,0.0,0.0,0.0,0.0,0.0,0.0,0.0,0.0,0.0,0.0,0.0,0.0,0.0,0.0,0.0,0.0,0.0,0.0,0.0,0.0,0.0,0.0,0.0,0.0,0.0,0.0,0.0,0.0,0.0,0.0,0.0,0.0,0.0,0.0,0.0,0.0,0.0,0.0,0.0,0.0,0.0,0.0,0.0,0.0,0.0,0.0,0.0,0.0,0.0,0.0,0.0,0.0,0.0,0.0,0.0,0.0,0.0,0.0,0.0,0.0,0.0,0.0,0.9667,0.9133,0.9456,0.9724,0.9741,0.9322,0.8873,0.9176,1.0493,0.9876,0.0,0.0,0.0,0.0,0.0,0.0,0.0,0.0,0.0,0.0,0.0,0.0,0.0,0.0,0.0,0.0,0.0,0.0,0.0,0.0,0.0,0.0,0.0,0.0,0.0,0.0,0.0,0.0,0.0,0.0,0.0,0.0,0.0,0.0,0.0,0.0,0.0,0.0,0.0,0.0,0.0,0.0,0.0,0.0,0.0,0.0,0.0,0.0,0.0,0.0,0.0,0.0,0.0,0.0,0.0,0.0,0.0,0.0,0.0,0.0,0.0,0.0,0.0,0.0,0.0,0.0,0.0,0.0,0.0,0.0,0.0,0.0,0.0,0.0,0.0,0.0,0.0,0.0,0.0,0.0,0.0,0.0,0.0,0.0,0.0,0.0,0.0,0.0,0.0,0.0,0.0,0.0,0.0,0.0,0.0,0.0,0.0,0.0,0.0,0.0,0.0,0.0,0.9307,0.8703,0.9543,0.9724,0.9639,0.922,0.9096,0.9559,1.0824,1.0461,0.0,0.0,0.0,0.0,0.0,0.0,0.0,0.0,0.0,0.0,0.0,0.0,0.0,0.0,0.0,0.0,0.0,0.0,0.0,0.0,0.0,0.0,0.0,0.0,0.0,0.0,0.0,0.0,0.0,0.0,0.0,0.0,0.0,0.0,0.0,0.0,0.0,0.0,0.0,0.0,0.0,0.0,0.0,0.0,0.0,0.0,0.0,0.0,0.0,0.0,0.0,0.0,0.0,0.0,0.0,0.0,0.0,0.0,0.0,0.0,0.0,0.0,0.0,0.0,0.0,0.0,0.0,0.0,0.0,0.0,0.0,0.0,0.0,0.0,0.0,0.0,0.0,0.0,0.0,0.0,0.0,0.0,0.0,0.0,0.0,0.0,0.0,0.0,0.0,0.0,0.0,0.0,0.0,0.0,0.0,0.0,0.0,0.0,0.0,0.0,0.0,0.0,0.9706,0.9305,0.9731,0.9785,0.9639,0.922,1.0034,1.0578,1.0623,1.127,0.0,0.0,0.0,0.0,0.0,0.0,0.0,0.0,0.0,0.0,0.0,0.0,0.0,0.0,0.0,0.0,0.0,0.0,0.0,0.0,0.0,0.0,0.0,0.0,0.0,0.0,0.0,0.0,0.0,0.0,0.0,0.0,0.0,0.0,0.0,0.0,0.0,0.0,0.0,0.0,0.0,0.0,0.0,0.0,0.0,0.0,0.0,0.0,0.0,0.0,0.0,0.0,0.0,0.0,0.0,0.0,0.0,0.0,0.0,0.0,0.0,0.0,0.0,0.0,0.0,0.0,0.0,0.0,0.0,0.0,0.0,0.0,0.0,0.0,0.0,0.0,0.0,0.0,0.0,0.0,0.0,0.0,0.0,0.0,0.0,0.0,0.0,0.0,0.0,0.0,0.0,0.0,0.0,0.0,0.0,0.0,0.0,0.0,0.0,0.0,0.0,0.0,1.008,0.9738,0.9673,0.9517,0.9288,0.8906,0.8807,0.9178,1.0149,0.0,0.0,0.0,0.0,0.0,0.0,0.0,0.0,0.0,0.0,0.0,0.0,0.0,0.0,0.0,0.0,0.0,0.0,0.0,0.0,0.0,0.0,0.0,0.0,0.0,0.0,0.0,0.0,0.0,0.0,0.0,0.0,0.0,0.0,0.0,0.0,0.0,0.0,0.0,0.0,0.0,0.0,0.0,0.0,0.0,0.0,0.0,0.0,0.0,0.0,0.0,0.0,0.0,0.0,0.0,0.0,0.0,0.0,0.0,0.0,0.0,0.0,0.0,0.0,0.0,0.0,0.0,0.0,0.0,0.0,0.0,0.0,0.0,0.0,0.0,0.0,0.0,0.0,0.0,0.0,0.0,0.0,0.0,0.0,0.0,0.0,0.0,0.0,0.0,0.0,0.0,0.0,0.0,0.0,0.0,0.0,0.0,0.0,0.0,0.0,0.0,0.0,1.0366,0.9986,0.9627,0.9621,0.9293,0.8988,0.8662,0.8361,0.873,0.998,0.0,0.0,0.0,0.0,0.0,0.0,0.0,0.0,0.0,0.0,0.0,0.0,0.0,0.0,0.0,0.0,0.0,0.0,0.0,0.0,0.0,0.0,0.0,0.0,0.0,0.0,0.0,0.0,0.0,0.0,0.0,0.0,0.0,0.0,0.0,0.0,0.0,0.0,0.0,0.0,0.0,0.0,0.0,0.0,0.0,0.0,0.0,0.0,0.0,0.0,0.0,0.0,0.0,0.0,0.0,0.0,0.0,0.0,0.0,0.0,0.0,0.0,0.0,0.0,0.0,0.0,0.0,0.0,0.0,0.0,0.0,0.0,0.0,0.0,0.0,0.0,0.0,0.0,0.0,0.0,0.0,0.0,0.0,0.0,0.0,0.0,0.0,0.0,0.0,0.0,0.0,0.0,0.0,0.0,0.0,0.0,0.0,0.0,0.0,0.0,0.0,0.0,1.0186,0.9422,0.894,0.9537,0.9176,0.8784,0.8532,0.9105,0.9673,0.0,0.0,0.0,0.0,0.0,0.0,0.0,0.0,0.0,0.0,0.0,0.0,0.0,0.0,0.0,0.0,0.0,0.0,0.0,0.0,0.0,0.0,0.0,0.0,0.0,0.0,0.0,0.0,0.0,0.0,0.0,0.0,0.0,0.0,0.0,0.0,0.0,0.0,0.0,0.0,0.0,0.0,0.0,0.0,0.0,0.0,0.0,0.0,0.0,0.0,0.0,0.0,0.0,0.0,0.0,0.0,0.0,0.0,0.0,0.0,0.0,0.0,0.0,0.0,0.0,0.0,0.0,0.0,0.0,0.0,0.0,0.0,0.0,0.0,0.0,0.0,0.0,0.0,0.0,0.0,0.0,0.0,0.0,0.0,0.0,0.0,0.0,0.0,0.0,0.0,0.0,0.0,0.0,0.0,0.0,0.0,0.0,0.0,0.0,0.0,0.0,0.0,0.0,1.0104,0.9416,0.8912,0.9088,0.8892,0.8588,0.8175,0.7848,0.838,1.0025,0.0,0.0,0.0,0.0,0.0,0.0,0.0,0.0,0.0,0.0,0.0,0.0,0.0,0.0,0.0,0.0,0.0,0.0,0.0,0.0,0.0,0.0,0.0,0.0,0.0,0.0,0.0,0.0,0.0,0.0,0.0,0.0,0.0,0.0,0.0,0.0,0.0,0.0,0.0,0.0,0.0,0.0,0.0,0.0,0.0,0.0,0.0,0.0,0.0,0.0,0.0,0.0,0.0,0.0,0.0,0.0,0.0,0.0,0.0,0.0,0.0,0.0,0.0,0.0,0.0,0.0,0.0,0.0,0.0,0.0,0.0,0.0,0.0,0.0,0.0,0.0,0.0,0.0,0.0,0.0,0.0,0.0,0.0,0.0,0.0,0.0,0.0,0.0,0.0,0.0,0.0,0.0,0.0,0.0,0.0,0.0,0.0,0.0,0.0,0.0,0.0,0.0,0.9969,0.9304,0.8777,0.8899,0.8723,0.8459,0.8022,0.7337,0.7628,0.9356,0.0,0.0,0.0,0.0,0.0,0.0,0.0,0.0,0.0,0.0,0.0,0.0,0.0,0.0,0.0,0.0,0.0,0.0,0.0,0.0,0.0,0.0,0.0,0.0,0.0,0.0,0.0,0.0,0.0,0.0,0.0,0.0,0.0,0.0,0.0,0.0,0.0,0.0,0.0,0.0,0.0,0.0,0.0,0.0,0.0,0.0,0.0,0.0,0.0,0.0,0.0,0.0,0.0,0.0,0.0,0.0,0.0,0.0,0.0,0.0,0.0,0.0,0.0,0.0,0.0,0.0,0.0,0.0,0.0,0.0,0.0,0.0,0.0,0.0,0.0,0.0,0.0,0.0,0.0,0.0,0.0,0.0,0.0,0.0,0.0,0.0,0.0,0.0,0.0,0.0,0.0,0.0,0.0,0.0,0.0,0.0,0.0,0.0,0.0,0.0,0.0,0.0,0.9803,0.9109,0.8587,0.8838,0.8648,0.8357,0.802,0.7337,0.7389,0.8446,0.0,0.0,0.0,0.0,0.0,0.0,0.0,0.0,0.0,0.0,0.0,0.0,0.0,0.0,0.0,0.0,0.0,0.0,0.0,0.0,0.0,0.0,0.0,0.0,0.0,0.0,0.0,0.0,0.0,0.0,0.0,0.0,0.0,0.0,0.0,0.0,0.0,0.0,0.0,0.0,0.0,0.0,0.0,0.0,0.0,0.0,0.0,0.0,0.0,0.0,0.0,0.0,0.0,0.0,0.0,0.0,0.0,0.0,0.0,0.0,1.1087,0.0,0.0,0.0,0.0,0.0,0.0,0.0,0.0,0.0,0.0,0.0,0.0,0.0,0.0,0.0,0.0,0.0,0.0,0.0,0.0,0.0,0.0,0.0,0.0,0.0,0.0,0.0,0.0,0.0,0.0,0.0,0.0,0.0,0.0,0.0,0.0,0.0,0.0,0.0,0.0,0.0,0.9656,0.9065,0.8532,0.8574,0.8546,0.8309,0.7871,0.7364,0.7527,0.8651,0.8287,0.0,0.0,0.0,0.0,0.0,0.0,0.0,0.0,0.0,0.0,0.0,0.0,0.0,0.0,0.0,0.0,0.0,0.0,0.0,0.0,0.0,0.0,0.0,0.0,0.0,0.0,0.0,0.0,0.0,0.0,0.0,0.0,0.0,0.0,0.0,0.0,0.0,0.0,0.0,0.0,0.0,0.0,0.0,0.0,0.0,0.0,0.0,0.0,0.0,0.0,0.0,0.0,0.0,0.0,0.0,0.0,0.0,0.0,0.0,0.0,1.1639,0.0,0.0,0.0,0.0,0.0,0.0,0.0,0.0,0.0,0.0,0.0,0.0,0.0,0.0,0.0,0.0,0.0,0.0,0.0,0.0,0.0,0.0,0.0,0.0,0.0,0.0,0.0,0.0,0.0,0.0,0.0,0.0,0.0,0.0,0.0,0.0,0.0,0.0,0.0,0.0,0.9374,0.8915,0.8539,0.8581,0.8526,0.8383,0.8058,0.7617,0.7565,0.8106,0.8084,0.0,0.0,0.0,0.0,0.0,0.0,0.0,0.0,0.0,0.0,0.0,0.0,0.0,0.0,0.0,0.0,0.0,0.0,0.0,0.0,0.0,0.0,0.0,0.0,0.0,0.0,0.0,0.0,0.0,0.0,0.0,0.0,0.0,0.0,0.0,0.0,0.0,0.0,0.0,0.0,0.0,0.0,0.0,0.0,0.0,0.0,0.0,0.0,0.0,0.0,0.0,0.0,0.0,1.07,1.0532,1.0231,1.0261,1.0152,0.9978,1.1262,1.1455,1.0853,1.1029,0.0,0.0,0.0,0.0,0.0,0.0,0.0,0.0,0.0,0.0,0.0,0.0,0.0,0.0,0.0,0.0,0.0,0.0,0.0,0.0,0.0,0.0,0.0,0.0,0.3266,0.3258,0.4503,0.0,0.0,0.0,0.0,0.0,0.0,0.0,0.0,0.0,0.0,0.0,0.9035,0.8793,0.8567,0.8696,0.8574,0.8451,0.8308,0.7882,0.757,0.7444,0.7792,0.8054,0.0,0.0,0.0,0.0,0.0,0.0,0.0,0.0,0.0,0.0,0.0,0.0,0.0,0.0,0.0,0.0,0.0,0.0,0.0,0.0,0.0,0.0,0.0,0.0,0.0,0.0,0.0,0.0,0.0,0.0,0.0,0.0,0.9002,0.8828,0.0,0.0,0.0,0.0,0.0,0.0,0.0,0.0,0.0,0.0,0.0,0.0,0.0,1.1549,1.0905,1.1526,1.0397,0.7504,0.7775,0.6834,0.4845,0.4943,0.5044,0.5264,0.7951,0.0,1.1268,0.9713,0.0,0.0,0.0,0.0,0.0,0.0,0.0,0.0,0.0,0.0,0.0,0.0,0.0,0.0,0.0,0.0,0.0,0.0,0.0,0.0,0.0,0.0,0.2819,0.2383,0.2196,0.2181,0.0,0.2998,0.3847,0.4605,0.5406,0.0,0.0,0.0,0.0,0.0,0.0,0.0,0.8848,0.8794,0.8689,0.871,0.8574,0.8451,0.8308,0.797,0.7719,0.7577,0.7364,0.7253,0.7279,0.8116,0.0,0.0,0.0,0.0,0.0,0.0,0.0,0.0,0.0,0.0,0.0,0.0,0.0,0.0,0.0,0.0,0.0,0.0,0.0,0.0,0.0,0.0,0.0,0.0,0.0,0.0,0.0,0.0,0.0,0.8497,0.8753,0.8835,0.8637,0.8807,0.0,0.0,0.0,0.0,0.0,0.0,0.0,0.0,0.0,0.7197,0.785,0.7847,0.7146,0.764,0.7178,0.5782,0.6001,0.5624,0.469,0.4763,0.4816,0.4951,0.6228,0.7164,0.79,0.9463,0.9989,0.9776,0.0,0.0,0.0,0.0,0.9471,0.9578,0.9487,0.9831,1.0039,0.8413,0.0,0.0,0.0,0.0,0.0,0.0,0.0,0.0,0.0,0.0,0.1648,0.1013,0.0863,0.085,0.0813,0.1063,0.1767,0.0,0.4584,0.5596,0.595,0.0,0.0,0.0,0.0,0.8348,0.8831,0.8948,0.8988,0.8988,0.8825,0.8642,0.8437,0.8219,0.797,0.7733,0.7492,0.7296,0.7105,0.756,0.8003,0.0,0.0,0.0,0.0,0.0,0.0,0.0,0.0,0.0,0.0,0.0,0.0,0.0,0.0,0.0,0.0,0.0,0.0,0.0,0.0,0.0,0.0,0.0,0.0,0.0,0.0,0.0,0.0,0.8151,0.8639,0.871,0.8197,0.8222,0.0,0.0,0.0,0.0,0.0,0.0,0.4567,0.4904,0.4969,0.4594,0.5063,0.5109,0.4676,0.5008,0.4929,0.4425,0.4581,0.4424,0.4023,0.401,0.4006,0.4046,0.4591,0.4645,0.4634,0.8069,0.8863,0.7951,0.8098,0.8069,0.8008,0.8378,0.8484,0.8479,0.8627,0.8672,0.8434,0.6999,0.6146,0.5373,0.3889,0.0,0.0,0.0,0.0,0.2269,0.2132,0.1435,0.0698,0.0114,0.0,0.0,0.0,0.0,0.052,0.0,0.3531,0.4399,0.4557,0.0,0.0,0.0,0.0,0.7342,0.7605,0.7862,0.8143,0.8571,0.842,0.8373,0.8588,0.8423,0.8041,0.7463,0.7243,0.7029,0.6769,0.6725,0.7152,0.8116,0.0,0.0,0.0,0.0,0.0,0.0,0.0,0.0,0.0,0.0,0.0,0.0,0.0,0.0,0.0,0.0,0.0,0.0,0.0,0.0,0.0,0.0,0.0,0.0,0.0,0.0,0.0,0.0,0.0,0.7774,0.7376,0.0,0.0,0.0,0.0,0.4336,0.4475,0.4523,0.4509,0.4482,0.4634,0.5057,0.5385,0.5669,0.5909,0.6239,0.5332,0.3189,0.3404,0.2373,0.0259,0.0257,0.0256,0.0383,0.2355,0.3115,0.31,0.4327,0.467,0.4445,0.4447,0.4774,0.5167,0.4878,0.5141,0.549,0.4765,0.4608,0.4816,0.4976,0.4905,0.4589,0.3755,0.3632,0.0,0.0,0.266,0.1913,0.2214,0.1173,0.004,0.0,0.0,0.0,0.0,0.0,0.0415,0.0,0.2015,0.2406,0.3788,0.0,0.3973,0.4009,0.4239,0.4373,0.4262,0.4521,0.5327,0.6846,0.6771,0.7227,0.8748,0.852,0.7744,0.6456,0.6069,0.5891,0.5857,0.575,0.6285,0.761,0.8341,0.0,0.0,0.0,0.0,0.0,0.0,0.0,0.0,0.0,0.0,0.0,0.0,0.0,0.0,0.0,0.0,0.0,0.0,0.0,0.0,0.0,0.0,0.0,0.0,0.0,0.0,0.0,0.0,0.5293,0.5048,0.0,0.4672,0.4098,0.3473,0.2849,0.2818,0.2476,0.166,0.1573,0.1651,0.182,0.1937,0.2049,0.2156,0.2256,0.1892,0.1108,0.1192,0.078,0.0,0.0,0.0,0.0045,0.0765,0.1072,0.1065,0.1452,0.3001,0.5088,0.499,0.5106,0.5264,0.5228,0.5414,0.5643,0.5419,0.5389,0.5274,0.4017,0.2721,0.162,0.135,0.1306,0.1344,0.1228,0.0946,0.0684,0.0795,0.0422,0.0,0.0,0.0,0.0,0.0,0.0,0.0144,0.0624,0.1367,0.2097,0.2628,0.3401,0.3951,0.4035,0.4243,0.4394,0.4437,0.4645,0.4946,0.5441,0.5396,0.5491,0.5852,0.5737,0.5422,0.4858,0.4713,0.4598,0.451,0.4474,0.4618,0.5027,0.5288,0.6116,0.0,0.0,0.0,0.0,0.0,0.0,0.0,0.0,0.0,0.0,0.0,0.0,0.0,0.0,0.0,0.0,0.0,0.0,0.0,0.0,0.0,0.0,0.0,0.0,0.0,0.5159,0.5129,0.4011,0.3681,0.3515,0.3332,0.2693,0.2005,0.1391,0.132,0.0918,0.0046,0.0,0.0,0.0,0.0,0.0,0.0,0.0,0.0,0.0,0.0,0.0,0.0,0.0,0.0,0.0,0.0,0.0,0.0,0.0,0.1474,0.3711,0.3628,0.3572,0.3577,0.3658,0.3755,0.3843,0.3941,0.398,0.374,0.2376,0.1033,0.0,0.0,0.0,0.0,0.0,0.0,0.0,0.0,0.0,0.0,0.0,0.0,0.0,0.0,0.0,0.0,0.0,0.0728,0.1323,0.131,0.2059,0.2687,0.2784,0.2894,0.3074,0.3318,0.3288,0.3477,0.4094,0.3976,0.3988,0.4331,0.4609,0.4385,0.3451,0.3681,0.3675,0.32,0.3629,0.4009,0.4339,0.4153,0.4747,0.6164,0.0,0.0,0.0,0.0,0.0,0.0,0.0,0.0,0.0,0.0,0.0,0.0,0.0,0.0,0.0,0.0,0.0,0.0,0.0,0.0,0.0,0.0,0.0,0.3495,0.4265,0.4562,0.3962,0.3369,0.2723,0.1989,0.0747,0.0,0.0,0.0,0.0,0.0,0.0,0.0,0.0,0.0,0.0,0.0,0.0,0.0,0.0,0.0,0.0,0.0,0.0,0.0,0.0,0.0,0.0,0.0,0.0,0.0,0.0,0.0,0.0,0.0,0.0,0.0,0.0,0.0,0.0,0.0,0.0,0.0,0.0,0.0,0.0,0.0,0.0,0.0,0.0,0.0,0.0,0.0,0.0,0.0,0.0,0.0,0.0,0.0,0.0,0.0,0.0,0.0,0.0,0.0,0.0,0.0,0.0,0.0603,0.0286,0.0751,0.2761,0.246,0.2769,0.4395,0.5254,0.4679,0.227,0.2994,0.3029,0.1991,0.3174,0.4414,0.5595,0.5103,0.4877,0.4977,0.0,0.0,0.0,0.0,0.0,0.0,0.0,0.0,0.0,0.0,0.0,0.0,0.0,0.0,0.0,0.0,0.0,0.0,0.0,0.0,0.0,0.1719,0.1747,0.2033,0.2329,0.2156,0.1228,0.0935,0.0761,0.0572,0.0193,0.0,0.0,0.0,0.0,0.0,0.0,0.0,0.0,0.0,0.0,0.0,0.0,0.0,0.0,0.0,0.0,0.0,0.0,0.0,0.0,0.0,0.0,0.0,0.0,0.0,0.0,0.0,0.0,0.0,0.0,0.0,0.0,0.0,0.0,0.0,0.0,0.0,0.0,0.0,0.0,0.0,0.0,0.0,0.0,0.0,0.0,0.0,0.0,0.0,0.0,0.0,0.0,0.0,0.0,0.0,0.0,0.0,0.0,0.0,0.0,0.0,0.0,0.0177,0.0068,0.0101,0.0311,0.0495,0.067,0.0766,0.1293,0.1335,0.0653,0.0842,0.0866,0.0569,0.0898,0.125,0.1592,0.2472,0.2824,0.0,0.0,0.0,0.0,0.0,0.0,0.0,0.0,0.0,0.0,0.0,0.0,0.0,0.0,0.0,0.0,0.0,0.0,0.0,0.0,0.0,0.0,0.0981,0.0791,0.0855,0.0924,0.0714,0.0099,0.0,0.0,0.0,0.0,0.0,0.0,0.0,0.0,0.0,0.0,0.0,0.0,0.0,0.0,0.0,0.0,0.0,0.0,0.0,0.0,0.0,0.0,0.0,0.0,0.0,0.0,0.0,0.0,0.0,0.0,0.0,0.0,0.0,0.0,0.0,0.0,0.0,0.0,0.0,0.0,0.0,0.0,0.0,0.0,0.0,0.0,0.0,0.0,0.0,0.0,0.0,0.0,0.0,0.0,0.0,0.0,0.0,0.0,0.0,0.0,0.0,0.0,0.0,0.0,0.0,0.0074,0.0257,0.0107,-0.0035,-0.0106,-0.0034,-0.0098,-0.0389,0.0248,0.0,0.0,0.0,0.0473,0.0025,-0.0557,0.0,0.0,0.0,0.0857,0.0586,0.0,0.0,0.0,0.2078,0.1271,0.0,0.0,0.0,0.0,0.0,0.0,0.0,0.0,0.0,0.0,0.0,0.0,0.0,0.0,0.0,0.0,0.0706,0.0331,0.005,0.0,0.0,0.0,0.0,0.0,0.0,0.0,0.0,0.0,0.0,0.0,0.0,0.0,0.0,0.0,0.0,0.0,0.0,0.0,0.0,0.0,0.0,0.0,0.0,0.0,0.0,0.0,0.0,0.0,0.0,0.0,0.0,0.0,0.0,0.0,0.0,0.0,0.0,0.0,0.0,0.0,0.0,0.0,0.0,0.0,0.0,0.0,0.0,0.0,0.0,0.0,0.0,0.0,0.0,0.0,0.0,0.0,0.0,0.0,0.0,0.0,0.0,0.0,0.0,0.0,0.0,0.0,0.0,0.016,0.0555,0.0266,0.0147,0.0504,0.0,0.0,-0.0064,0.0835,0.0937,-0.0203,0.043,0.0448,-0.0508,-0.1756,-0.2062,-0.1275,-0.1205,-0.121,-0.1288,-0.1187,-0.0944,-0.0606,-0.0889,-0.1615,0.0,0.0,0.0,0.0,0.0,0.0,0.0,0.0,0.0,0.0,0.0,0.0,0.0,0.0,0.0,0.064,0.0337,0.005,0.0,0.0,0.0,0.0,0.0,0.0,0.0,0.0,0.0,0.0,0.0,0.0,0.0,0.0,0.0,0.0,0.0,0.0,0.0,0.0,0.0,0.0,0.0,0.0,0.0,0.0,0.0,0.0,0.0,0.0,0.0,0.0,0.0,0.0,0.0,0.0,0.0,0.0,0.0,0.0,0.0,0.0,0.0,0.0,0.0,0.0,0.0,0.0,0.0,0.0,0.0,0.0,0.0,0.0,0.0,0.0,0.0,0.0,0.0,0.0,0.0,0.0,0.0,0.0,0.0,0.0,0.0,0.0,0.0,0.0037,0.0112,0.0072,-0.0108,-0.0405,-0.0177,-0.0138,-0.0524,-0.0033,-0.0343,-0.1913,-0.304,-0.3739,-0.3951,-0.4226,-0.427,-0.4114,-0.4198,-0.4258,-0.4262,-0.4402,-0.4427,-0.4338,-0.2956,-0.2983,0.0,0.0,0.0,0.0,0.0,0.0,0.0,0.0,0.0,0.0,0.0,0.1631,0.15,0.0,0.0462,0.0539,0.0255,0.0,0.0,0.0,0.0,0.0,0.0,0.0,0.0,0.0,0.0,0.0,0.0,0.0,0.0,0.0,0.0,0.0,0.0,0.0,0.0,0.0,0.0,0.0,0.0,0.0,0.0,0.0,0.0,0.0,0.0,0.0,0.0,0.0,0.0,0.0,0.0,0.0,0.0,0.0,0.0,0.0,0.0,0.0,0.0,0.0,0.0,0.0,0.0,0.0,0.0,0.0,0.0,0.0,0.0,0.0,0.0,0.0,0.0,0.0,0.0,0.0,0.0,0.0,0.0,0.0,0.0,0.0,0.0,0.0,0.0,0.0,0.0,0.0,-0.0072,-0.0328,-0.0143,-0.0106,-0.0319,-0.097,-0.209,-0.3838,-0.5336,-0.6144,-0.6151,-0.6806,-0.7179,-0.7266,-0.6589,-0.628,-0.6359,-0.5695,-0.5413,-0.5397,-0.5378,-0.5631,0.0,0.0,0.0,0.0,0.0,0.0,0.0,0.3064,0.2687,0.2216,0.1701,0.1352,0.1317,0.0812,0.0399,0.0466,0.0213,0.0,0.0,0.0,0.0,0.0,0.0,0.0,0.0,0.0,0.0,0.0,0.0,0.0,0.0,0.0,0.0,0.0,0.0,0.0,0.0,0.0,0.0,0.0,0.0,0.0,0.0,0.0,0.0,0.0,0.0,0.0,0.0,0.0,0.0,0.0,0.0,0.0,0.0,0.0,0.0,0.0,0.0,0.0,0.0,0.0,0.0,0.0,0.0,0.0,0.0,0.0,0.0,0.0,0.0,0.0,0.0,0.0,0.0,0.0,0.0,0.0,0.0,0.0,0.0,0.0,0.0,0.0,0.0,0.0,0.0,0.0,0.0,0.0,0.0,0.0,0.0,0.0,0.0,-0.1626,-0.3421,-0.523,-0.6653,-0.7588,-0.7946,-0.8989,-0.9612,-0.9734,-0.8609,-0.8065,-0.8169,-0.7006,-0.6413,-0.6456,-0.7865,-0.8275,1.1548,0.9267,0.7235,0.6417,0.501,0.3531,0.0,0.1826,0.1288,0.0455,0.0237,0.0195,0.0199,0.0102,0.0053,0.0055,0.0055,0.0,0.0,0.0,0.0,0.0,0.0,0.0,0.0,0.0,0.0,0.0,0.0,0.0,0.0,0.0,0.0,0.0,0.0,0.0,0.0,0.0,0.0,0.0,0.0,0.0,0.0,0.0,0.0,0.0,0.0,0.0,0.0,0.0,0.0,0.0,0.0,0.0,0.0,0.0,0.0,0.0,0.0,0.0,0.0,0.0,0.0,0.0,0.0,0.0,0.0,0.0,0.0,0.0,0.0,0.0,0.0,0.0,0.0,0.0,0.0,0.0,0.0,0.0,0.0,0.0,0.0,0.0,0.0,0.0,0.0,0.0,0.0,0.0,0.0,0.0,0.0,0.0,0.0,-0.1551,-0.3282,-0.5019,-0.6679,-0.8295,-0.9898,-1.0118,-1.022,-1.0202,-1.0184,-1.0161,-1.0181,-1.013,-1.0108,-1.0128,-1.0326,-0.9479,0.9168,0.7309,0.5773,0.4456,0.3249,0.2121,0.1092,0.0682,0.0424,0.01,0.0,0.0,0.0,0.0,0.0,0.0,0.0,0.0,0.0,0.0,0.0,0.0,0.0,0.0,0.0,0.0,0.0,0.0,0.0,0.0,0.0,0.0,0.0,0.0,0.0,0.0,0.0,0.0,0.0,0.0,0.0,0.0,0.0,0.0,0.0,0.0,0.0,0.0,0.0,0.0,0.0,0.0,0.0,0.0,0.0,0.0,0.0,0.0,0.0,0.0,0.0,0.0,0.0,0.0,0.0,0.0,0.0,0.0,0.0,0.0,0.0,0.0,0.0,0.0,0.0,0.0,0.0,0.0,0.0,0.0,0.0,0.0,0.0,0.0,0.0,0.0,0.0,0.0,0.0,0.0,0.0,0.0,0.0,-0.0439,-0.1471,-0.2228,-0.3869,-0.6765,-0.7516,-0.8679,-1.0571,-1.0582,-1.0534,-1.0534,-1.0595,-1.0622,-1.0622,-1.0657,-1.0684,-1.0684,-1.0684,-1.0254,0.6869,0.541,0.4312,0.2657,0.1657,0.0895,0.0143,0.0,0.0,0.0,0.0,0.0,0.0,0.0,0.0,0.0,0.0,0.0,0.0,0.0,0.0,0.0,0.0,0.0,0.0,0.0,0.0,0.0,0.0,0.0,0.0,0.0,0.0,0.0,0.0,0.0,0.0,0.0,0.0,0.0,0.0,0.0,0.0,0.0,0.0,0.0,0.0,0.0,0.0,0.0,0.0,0.0,0.0,0.0,0.0,0.0,0.0,0.0,0.0,0.0,0.0,0.0,0.0,0.0,0.0,0.0,0.0,0.0,0.0,0.0,0.0,0.0,0.0,0.0,0.0,0.0,0.0,0.0,0.0,0.0,0.0,0.0,0.0,0.0,0.0,0.0,0.0,0.0,0.0,0.0,0.0,0.0,0.0,-0.0746,-0.2598,-0.2755,-0.4364,-0.8109,-0.8233,-0.9006,-1.0907,-1.09,-1.0839,-1.0839,-1.0772,-1.0752,-1.0752,-1.0711,-1.0684,-1.0684,-1.0684,-1.0684,0.4964,0.3653,0.2442,0.1334,0.0566,0.005,0.0,0.0,0.0,0.0,0.0,0.0,0.0,0.0,0.0,0.0,0.0,0.0,0.0,0.0,0.0,0.0,0.0,0.0,0.0,0.0,0.0,0.0,0.0,0.0,0.0,0.0,0.0,0.0,0.0,0.0,0.0,0.0,0.0,0.0,0.0,0.0,0.0,0.0,0.0,0.0,0.0,0.0,0.0,0.0,0.0,0.0,0.0,0.0,0.0,0.0,0.0,0.0,0.0,0.0,0.0,0.0,0.0,0.0,0.0,0.0,0.0,0.0,0.0,0.0,0.0,0.0,0.0,0.0,0.0,0.0,0.0,0.0,0.0,0.0,0.0,0.0,0.0,0.0,0.0,0.0,0.0,0.0,0.0,0.0,0.0,0.0,0.0,-0.08,-0.2747,-0.2887,-0.4499,-0.8257,-0.849,-0.9286,-1.1124,-1.1186,-1.1186,-1.1186,-1.0982,-1.0873,-1.0873,-1.0759,-1.0684,-1.0684,-1.0684,-1.0684,0.2867,0.2105,0.1699,0.0593,0.0155,0.0,0.0,0.0,0.0,0.0,0.0227,0.0334,0.0055,0.0215,0.0317,0.0055,0.0,0.0,0.0,0.0,0.0,0.0,0.0,0.0,0.0,0.0,0.0,0.0,0.0,0.0,0.0,0.0,0.0,0.0,0.0,0.0,0.0,0.0,0.0,0.0,0.0,0.0,0.0,0.0,0.0,0.0,0.0,0.0,0.0,0.0,0.0,0.0,0.0,0.0,0.0,0.0,0.0,0.0,0.0,0.0,0.0,0.0,0.0,0.0,0.0,0.0,0.0,0.0,0.0,0.0,0.0,0.0,0.0,0.0,0.0,0.0,0.0,0.0,0.0,0.0,0.0,0.0,0.0,0.0,-0.0522,-0.2149,-0.1009,-0.0536,-0.1993,-0.2184,-0.273,-0.4161,-0.4307,-0.456,-0.5091,-0.5043,-0.604,-0.8614,-0.8617,-0.9366,-1.1244,-1.1254,-1.12,-1.12,-1.1118,-1.109,-1.109,-1.1036,-1.1016,-1.1016,-1.1016,-1.1016,0.179,0.1252,0.1204,0.0266,0.0,0.0,0.0,0.0,0.0058,0.0171,0.0332,0.0376,0.0212,0.0306,0.0302,0.0053,0.0,0.0,0.0,0.0,0.0,0.0,0.0,0.0,0.0,0.0,0.0,0.0,0.0,0.0,0.0,0.0,0.0,0.0,0.0,0.0,0.0,0.0,0.0,0.0,0.0,0.0,0.0,0.0,0.0,0.0,0.0,0.0,0.0,0.0,0.0,0.0,0.0,0.0,0.0,0.0,0.0,0.0,0.0,0.0,0.0,0.0,0.0,0.0,0.0,0.0,0.0,0.0,0.0,0.0,0.0,0.0,0.0,0.0,0.0,0.0,0.0,0.0,0.0,0.0,0.0,0.0,0.0,-0.0704,-0.2099,-0.4509,-0.3534,-0.3013,-0.4422,-0.3826,-0.4119,-0.6254,-0.6494,-0.6722,-0.7302,-0.7222,-0.7946,-0.9801,-0.9834,-1.0305,-1.1406,-1.1423,-1.1375,-1.1328,-1.1308,-1.1281,-1.1281,-1.1227,-1.12,-1.12,-1.12,-1.12,0.156,0.1114,0.0961,0.0167,0.0,0.0,0.0,0.0,0.0114,0.0494,0.0267,0.0155,0.0504,0.0296,0.0,0.0,0.0,0.0,0.0,0.0,0.0,0.0,0.0,0.0,0.0,0.0,0.0,0.0,0.0,0.0,0.0,0.0,0.0,0.0,0.0,0.0,0.0,0.0,0.0,0.0,0.0,0.0,0.0,0.0,0.0,0.0,0.0,0.0,0.0,0.0,0.0,0.0,0.0,0.0,0.0,0.0,0.0,0.0,0.0,0.0,0.0,0.0,0.0,0.0,0.0,0.0,0.0,0.0,0.0,0.0,0.0,0.0,0.0,0.0,0.0,0.0,0.0,0.0,0.0,0.0,-0.009,-0.0224,-0.0354,-0.2275,-0.4598,-0.6935,-0.7194,-0.7073,-0.7074,-0.5066,-0.4493,-0.6617,-0.6854,-0.7527,-0.9239,-0.9361,-1.006,-1.1724,-1.1986,-1.1975,-1.1653,-1.1732,-1.1739,-1.1597,-1.1491,-1.1409,-1.1402,-1.1295,-1.122,-1.122,-1.122,-1.122,0.0545,0.0318,0.0281,0.0059,0.0,0.0,0.0,0.0,0.0054,0.0157,0.0296,0.0372,0.0182,0.0315,0.0369,0.005,0.0,0.0,0.0,0.0,0.0,0.0,0.0,0.0,0.0,0.0,0.0,0.0,0.0,0.0,0.0,0.0,0.0,0.0,0.0,0.0,0.0,0.0,0.0,0.0,0.0,0.0,0.0,0.0,0.0,0.0,0.0,0.0,0.0,0.0,0.0,0.0,0.0,0.0,0.0,0.0,0.0,0.0,0.0,0.0,0.0,0.0,0.0,0.0,0.0,0.0,0.0,0.0,0.0,0.0,0.0,0.0,0.0,0.0,0.0,0.0,0.0,0.0,0.0,0.0,-0.1434,-0.3221,-0.4991,-0.5817,-0.7003,-0.9436,-0.824,-0.768,-0.9224,-0.8877,-0.9286,-1.1295,-1.1396,-1.1458,-1.1796,-1.1632,-1.1713,-1.2138,-1.2139,-1.2064,-1.1989,-1.2023,-1.1932,-1.1746,-1.1705,-1.1667,-1.1558,-1.1525,-1.1504,-1.1504,-1.1504,-1.1504,0.0265,0.0,0.0,0.0,0.0,0.0117,0.0454,0.0383,0.0417,0.0923,0.0824,0.0607,0.0579,0.0424,0.0267,0.0047,0.0,0.0,0.0,0.0,0.0,0.0,0.0,0.0,0.0,0.0,0.0,0.0,0.0,0.0,0.0,0.0,0.0,0.0,0.0,0.0,0.0,0.0,0.0,0.0,0.0,0.0,0.0,0.0,0.0,0.0,0.0,0.0,0.0,0.0,0.0,0.0,0.0,0.0,0.0,0.0,0.0,0.0,0.0,0.0,0.0,0.0,0.0,0.0,0.0,0.0,0.0,0.0,0.0,0.0,0.0,0.0,0.0,0.0,0.0,0.0,0.0,-0.0864,-0.1997,-0.3024,-0.4263,-0.5901,-0.8263,-0.8664,-0.9153,-1.0495,-0.9557,-0.8726,-0.8792,-0.8813,-0.9563,-1.1511,-1.1655,-1.1931,-1.2761,-1.2678,-1.2556,-1.2488,-1.24,-1.2298,-1.2207,-1.22,-1.2125,-1.1938,-1.1932,-1.1857,-1.1678,-1.1782,-1.1748,-1.1584,-1.1644,-1.1644,0.0284,0.0,0.0,0.0,0.0237,0.0638,0.1131,0.1142,0.1336,0.221,0.1494,0.0786,0.115,0.0572,0.0044,0.0,0.0,0.0,0.0,0.0,0.0,0.0,0.0,0.0,0.0,0.0,0.0,0.0,0.0,0.0,0.0,0.0,0.0,0.0,0.0,0.0,0.0,0.0,0.0,0.0,0.0,0.0,0.0,0.0,0.0,0.0,0.0,0.0,0.0,0.0,0.0,0.0,0.0,0.0,0.0,0.0,0.0,0.0,0.0,0.0,0.0,0.0,0.0,0.0,0.0,0.0,0.0,0.0,0.0,0.0,0.0,0.0,0.0,0.0,-0.0276,-0.0504,-0.0508,-0.2495,-0.5015,-0.7425,-0.7754,-0.8368,-1.0782,-1.0905,-1.0717,-1.0717,-1.0446,-0.93,-0.6794,-0.6721,-0.752,-0.9207,-0.938,-1.0223,-1.2387,-1.2561,-1.2582,-1.2726,-1.272,-1.2637,-1.2359,-1.2345,-1.2271,-1.2132,-1.2132,-1.2013,-1.1827,-1.1993,-1.1968,-1.1681,-1.1803,-1.1796,0.0059,0.0,0.0,0.0,0.1503,0.2702,0.1759,0.2612,0.3335,0.2425,0.1659,0.1102,0.079,0.0606,0.0397,0.0048,0.0,0.0,0.0,0.0,0.0,0.0,0.0,0.0,0.0,0.0,0.0,0.0,0.0,0.0,0.0,0.0,0.0,0.0,0.0,0.0,0.0,0.0,0.0,0.0,0.0,0.0,0.0,0.0,0.0,0.0,0.0,0.0,0.0,0.0,0.0,0.0,0.0,0.0,0.0,0.0,0.0,0.0,0.0,0.0,0.0,0.0,0.0,0.0,0.0,0.0,0.0,0.0,0.0,0.0,0.0,0.0,0.0,0.0,-0.1617,-0.3134,-0.314,-0.5165,-0.7643,-1.0059,-1.0378,-1.103,-1.3432,-1.2078,-1.0717,-1.0717,-0.9019,-0.6875,-0.4461,-0.5784,-0.7002,-0.7191,-0.7147,-0.7974,-1.0182,-1.0254,-1.0959,-1.2842,-1.2962,-1.284,-1.2625,-1.2618,-1.2528,-1.2257,-1.2288,-1.2176,-1.2057,-1.2084,-1.207,-1.2023,-1.205,-1.2043,0.0973,0.0592,0.0366,0.1847,0.285,0.3599,0.4085,0.4447,0.4319,0.3121,0.2333,0.1728,0.1287,0.1078,0.0824,0.0361,0.0289,0.0262,0.0058,0.0,0.0,0.0,0.0,0.0,0.0,0.0,0.0,0.0,0.0,0.0,0.0,0.0,0.0,0.0,0.0,0.0,0.0,0.0,0.0,0.0,0.0,0.0,0.0,0.0,0.0,0.0,0.0,0.0,0.0,0.0,0.0,0.0,0.0,0.0,0.0,0.0,0.0,0.0,0.0,0.0,0.0,0.0,0.0,0.0,0.0,0.0,0.0,0.0,0.0,0.0,0.0,0.0,-0.0334,-0.1658,-0.3907,-0.6135,-0.749,-0.8668,-1.0193,-1.2581,-1.2872,-1.3124,-1.4229,-1.2322,-1.0268,-0.9019,-0.6793,-0.4427,-0.2016,-0.2675,-0.3751,-0.4862,-0.6004,-0.7604,-0.9884,-1.1042,-1.2142,-1.3226,-1.3159,-1.3077,-1.2963,-1.2888,-1.2786,-1.2683,-1.2676,-1.2562,-1.2413,-1.2413,-1.2332,-1.2182,-1.2182,-1.2173,0.26,0.2545,0.2656,0.4796,0.5229,0.5402,0.6413,0.6242,0.5403,0.4019,0.3084,0.2381,0.1992,0.1642,0.1214,0.0677,0.0586,0.0444,0.0056,0.0,0.0,0.0,0.0,0.0,0.0,0.0,0.0,0.0,0.0,0.0,0.0,0.0,0.0,0.0,0.0,0.0,0.0,0.0,0.0,0.0,0.0,0.0,0.0,0.0,0.0,0.0,0.0,0.0,0.0,0.0,0.0,0.0,0.0,0.0,0.0,0.0,0.0,0.0,0.0,0.0,0.0,0.0,0.0,0.0,0.0,0.0,0.0,0.0,0.0,0.0,0.0,-0.044,-0.1652,-0.479,-0.6991,-0.8972,-1.099,-1.1757,-1.2435,-1.3701,-1.425,-1.433,-1.3693,-1.1538,-0.9286,-0.7372,-0.5097,-0.3089,-0.1703,-0.1524,-0.2188,-0.3979,-0.5376,-0.7111,-0.9382,-1.1626,-1.3147,-1.3585,-1.3403,-1.3241,-1.3214,-1.3105,-1.303,-1.3003,-1.3003,-1.2901,-1.2779,-1.2706,-1.263,-1.2433,-1.24,-1.2338,0.4983,0.6887,0.9038,0.8973,0.989,1.0137,0.7493,0.7504,0.7401,0.4908,0.359,0.2746,0.2408,0.2022,0.1498,0.0728,0.0621,0.0477,0.0055,0.0,0.0,0.0,0.0,0.0,0.0,0.0,0.0,0.0,0.0,0.0,0.0,0.0,0.0,0.0,0.0,0.0,0.0,0.0,0.0,0.0,0.0,0.0,0.0,0.0,0.0,0.0,0.0,0.0,0.0,0.0,0.0,0.0,0.0,0.0,0.0,0.0,0.0,0.0,0.0,0.0,0.0,0.0,0.0,0.0,0.0,0.0,0.0,0.0,0.0,0.0,0.0,-0.1787,-0.4891,-0.9874,-1.106,-1.1127,-1.1513,-1.3305,-1.4171,-1.1971,-1.3242,-1.3932,-1.1607,-0.912,-0.7369,-0.7146,-0.5097,-0.4295,-0.6213,-0.6436,-0.6522,-0.6739,-0.5041,-0.4816,-0.7011,-0.9415,-1.1612,-1.3465,-1.3558,-1.3464,-1.3227,-1.32,-1.3132,-1.3003,-1.3003,-1.2996,-1.2982,-1.28,-1.2786,-1.2935,-1.2752,-1.2759,0.7082,0.8582,1.0383,1.162,1.1623,1.1047,0.9817,0.8995,0.7695,0.4991,0.3824,0.3147,0.2709,0.2423,0.1861,0.0725,0.0575,0.039,-0.0292,-0.04,-0.0314,-0.0057,0.0,0.0,0.0,0.0,0.0,0.0,0.0,0.0,0.0,0.0,0.0,0.0,0.0,0.0,0.0,0.0,0.0,0.0,0.0,0.0,0.0,0.0,0.0,0.0,0.0,0.0,0.0,0.0,0.0,0.0,0.0,0.0,0.0,0.0,0.0,0.0,0.0,0.0,0.0,0.0,0.0,0.0,0.0,0.0,0.0,0.0,-0.1167,-0.2422,-0.2408,-0.5528,-0.9206,-1.129,-1.1653,-1.1531,-1.1601,-1.1083,-1.0716,-1.1113,-1.1868,-1.2568,-1.2987,-1.0968,-0.9286,-0.9286,-0.7235,-0.6035,-0.6968,-0.7102,-0.7102,-0.7102,-0.7566,-0.824,-0.9127,-1.1351,-1.3033,-1.3856,-1.381,-1.366,-1.358,-1.3573,-1.3505,-1.3363,-1.3363,-1.3315,-1.3227,-1.3071,-1.303,-1.3125,-1.2975,-1.2901,0.9131,1.0657,1.2371,1.447,1.3434,1.1812,1.1394,0.9516,0.7257,0.501,0.4044,0.3491,0.3041,0.2772,0.2171,0.0,0.0547,0.0286,-0.049,-0.0646,-0.0538,-0.0054,-0.0112,-0.0175,0.0,0.0,0.0,0.0,0.0,0.0,0.0,0.0,0.0,0.0,0.0,-0.0402,-0.1295,-0.045,-0.045,-0.1346,-0.0449,0.0,0.0,0.0,0.0,0.0,0.0,0.0,0.0,0.0,0.0,0.0,0.0,0.0,0.0,0.0,0.0,0.0,0.0,0.0,0.0,0.0,-0.0581,-0.1265,-0.1257,-0.0679,0.0,0.0,-0.1947,-0.4381,-0.6017,-0.9097,-1.1994,-1.2875,-1.2341,-1.1607,-1.1658,-1.0107,-0.9206,-1.088,-1.171,-1.2398,-1.337,-1.2012,-1.0763,-1.0763,-0.9259,-0.8441,-0.9153,-0.9242,-0.9242,-0.9242,-1.0762,-1.1477,-1.0762,-1.2821,-1.4122,-1.4119,-1.3966,-1.3842,-1.3802,-1.3795,-1.3747,-1.3653,-1.3646,-1.3578,-1.3464,-1.3315,-1.3261,-1.3302,-1.3152,-1.3091,1.1215,1.375,1.6375,1.7857,1.5912,1.3137,1.1565,0.8736,0.6136,0.5093,0.4375,0.3804,0.346,0.3108,0.2364,0.0767,0.0512,0.0248,-0.0496,-0.0661,-0.0542,-0.0052,-0.0426,-0.0498,-0.0059,0.0,0.0,0.0,0.0,0.0,0.0,0.0,0.0,0.0,0.0,-0.1454,-0.4419,-0.1476,-0.1525,-0.4418,-0.1402,0.0,0.0,0.0,0.0,0.0,0.0,0.0,0.0,0.0,0.0,0.0,0.0,0.0,0.0,0.0,0.0,0.0,0.0,0.0,0.0,0.0,-0.1863,-0.4145,-0.4145,-0.2222,0.0,0.0,-0.1956,-0.5253,-1.0793,-1.2003,-1.2513,-1.539,-1.3762,-1.1627,-1.1788,-1.1591,-1.1308,-1.1237,-1.323,-1.4171,-1.1665,-1.1043,-1.0921,-1.0921,-1.0739,-1.1522,-1.3938,-1.421,-1.421,-1.421,-1.4255,-1.3312,-1.0895,-1.2907,-1.4231,-1.4125,-1.4112,-1.4,-1.3802,-1.3795,-1.3795,-1.3795,-1.3795,-1.3727,-1.3585,-1.3471,-1.3478,-1.3572,-1.3315,-1.3254,1.0517,1.2303,1.411,1.4448,1.315,1.1354,0.9903,0.8217,0.6684,0.57,0.4793,0.4162,0.4078,0.3447,0.2584,0.1571,0.1142,0.0606,-0.0457,-0.0362,-0.0293,-0.0464,-0.0345,-0.0185,0.0,0.0,0.0,0.0,0.0,0.0,0.0,0.0,0.0,0.0,-0.2074,-0.3609,-0.4514,-0.5677,-0.6706,-0.7482,-0.6536,-0.6095,-0.6032,-0.398,-0.3071,-0.2945,-0.0917,0.0,0.0,0.0,0.0,0.0,0.0,0.0,0.0,0.0,0.0,0.0,0.0,0.0,-0.032,-0.2235,-0.3456,-0.457,-0.6528,-0.6518,-0.6175,-0.8049,-0.9164,-1.0624,-1.4133,-1.4963,-1.5088,-1.589,-1.385,-1.1768,-1.1776,-1.0302,-0.9457,-1.1129,-1.211,-1.2928,-1.3793,-1.3795,-1.3676,-1.353,-1.348,-1.3732,-1.4462,-1.4509,-1.4441,-1.4441,-1.436,-1.3989,-1.3224,-1.385,-1.4278,-1.4231,-1.4231,-1.4204,-1.4156,-1.4156,-1.4109,-1.4,-1.4,-1.3926,-1.3734,-1.368,-1.3687,-1.3727,-1.3632,-1.3612,1.0064,1.1056,1.2065,1.2529,1.141,0.9953,0.9021,0.7573,0.6277,0.5876,0.5117,0.4515,0.4402,0.3365,0.2322,0.1828,0.0899,0.0159,-0.008,-0.0349,-0.0615,-0.0913,-0.0406,-0.0063,-0.0251,-0.0127,0.0,0.0,0.0,0.0,0.0,0.0,0.0,0.0,-0.3058,-0.5182,-0.6163,-0.816,-0.9651,-1.0599,-0.9402,-0.8834,-0.8778,-0.685,-0.5441,-0.4286,-0.2418,-0.0961,0.0,0.0,0.0,0.0,0.0,0.0,0.0,0.0,0.0,0.0,0.0,-0.0692,-0.1863,-0.3615,-0.5629,-0.7958,-1.0817,-1.0232,-0.9058,-1.1797,-1.2507,-1.3041,-1.5691,-1.6307,-1.6198,-1.6103,-1.3964,-1.2165,-1.3122,-1.1207,-1.0038,-1.2593,-1.3116,-1.3573,-1.5079,-1.5187,-1.5038,-1.4997,-1.4802,-1.4714,-1.4821,-1.4692,-1.4597,-1.4597,-1.4468,-1.438,-1.438,-1.4333,-1.4299,-1.4299,-1.4299,-1.4299,-1.4299,-1.4299,-1.4251,-1.4156,-1.42,-1.4082,-1.3926,-1.3926,-1.3856,-1.3802,-1.3899,-1.3856,0.0,0.9936,1.0163,1.1658,1.0425,0.8775,0.8669,0.683,0.0,0.5729,0.5372,0.4847,0.4533,0.3034,0.1832,0.1849,0.0155,-0.0713,0.0487,-0.0513,-0.1371,-0.1245,-0.0504,-0.018,-0.0598,-0.0247,0.0,0.0,0.0,0.0,0.0,0.0,0.0,0.0,-0.306,-0.6054,-0.8876,-0.9543,-1.1172,-1.3672,-1.0726,-0.932,-0.9309,-0.8957,-0.737,0.0,-0.4359,-0.2841,-0.0586,-0.0373,-0.032,-0.032,-0.032,-0.016,0.0,0.0,0.0,-0.0053,-0.0213,-0.2022,-0.4253,-0.4676,-0.854,-1.3517,-1.6177,-1.3306,-0.9651,-1.2295,-1.2834,-1.3232,-1.5852,-1.632,-1.611,-1.609,-1.4168,-1.3028,-1.5404,-1.3878,-1.2817,-1.5164,-1.5627,-1.5634,-1.5607,-1.5418,-1.5276,-1.5404,-1.5025,-1.4809,-1.4997,-1.4882,-1.4741,-1.4728,-1.4638,-1.4536,-1.4529,-1.4387,-1.4299,-1.4299,-1.4299,-1.4299,-1.4299,-1.4299,-1.4299,-1.4299,-1.4299,-1.4231,-1.4132,-1.4132,-1.4014,-1.3835,-1.4021,-1.4014,0.8654,0.0,0.8,0.8328,0.7736,0.7061,0.0,0.6447,0.5945,0.5966,0.5772,0.5496,0.5221,0.346,0.2267,0.3043,0.1554,0.0278,0.0164,-0.0703,-0.0936,0.011,0.006,-0.0063,-0.0124,-0.0063,0.0,0.0,0.0,0.0,0.0,0.0,0.0,0.0,-0.3077,-0.6065,-0.8892,-1.3718,-1.6402,-1.6852,-1.5931,-1.5493,-1.542,-1.3022,-1.1572,-1.0684,-0.6143,-0.5056,-0.6316,-0.4145,-0.3191,-0.3191,-0.3191,-0.1916,0.0,0.0,0.0,-0.032,-0.2447,-0.3668,-0.4941,-0.9281,-1.3095,-1.6124,-1.6768,-1.6072,-1.5113,-1.5809,-1.5922,-1.5976,-1.6373,-1.6469,-1.6361,-1.6137,-1.5566,-1.5159,-1.5754,-1.547,-1.5243,-1.5727,-1.5995,-1.6076,-1.5845,-1.5792,-1.5669,-1.5546,-1.5445,-1.5391,-1.5431,-1.535,-1.5208,-1.5092,-1.495,-1.4814,-1.4654,-1.4448,-1.4299,-1.4299,-1.4299,-1.4299,-1.4299,-1.4299,-1.4299,-1.4299,-1.4299,-1.4285,-1.4245,-1.4245,-1.4231,-1.419,-1.4231,-1.4224,0.8252,0.7898,0.7609,0.7326,0.6959,0.6638,0.6474,0.6237,0.6103,0.6299,0.59,0.5524,0.5512,0.3518,0.2103,0.2598,0.1296,0.0081,-0.026,-0.0343,-0.027,0.0,0.0,0.0,0.0,0.0,0.0,0.0,0.0,0.0,0.0,0.0,0.0,0.0,-0.306,-0.605,-0.8856,-1.3733,-1.6715,-1.7758,-1.7616,-1.7507,-1.7379,-1.5638,-1.4097,-1.2702,-0.9511,-0.8276,-0.8382,-0.6793,-0.616,-0.616,-0.616,-0.5258,-0.372,-0.2394,-0.1916,-0.2129,-0.3668,-0.5894,-0.8805,-1.3253,-1.575,-1.6978,-1.6978,-1.6978,-1.6978,-1.6978,-1.6931,-1.6822,-1.6585,-1.6476,-1.6368,-1.6137,-1.6015,-1.601,-1.601,-1.6076,-1.6144,-1.6037,-1.6151,-1.6232,-1.6051,-1.5949,-1.5901,-1.5845,-1.5675,-1.5614,-1.573,-1.5608,-1.5438,-1.5398,-1.5262,-1.5113,-1.4957,-1.474,-1.4577,-1.4509,-1.4434,-1.4394,-1.4394,-1.4333,-1.4299,-1.4299,-1.4299,-1.4299,-1.4299,-1.4299,-1.4299,-1.4299,-1.4299,-1.4299,0.8248,0.8066,0.7952,0.7307,0.6945,0.668,0.6433,0.6052,0.5924,0.6441,0.5845,0.5218,0.5302,0.3275,0.16,0.1629,0.0487,-0.043,-0.0373,0.0101,0.0271,-0.0397,-0.018,0.0,0.0,0.0,0.0,0.0,0.0,0.0,0.0,0.0,0.0,0.0,-0.2613,-0.5369,-0.8215,-1.1825,-1.4977,-1.7595,-1.744,-1.7338,-1.7188,-1.7046,-1.5645,-1.3353,0.0,0.0,-0.9757,-0.9334,-0.9122,-0.9122,-0.9122,-0.8858,-0.8223,-0.5735,-0.4835,-0.4941,-0.5364,-0.8964,-1.378,-1.6229,-1.6978,-1.6978,-1.6978,-1.6978,-1.6978,-1.6978,-1.689,-1.6696,-1.6598,-1.6449,-1.6307,-1.6151,-1.6096,-1.6083,-1.6083,-1.6218,-1.63,-1.6144,-1.6259,-1.6327,-1.6178,-1.6092,-1.6044,-1.6103,-1.59,-1.5778,-1.5922,-1.5805,-1.5675,-1.5627,-1.5574,-1.5445,-1.5269,-1.514,-1.5018,-1.4843,-1.4645,-1.4509,-1.4509,-1.4373,-1.4312,-1.4333,-1.4312,-1.4299,-1.4299,-1.4299,-1.4299,-1.4299,-1.4299,-1.4299,0.8394,0.8213,0.7889,0.6684,0.6215,0.5994,0.5776,0.5471,0.5332,0.5682,0.5497,0.5024,0.4135,0.2406,0.1246,0.1687,0.071,0.019,0.0961,0.0163,-0.0228,0.0401,0.0184,0.0,0.0,0.0,0.0,0.0,0.0,0.0,0.0,0.0,0.0,0.0,-0.0488,-0.2152,-0.5169,-1.0786,-1.4977,-1.7595,-1.744,-1.7338,-1.7188,-1.7046,-1.6768,-1.6177,0.0,-1.3833,-1.5487,-1.3037,-1.2084,-1.2084,-1.2084,-1.0602,-0.8435,-0.8011,-0.7852,-0.817,-1.0549,-1.3569,-1.6394,-1.6873,-1.6978,-1.6978,-1.6978,-1.6978,-1.6978,-1.6978,-1.6965,-1.691,-1.6702,-1.6554,-1.6456,-1.6307,-1.6178,-1.6083,-1.6083,-1.6293,-1.6442,-1.63,-1.6497,-1.6581,-1.6483,-1.6435,-1.6388,-1.6286,-1.6239,-1.6164,-1.6062,-1.6144,-1.611,-1.5894,-1.5913,-1.5866,-1.5546,-1.5499,-1.5479,-1.5458,-1.4875,-1.4509,-1.4509,-1.4373,-1.4353,-1.4475,-1.436,-1.4299,-1.4299,-1.4299,-1.4299,-1.4299,-1.4299,-1.4299,0.8273,0.8014,0.7459,0.5663,0.5525,0.5659,0.5219,0.4646,0.435,0.4715,0.4297,0.3703,0.3287,0.2195,0.1307,0.1158,0.0099,-0.0367,0.0543,0.0113,-0.0175,0.0298,0.0123,0.0,0.0,0.0,0.0,0.0,0.0,0.0,0.0,0.0,0.0,0.0,0.0,-0.1435,-0.4463,-0.7275,-1.0824,-1.5108,-1.6606,-1.7222,-1.7073,-1.7012,-1.6978,-1.6926,0.0,-1.5803,-1.6873,-1.5592,-1.5008,-1.5008,-1.5008,-1.4207,-1.2884,-1.1345,-1.076,-1.0971,-1.2242,-1.4581,-1.6978,-1.6978,-1.6978,-1.6978,-1.6978,-1.6978,-1.6978,-1.6978,-1.6978,-1.6924,-1.6635,-1.6581,-1.6513,-1.6259,-1.6252,-1.63,-1.6225,-1.6435,-1.6547,-1.6449,-1.6547,-1.6648,-1.6493,-1.6524,-1.6476,-1.6334,-1.6374,-1.6374,-1.6225,-1.6266,-1.6252,-1.6117,-1.6164,-1.6083,-1.5778,-1.5832,-1.5737,-1.5411,-1.5065,-1.4801,-1.4645,-1.4496,-1.4441,-1.4509,-1.4373,-1.4299,-1.4299,-1.4299,-1.4299,-1.4299,-1.4299,-1.434,0.8057,0.7617,0.6844,0.5035,0.4953,0.5099,0.4279,0.3618,0.3283,0.3685,0.3082,0.2488,0.2433,0.1815,0.1058,0.0254,-0.0488,-0.0737,-0.0116,0.0,0.0,0.0,0.0,0.0,0.0,0.0,0.0,0.0,0.0,0.0,0.0,0.0,0.0,0.0,0.0,-0.1137,-0.3409,-0.41,-0.7314,-1.3044,-1.5201,-1.6524,-1.7026,-1.6998,-1.6978,-1.6978,-1.6978,-1.6978,-1.6978,-1.6978,-1.6978,-1.6978,-1.6978,-1.6978,-1.6715,-1.4522,-1.3727,-1.3727,-1.3727,-1.5165,-1.6978,-1.6978,-1.6978,-1.6978,-1.6978,-1.6978,-1.6978,-1.6978,-1.6978,-1.6924,-1.6693,-1.6635,-1.6615,-1.632,-1.6381,-1.649,-1.6381,-1.6513,-1.6662,-1.6547,-1.6648,-1.6716,-1.6646,-1.6632,-1.6578,-1.6435,-1.6503,-1.651,-1.6334,-1.6368,-1.6374,-1.6266,-1.6347,-1.6293,-1.6037,-1.6069,-1.5906,-1.5418,-1.5276,-1.5099,-1.4762,-1.4645,-1.4563,-1.4563,-1.4387,-1.4299,-1.4299,-1.4333,-1.4346,-1.4353,-1.4387,-1.4462,0.7852,0.7017,0.6202,0.5338,0.4682,0.3887,0.2598,0.2227,0.2306,0.2729,0.2492,0.2005,0.1355,0.0601,-0.0201,-0.1107,-0.0618,-0.0059,0.0,0.0,0.0,0.0,0.0,0.0,0.0,0.0,0.0,0.0,0.0,0.0,0.0,0.0,0.0,0.0,0.0,-0.012,-0.0295,-0.293,-0.7239,-1.3161,-1.3266,-1.4664,-1.7175,-1.7039,-1.6978,-1.6978,-1.6978,-1.6978,-1.6978,-1.6978,-1.6978,-1.6978,-1.6978,-1.6978,-1.6978,-1.6768,-1.6715,-1.6715,-1.6715,-1.6821,-1.6978,-1.6978,-1.6978,-1.6978,-1.6978,-1.6978,-1.6978,-1.6978,-1.6978,-1.6978,-1.6951,-1.6849,-1.6689,-1.6655,-1.656,-1.6517,-1.651,-1.6581,-1.6696,-1.6682,-1.6856,-1.6965,-1.6951,-1.6944,-1.6897,-1.6689,-1.6675,-1.6581,-1.6347,-1.65,-1.6506,-1.6144,-1.6469,-1.6547,-1.63,-1.6286,-1.6151,-1.5874,-1.5547,-1.5262,-1.497,-1.4808,-1.4681,-1.4681,-1.4441,-1.4299,-1.4299,-1.4434,-1.4496,-1.4502,-1.4593,-1.4667,0.7772,0.7762,0.7553,0.6375,0.56,0.4671,0.2882,0.1769,0.1129,0.1296,0.1074,0.0736,0.0473,0.0202,-0.0107,-0.0445,-0.0236,0.0,0.0,0.0,0.0,0.0,0.0,0.0,0.0,0.0,0.0,0.0,0.0,-0.0874,-0.2959,-0.3018,-0.3932,-0.5926,-0.4054,-0.2981,-0.2918,-0.2016,-0.4584,-1.0554,-1.2093,-1.4293,-1.706,-1.7005,-1.6978,-1.6978,-1.6978,-1.6978,-1.6978,-1.6978,-1.6978,-1.6978,-1.6978,-1.6978,-1.6978,-1.6978,-1.6978,-1.6978,-1.6978,-1.6978,-1.6978,-1.6978,-1.6978,-1.6978,-1.6978,-1.6978,-1.6978,-1.6978,-1.6978,-1.6937,-1.6741,-1.6795,-1.6822,-1.6544,-1.6646,-1.6781,-1.6635,-1.6781,-1.6897,-1.6897,-1.6937,-1.6978,-1.6978,-1.6978,-1.6931,-1.6723,-1.6829,-1.6815,-1.656,-1.6628,-1.6594,-1.6381,-1.6341,-1.6361,-1.6435,-1.6273,-1.6076,-1.5915,-1.5799,-1.5554,-1.5255,-1.5099,-1.497,-1.4889,-1.4679,-1.4525,-1.4532,-1.4579,-1.4606,-1.4613,-1.4667,-1.4794,0.7687,0.7794,0.7627,0.6338,0.5502,0.4525,0.2765,0.14,0.0508,0.037,0.0144,-0.0099,-0.0406,-0.0211,-0.011,-0.0397,-0.0181,0.0,0.0,0.0,0.0,0.0,0.0,0.0,0.0,0.0,0.0,0.0,-0.0941,-0.2554,-0.4801,-0.5829,-0.7383,-0.9441,-0.7377,-0.6198,-0.6008,-0.3904,-0.4812,-0.8862,-1.1528,-1.4299,-1.7114,-1.7026,-1.6978,-1.6978,-1.6978,-1.6978,-1.6978,-1.6978,-1.6978,-1.6978,-1.6978,-1.6978,-1.6978,-1.6978,-1.6978,-1.6978,-1.6978,-1.6978,-1.6978,-1.6978,-1.6978,-1.6978,-1.6978,-1.6978,-1.6978,-1.6978,-1.6978,-1.6924,-1.6659,-1.6788,-1.6904,-1.6592,-1.6754,-1.6951,-1.6842,-1.6904,-1.6978,-1.6978,-1.6978,-1.6978,-1.6978,-1.6978,-1.6944,-1.6836,-1.691,-1.6924,-1.6716,-1.6696,-1.6655,-1.6554,-1.6415,-1.6354,-1.651,-1.6334,-1.6137,-1.599,-1.5976,-1.5791,-1.5493,-1.5384,-1.5255,-1.5113,-1.4916,-1.4835,-1.4882,-1.4882,-1.4882,-1.4882,-1.4883,-1.4984,0.753,0.6872,0.59,0.4952,0.3935,0.2923,0.1878,0.1094,0.0472,0.0101,0.0,-0.026,-0.1194,-0.0632,-0.0324,-0.1228,-0.0597,0.0,0.0,0.0,0.0,0.0,0.0,0.0,0.0,0.0,0.0,-0.0063,-0.3074,-0.4937,-0.4987,-0.7934,-0.9625,-0.9484,-0.934,-0.9134,-0.893,-0.891,-0.8822,-0.8716,-1.1591,-1.4528,-1.7352,-1.7114,-1.6978,-1.6978,-1.6978,-1.6978,-1.6978,-1.6978,-1.6978,-1.6978,-1.6978,-1.6978,-1.6978,-1.6978,-1.6978,-1.6978,-1.6978,-1.6978,-1.6978,-1.6978,-1.6978,-1.6978,-1.6978,-1.6978,-1.6978,-1.6978,-1.6978,-1.6944,-1.6743,-1.6863,-1.6978,-1.6978,-1.6978,-1.6978,-1.6978,-1.6978,-1.6978,-1.6978,-1.6978,-1.6978,-1.6978,-1.6978,-1.6978,-1.6978,-1.6978,-1.6924,-1.6716,-1.6702,-1.6696,-1.6702,-1.6696,-1.6635,-1.653,-1.6517,-1.6395,-1.6103,-1.6083,-1.5947,-1.5607,-1.5593,-1.5519,-1.5418,-1.5126,-1.5091,-1.5187,-1.5187,-1.5187,-1.5194,-1.5343,-1.533,0.633,0.6706,0.6863,0.5074,0.4255,0.3664,0.285,0.1362,0.014,0.0,0.0,-0.011,-0.0367,-0.0164,-0.0114,-0.0342,-0.0179,0.0,0.0,0.0,0.0,0.0,0.0,0.0,0.0,0.0,-0.094,-0.3302,-0.4262,-0.6802,-1.1391,-1.239,-1.3744,-1.5934,-1.3668,-1.23,-1.2088,-0.9869,-0.8713,-0.8712,-0.9467,-1.1339,-1.415,-1.611,-1.6978,-1.6978,-1.6978,-1.6978,-1.6978,-1.6978,-1.6978,-1.6978,-1.6978,-1.6978,-1.6978,-1.6978,-1.6978,-1.6978,-1.6978,-1.6978,-1.6978,-1.6978,-1.6978,-1.6978,-1.6978,-1.6978,-1.6978,-1.6978,-1.6978,-1.6971,-1.6924,-1.6944,-1.6951,-1.6842,-1.6904,-1.6978,-1.6978,-1.6978,-1.6978,-1.6978,-1.6978,-1.6978,-1.6978,-1.6978,-1.6978,-1.6978,-1.6978,-1.6965,-1.6917,-1.6763,-1.6736,-1.6904,-1.672,-1.652,-1.6524,-1.6429,-1.6286,-1.6096,-1.6083,-1.5995,-1.5798,-1.5791,-1.5723,-1.5526,-1.5438,-1.5459,-1.5506,-1.5506,-1.5506,-1.5458,-1.5499,-1.5493,0.564,0.586,0.5776,0.3867,0.3502,0.3319,0.2128,0.0879,0.0,0.0,0.0,0.0,0.0,0.0,0.0,0.0,0.0,0.0,0.0,0.0,0.0,0.0,0.0,0.0,0.0,0.0,-0.1369,-0.4568,-0.5947,-0.8874,-1.4075,-1.5388,-1.6762,-1.8498,-1.6505,-1.4736,-1.3311,-1.1442,-0.9335,-0.7046,-0.8083,-0.8826,-0.9439,-1.2299,-1.4212,-1.5376,-1.6499,-1.6978,-1.6978,-1.6978,-1.6978,-1.6978,-1.6978,-1.6978,-1.6978,-1.6978,-1.6978,-1.6978,-1.6978,-1.6978,-1.6978,-1.6978,-1.6978,-1.6978,-1.6978,-1.6978,-1.6978,-1.6978,-1.6978,-1.6978,-1.6978,-1.6978,-1.6958,-1.6863,-1.691,-1.6978,-1.6978,-1.6978,-1.6978,-1.6978,-1.6978,-1.6978,-1.6978,-1.6978,-1.6978,-1.6978,-1.6978,-1.6958,-1.6897,-1.6863,-1.6856,-1.6883,-1.6775,-1.668,-1.6567,-1.6476,-1.6334,-1.6185,-1.6117,-1.6069,-1.6035,-1.6085,-1.5995,-1.5857,-1.5845,-1.5845,-1.5857,-1.5784,-1.5723,-1.5723,-1.5723,-1.5642,0.5275,0.4542,0.3383,0.1864,0.1973,0.2019,0.0384,0.0,0.0,0.0,0.0,0.0,0.0,0.0,0.0,0.0,0.0,0.0,0.0,0.0,-0.0124,-0.037,-0.0432,-0.0555,-0.08,-0.0868,-0.2167,-0.5356,-0.83,-1.1339,-1.4353,-1.7199,-1.8498,-1.8091,-1.7686,-1.6089,-1.321,-1.2939,-1.0014,-0.4515,-0.7084,-0.6839,-0.4301,-0.7426,-1.0443,-1.3248,-1.5862,-1.6978,-1.6978,-1.6978,-1.6978,-1.6978,-1.6978,-1.6978,-1.6978,-1.6978,-1.6978,-1.6978,-1.6978,-1.6978,-1.6978,-1.6978,-1.6978,-1.6978,-1.6978,-1.6978,-1.6978,-1.6978,-1.6978,-1.6978,-1.6978,-1.6978,-1.6978,-1.6978,-1.6978,-1.6978,-1.6978,-1.6978,-1.6978,-1.6978,-1.6978,-1.6978,-1.6978,-1.6978,-1.6978,-1.6978,-1.6978,-1.6931,-1.6736,-1.6897,-1.6931,-1.6736,-1.6897,-1.6917,-1.6709,-1.6567,-1.6483,-1.6341,-1.6198,-1.6185,-1.6327,-1.632,-1.6313,-1.6327,-1.6191,-1.6185,-1.6307,-1.6078,-1.5935,-1.5922,-1.5922,-1.5798,0.4237,0.3673,0.3058,0.0883,0.0474,0.0461,0.0059,0.0,0.0,0.0,0.0,0.0,0.0,0.0,0.0,0.0,0.0,0.0,0.0,0.0,-0.0919,-0.3419,-0.3802,-0.4776,-0.7135,-0.7579,-0.8937,-1.1988,-1.2814,-1.4497,-1.7632,-1.7988,-1.8058,-1.797,-1.5493,-1.3831,-1.3037,-1.0776,-0.7837,-0.4263,-0.4867,-0.4795,-0.4209,-0.9405,-1.3359,-1.6124,-1.6715,-1.6978,-1.6978,-1.6978,-1.6978,-1.6978,-1.6978,-1.6978,-1.6978,-1.6978,-1.6978,-1.6978,-1.6978,-1.6978,-1.6978,-1.6978,-1.6978,-1.6978,-1.6978,-1.6978,-1.6978,-1.6978,-1.6978,-1.6978,-1.6978,-1.6978,-1.6978,-1.6978,-1.6978,-1.6978,-1.6978,-1.6978,-1.6978,-1.6978,-1.6978,-1.6978,-1.6978,-1.6978,-1.6978,-1.6978,-1.6978,-1.6971,-1.6937,-1.6958,-1.6971,-1.6937,-1.6958,-1.6917,-1.6709,-1.6669,-1.6581,-1.6483,-1.6442,-1.6442,-1.6476,-1.6368,-1.6361,-1.6476,-1.6442,-1.6388,-1.6307,-1.6246,-1.6151,-1.6085,-1.6085,-1.6003,0.3745,0.2919,0.2184,0.0457,0.0,0.0,0.0,0.0,0.0,0.0,0.0,0.0,0.0,0.0,0.0,0.0,0.0,-0.0543,-0.2059,-0.2243,-0.3391,-0.6589,-0.7039,-0.7694,-0.9251,-0.9555,-1.0885,-1.3976,-1.4038,-1.5279,-1.8286,-1.8133,-1.7813,-1.7548,-1.4667,-1.2385,-1.0838,-0.7959,-0.5749,-0.4067,-0.2789,-0.356,-0.6195,-1.0596,-1.3463,-1.5008,-1.6394,-1.6978,-1.6978,-1.6978,-1.6937,-1.6876,-1.6951,-1.6937,-1.6876,-1.6951,-1.6978,-1.6978,-1.6978,-1.6978,-1.6978,-1.6978,-1.6978,-1.6978,-1.6978,-1.6978,-1.6978,-1.6978,-1.6978,-1.6978,-1.6978,-1.6978,-1.6978,-1.6978,-1.6978,-1.6978,-1.6978,-1.6978,-1.6978,-1.6978,-1.6978,-1.6978,-1.6978,-1.6978,-1.6978,-1.6978,-1.6978,-1.6978,-1.6978,-1.6978,-1.6978,-1.6978,-1.6978,-1.6951,-1.687,-1.6743,-1.6662,-1.6581,-1.6564,-1.6558,-1.6574,-1.6506,-1.6506,-1.6574,-1.6581,-1.654,-1.6473,-1.6381,-1.6273,-1.6191,-1.6117,-1.6042,0.3617,0.2313,0.12,0.0219,0.0,0.0,0.0,0.0,0.0,0.0,0.0,0.0,0.0,0.0,0.0,0.0,-0.0481,-0.174,-0.4314,-0.5154,-0.6655,-0.9802,-1.0181,-1.0431,-1.0997,-1.1065,-1.2107,-1.466,-1.4655,-1.5607,-1.7958,-1.7936,-1.7602,-1.7202,-1.3946,-1.0993,-0.852,-0.5141,-0.3643,-0.3977,-0.2719,-0.4523,-0.9064,-1.1883,-1.325,-1.3537,-1.5954,-1.6965,-1.6944,-1.6944,-1.6863,-1.6709,-1.689,-1.6876,-1.675,-1.6931,-1.6978,-1.6978,-1.6978,-1.6978,-1.6978,-1.6978,-1.6978,-1.6978,-1.6978,-1.6978,-1.6978,-1.6978,-1.6978,-1.6978,-1.6978,-1.6978,-1.6978,-1.6978,-1.6978,-1.6978,-1.6978,-1.6978,-1.6978,-1.6978,-1.6978,-1.6978,-1.6978,-1.6978,-1.6978,-1.6978,-1.6978,-1.6978,-1.6978,-1.6978,-1.6978,-1.6978,-1.6978,-1.6978,-1.6978,-1.6863,-1.6736,-1.6736,-1.6673,-1.6659,-1.673,-1.6736,-1.6736,-1.6736,-1.6736,-1.6723,-1.6696,-1.6503,-1.6374,-1.6341,-1.6218,-1.6157,0.3942,0.2048,0.0557,0.0111,0.0,0.0,0.0,0.0,0.0,0.0,0.0,0.0,0.0,0.0,0.0,0.0,-0.2311,-0.4185,-0.4479,-0.6987,-0.9892,-1.288,-1.3443,-1.4683,-1.7307,-1.7629,-1.7773,-1.7909,-1.7758,-1.7782,-1.7914,-1.7629,-1.7392,-1.7195,-1.1939,-0.8889,-0.8493,-0.3207,-0.1729,-0.4042,-0.8416,-1.0927,-1.1882,-1.4563,-1.5948,-1.6204,-1.676,-1.6904,-1.673,-1.673,-1.6716,-1.6702,-1.6723,-1.6849,-1.6951,-1.6971,-1.6978,-1.6978,-1.6978,-1.6978,-1.6978,-1.6978,-1.6978,-1.6978,-1.6978,-1.6978,-1.6978,-1.6978,-1.6978,-1.6978,-1.6978,-1.6978,-1.6978,-1.6978,-1.6978,-1.6978,-1.6978,-1.6978,-1.6978,-1.6978,-1.6978,-1.6978,-1.6978,-1.6978,-1.6978,-1.6978,-1.6978,-1.6978,-1.6978,-1.6978,-1.6978,-1.6978,-1.6978,-1.6978,-1.6978,-1.6965,-1.6951,-1.6951,-1.6931,-1.6931,-1.6951,-1.6951,-1.6951,-1.6951,-1.6951,-1.6883,-1.6696,-1.6662,-1.6574,-1.649,-1.6469,-1.6463,0.3683,0.1627,0.0202,0.0054,0.0,0.0,0.0,0.0,0.0,0.0,0.0,0.0,0.0,0.0,0.0,0.0,-0.2582,-0.4609,-0.4609,-0.7336,-0.9816,-1.1156,-1.1457,-1.2063,-1.3418,-1.5077,-1.6044,-1.5881,-1.7228,-1.7968,-1.7758,-1.7453,-1.7222,-1.708,-1.2953,-1.0033,-0.8532,-0.4331,-0.2852,-0.4106,-1.1121,-1.366,-1.228,-1.512,-1.6497,-1.6574,-1.6693,-1.6686,-1.6567,-1.6567,-1.6527,-1.6466,-1.6635,-1.6689,-1.6741,-1.6917,-1.6978,-1.6978,-1.6978,-1.6978,-1.6978,-1.6978,-1.6978,-1.6978,-1.6978,-1.6978,-1.6978,-1.6978,-1.6978,-1.6978,-1.6978,-1.6978,-1.6998,-1.708,-1.71,-1.7121,-1.7209,-1.7161,-1.71,-1.71,-1.7032,-1.6978,-1.6978,-1.6978,-1.6978,-1.6978,-1.7046,-1.71,-1.71,-1.7175,-1.7229,-1.7229,-1.7148,-1.71,-1.71,-1.7026,-1.6978,-1.6978,-1.6978,-1.6978,-1.6978,-1.6978,-1.6978,-1.6978,-1.6978,-1.6944,-1.6876,-1.6743,-1.6662,-1.6594,-1.6513,-1.6524,0.3105,0.1425,0.0238,0.0051,0.0,0.0,0.0,0.0,-0.0234,-0.0994,-0.117,-0.1348,-0.2121,-0.1005,0.0,0.0,-0.2564,-0.457,-0.4616,-0.7292,-0.9265,-0.9355,-0.9355,-0.9419,-0.9383,-1.1332,-1.2951,-1.3639,-1.5582,-1.695,-1.7487,-1.7317,-1.7127,-1.6985,-1.4093,-1.1186,-0.8501,-0.5511,-0.3976,-0.409,-1.0909,-1.3101,-1.1111,-1.3329,-1.4351,-1.4407,-1.5871,-1.6503,-1.6469,-1.6469,-1.6402,-1.6334,-1.65,-1.654,-1.6551,-1.6781,-1.689,-1.6924,-1.6924,-1.6944,-1.6978,-1.6978,-1.6978,-1.6978,-1.6978,-1.6978,-1.6978,-1.6978,-1.6978,-1.6978,-1.6978,-1.6978,-1.7019,-1.7161,-1.7195,-1.7236,-1.7385,-1.7304,-1.7195,-1.7195,-1.708,-1.6992,-1.7026,-1.7032,-1.7032,-1.7032,-1.7154,-1.7236,-1.7195,-1.7324,-1.7419,-1.7419,-1.7317,-1.7236,-1.7195,-1.7093,-1.7019,-1.6985,-1.6978,-1.6978,-1.6978,-1.6978,-1.6978,-1.6978,-1.6978,-1.6978,-1.6978,-1.6863,-1.6757,-1.675,-1.6693,-1.6639,0.2323,0.1554,0.088,0.0191,0.0,0.0,0.0,0.0,-0.0799,-0.367,-0.4252,-0.511,-0.7919,-0.3817,0.0,0.0,-0.2658,-0.4637,-0.4541,-0.7351,-0.9355,-0.9236,-0.9338,-0.9423,-0.9373,-0.9426,-1.0563,-1.3233,-1.3463,-1.4564,-1.7069,-1.7202,-1.7127,-1.6985,-1.4093,-1.1201,-0.8524,-0.5494,-0.4013,-0.4024,-0.7018,-0.8332,-0.8233,-0.8364,-0.8453,-0.8762,-1.4136,-1.6442,-1.632,-1.632,-1.632,-1.6313,-1.6327,-1.6408,-1.6524,-1.6537,-1.6588,-1.6709,-1.6709,-1.6856,-1.6978,-1.6978,-1.6978,-1.6978,-1.6978,-1.6978,-1.6978,-1.6978,-1.6978,-1.6978,-1.6978,-1.6978,-1.7019,-1.7161,-1.7195,-1.7236,-1.7385,-1.7304,-1.7195,-1.7195,-1.708,-1.7026,-1.7161,-1.7182,-1.7182,-1.7182,-1.7311,-1.7358,-1.7209,-1.7324,-1.7419,-1.7419,-1.7412,-1.7351,-1.7202,-1.7182,-1.7121,-1.6992,-1.6978,-1.6978,-1.6978,-1.6978,-1.6978,-1.6978,-1.6978,-1.6978,-1.6978,-1.6971,-1.6971,-1.6971,-1.6965,-1.6958,0.2305,0.1439,0.0646,0.0438,0.0186,0.0,0.0,-0.1477,-0.3194,-0.4256,-0.5949,-0.699,-0.6204,-0.4338,-0.2883,-0.2883,-0.3835,-0.3866,-0.1874,-0.4277,-0.5534,-0.3516,-0.3332,-0.3378,-0.3389,-0.5076,-0.6594,-0.7587,-0.932,-1.0707,-1.1714,-1.3407,-1.4265,-1.4099,-1.3082,-1.0274,-0.5642,-0.4563,-0.398,-0.4015,-0.6719,-0.798,-0.7979,-0.8006,-0.8016,-0.8122,-1.0137,-1.1,-1.1107,-1.2858,-1.3615,-1.3781,-1.5572,-1.6341,-1.6395,-1.649,-1.6567,-1.6696,-1.6696,-1.6849,-1.6978,-1.6978,-1.6978,-1.6978,-1.6978,-1.6978,-1.6978,-1.6978,-1.6978,-1.6978,-1.6978,-1.7046,-1.7175,-1.7426,-1.7555,-1.7609,-1.7575,-1.7446,-1.7311,-1.7209,-1.708,-1.6998,-1.7046,-1.7134,-1.7195,-1.7195,-1.7405,-1.7494,-1.744,-1.7616,-1.7704,-1.7704,-1.7623,-1.7453,-1.7351,-1.7249,-1.7134,-1.6992,-1.7066,-1.7114,-1.7114,-1.7209,-1.7216,-1.7121,-1.7216,-1.7168,-1.6978,-1.6978,-1.6978,-1.6978,-1.6978,-1.6978,0.2364,0.1571,0.0847,0.0659,0.0392,0.0137,-0.0191,-0.2405,-0.4725,-0.5883,-0.7518,-0.8417,-0.7591,-0.582,-0.4183,-0.3129,-0.3004,-0.2315,-0.0282,-0.1728,-0.2266,-0.0221,0.0,0.0,0.0,-0.1798,-0.3368,-0.4345,-0.6153,-0.7625,-0.8562,-1.0342,-1.1218,-1.1105,-1.0215,-0.7867,-0.4015,-0.3125,-0.2672,-0.2656,-0.4465,-0.5322,-0.5305,-0.5324,-0.5331,-0.5331,-0.5299,-0.6346,-0.8127,-0.9992,-1.1248,-1.2308,-1.4175,-1.5415,-1.6252,-1.6395,-1.6544,-1.6628,-1.6682,-1.6849,-1.6978,-1.6978,-1.6978,-1.6978,-1.6978,-1.6978,-1.6978,-1.6978,-1.6978,-1.6978,-1.6978,-1.7121,-1.7331,-1.7534,-1.7758,-1.7826,-1.7629,-1.7473,-1.7372,-1.7222,-1.7114,-1.7066,-1.7121,-1.7249,-1.7344,-1.7344,-1.7561,-1.7704,-1.7595,-1.7772,-1.7915,-1.7915,-1.7772,-1.767,-1.7453,-1.7405,-1.7283,-1.7134,-1.7216,-1.727,-1.727,-1.7365,-1.7372,-1.727,-1.7372,-1.7324,-1.7127,-1.708,-1.7026,-1.6978,-1.6978,-1.6978,0.0,0.0,0.0,0.0804,0.0619,0.034,-0.0565,-0.2556,-0.524,-0.8625,-0.9013,-0.9562,-1.2399,-0.8325,-0.3509,-0.0503,0.0,0.0,0.0,0.0,0.0,0.0,0.0,0.0,0.0,0.0,-0.1132,-0.3877,-0.4092,-0.5304,-0.8117,-0.8301,-0.8318,-0.8199,-0.5578,-0.4098,-0.39,-0.1297,0.0,0.0,0.0,0.0,0.0,0.0,0.0,0.0,0.0,-0.2977,-0.7781,-0.7854,-0.9432,-1.1888,-1.2043,-1.3705,-1.5997,-1.6202,-1.6402,-1.6544,-1.6648,-1.6849,-1.6978,-1.6978,-1.6978,-1.6978,-1.6978,-1.6978,-1.6978,-1.6978,-1.6978,-1.6985,-1.6985,-1.7202,-1.7453,-1.7554,-1.7758,-1.7812,-1.7629,-1.7473,-1.7372,-1.7222,-1.7188,-1.7236,-1.7385,-1.7487,-1.7595,-1.7595,-1.7772,-1.7812,-1.7615,-1.7772,-1.7915,-1.7915,-1.7915,-1.7812,-1.7609,-1.7595,-1.7527,-1.7433,-1.7426,-1.7426,-1.7426,-1.7433,-1.7433,-1.7426,-1.7433,-1.7433,-1.7419,-1.727,-1.7121,-1.6985,-1.6985,-1.6978,0.2595,0.0,0.0,0.0,0.0,0.0,-0.2023,-0.392,-0.5829,-0.7704,-0.8673,-0.869,-0.7175,-0.5458,-0.3333,-0.049,0.0,0.0,0.0,0.0,0.0,0.0,0.0,0.0,0.0,0.0,-0.0321,-0.1122,-0.1169,-0.1534,-0.232,-0.4175,-0.5273,-0.5334,-0.4508,-0.3126,-0.1144,-0.0377,0.0,0.0,0.0,0.0,0.0,0.0,0.0,0.0,0.0,-0.0833,-0.2361,-0.4288,-0.557,-0.6609,-1.0586,-1.2552,-1.3473,-1.5535,-1.6402,-1.6544,-1.6648,-1.6849,-1.6978,-1.6978,-1.6978,-1.6978,-1.6978,-1.6978,-1.6978,-1.6978,-1.6978,-1.7005,-1.7107,-1.7195,-1.7324,-1.7534,-1.7595,-1.7561,-1.7575,-1.7473,-1.7372,-1.7222,-1.7107,-1.7087,-1.7229,-1.7385,-1.7467,-1.7575,-1.7772,-1.7902,-1.7812,-1.7846,-1.7915,-1.7915,-1.7915,-1.7812,-1.7609,-1.7595,-1.7527,-1.7433,-1.7467,-1.7534,-1.7534,-1.7684,-1.7684,-1.7534,-1.7684,-1.7636,-1.7419,-1.727,-1.7175,-1.7127,-1.7026,-1.6978,0.0,0.0,0.0,0.1219,0.0,0.0,-0.1713,-0.3652,-0.5326,-0.6302,-0.6839,-0.6592,-0.4724,-0.3297,-0.1896,-0.0262,0.0,0.0,0.0,0.0,0.0,0.0,0.0,0.0,0.0,0.0,0.0,0.0,0.0,0.0,0.0,-0.1475,-0.2352,-0.2463,-0.2361,-0.1563,0.0,0.0,0.0,0.0,0.0,0.0,0.0,0.0,0.0,0.0,0.0,0.0,-0.0097,-0.171,-0.3639,-0.5994,-0.9151,-1.1828,-1.406,-1.5778,-1.649,-1.6588,-1.6795,-1.6904,-1.6978,-1.6978,-1.6978,-1.6978,-1.6978,-1.6978,-1.6978,-1.6978,-1.6978,-1.7012,-1.7154,-1.7195,-1.7256,-1.7494,-1.7487,-1.746,-1.7561,-1.7473,-1.7392,-1.7304,-1.727,-1.7283,-1.7365,-1.7507,-1.7636,-1.7717,-1.7812,-1.7915,-1.7915,-1.7915,-1.7915,-1.7915,-1.797,-1.7935,-1.7846,-1.7839,-1.7805,-1.7704,-1.7792,-1.7751,-1.7738,-1.7826,-1.7826,-1.7738,-1.7826,-1.7758,-1.746,-1.7365,-1.7222,-1.71,-1.7019,-1.6978,0.0,0.0,0.0,0.0,0.1055,0.0,-0.0654,-0.2488,-0.4036,-0.4566,-0.4232,-0.3779,-0.3759,-0.1736,-0.0048,-0.005,-0.005,-0.0051,0.0,0.0,0.0,0.0,0.0,0.0,0.0,0.0,0.0,0.0,0.0,0.0,0.0,0.0,0.0,0.0,0.0,0.0,0.0,0.0,0.0,0.0,0.0,0.0,0.0,0.0,0.0,0.0,0.0,0.0,0.0,-0.0292,-0.3262,-0.7568,-0.7891,-1.1225,-1.5916,-1.6381,-1.6581,-1.6716,-1.6931,-1.6978,-1.6978,-1.6978,-1.6978,-1.6978,-1.6978,-1.6978,-1.6978,-1.6978,-1.6978,-1.7012,-1.7134,-1.7168,-1.7209,-1.7358,-1.7385,-1.7419,-1.7534,-1.746,-1.7426,-1.7446,-1.7487,-1.7575,-1.7595,-1.7758,-1.7846,-1.7915,-1.7915,-1.7915,-1.7915,-1.7915,-1.7915,-1.7936,-1.8002,-1.8091,-1.8111,-1.8247,-1.8267,-1.8124,-1.8111,-1.8057,-1.7956,-1.7936,-1.7936,-1.7915,-1.7915,-1.7792,-1.7595,-1.7494,-1.7277,-1.7005,-1.6985,-1.6978,0.0,0.0,0.0,0.0,0.0,0.0,-0.2182,-0.2182,-0.209,-0.3209,-0.2301,-0.1202,-0.0874,-0.0623,-0.0496,-0.0505,-0.0482,-0.0354,-0.0053,0.0,0.0,0.0,0.0,0.0,0.0,0.0,0.0,0.0,0.0,0.0,0.0,0.0,0.0,0.0,0.0,0.0,0.0,0.0,0.0,0.0,0.0,0.0,0.0,0.0,0.0,0.0,0.0,0.0,-0.0145,-0.2224,-0.3751,-0.503,-0.7358,-1.0223,-1.3368,-1.577,-1.6669,-1.6716,-1.6931,-1.6978,-1.6978,-1.6978,-1.6978,-1.6978,-1.6978,-1.6978,-1.6978,-1.6978,-1.6978,-1.6985,-1.7012,-1.7019,-1.706,-1.7202,-1.7148,-1.7141,-1.7405,-1.7439,-1.7406,-1.7527,-1.7473,-1.7453,-1.7575,-1.7615,-1.7683,-1.7902,-1.7915,-1.7915,-1.7915,-1.7915,-1.7914,-1.8036,-1.8077,-1.8145,-1.8267,-1.8301,-1.8301,-1.8287,-1.8267,-1.8213,-1.8057,-1.8036,-1.7989,-1.7915,-1.7915,-1.7792,-1.7595,-1.7494,-1.7324,-1.7148,-1.7032,-1.6978,0.0,0.0,0.0,0.1471,0.0,0.0,0.0,-0.0794,-0.0584,-0.1401,-0.0764,-0.0077,-0.0242,-0.0286,-0.0374,-0.0515,-0.0579,-0.0647,-0.0765,-0.0352,0.0,0.0,0.0,0.0,0.0,0.0,0.0,0.0,0.0,0.0,0.0,0.0,0.0,0.0,0.0,0.0,0.0,0.0,0.0,0.0,-0.122,-0.1827,-0.1957,-0.3163,-0.3693,-0.3683,-0.3749,-0.3757,-0.3806,-0.5211,-0.6618,-0.8029,-0.9476,-1.1853,-1.4572,-1.6058,-1.6734,-1.6876,-1.6951,-1.6978,-1.6978,-1.6978,-1.6978,-1.6978,-1.6978,-1.6978,-1.6978,-1.6978,-1.6978,-1.6978,-1.6978,-1.6978,-1.6998,-1.7073,-1.7032,-1.706,-1.7358,-1.7419,-1.7487,-1.7717,-1.7684,-1.767,-1.7738,-1.7758,-1.7772,-1.7902,-1.7935,-1.8024,-1.8024,-1.8036,-1.8124,-1.8199,-1.8267,-1.8335,-1.8366,-1.8498,-1.8511,-1.8423,-1.8355,-1.8247,-1.8091,-1.8023,-1.799,-1.7915,-1.7915,-1.7826,-1.7758,-1.7609,-1.7419,-1.7188,-1.7121,-1.7046,0.0,0.0,0.0,0.0,0.0,0.0641,0.0,0.0,0.0,0.0146,0.0329,0.033,-0.0296,-0.0186,-0.0152,-0.0555,-0.0771,-0.1158,-0.1812,-0.1251,-0.0734,-0.0767,-0.0715,-0.0617,-0.0473,-0.019,0.0,0.0,0.0,0.0,0.0,0.0,0.0,0.0,0.0,0.0,0.0,0.0,-0.0224,-0.0718,-0.2687,-0.3935,-0.4568,-0.6482,-0.7349,-0.739,-0.7497,-0.7497,-0.7517,-0.824,-0.9857,-1.186,-1.19,-1.3798,-1.6524,-1.6558,-1.6741,-1.6978,-1.6978,-1.6978,-1.6978,-1.6978,-1.6978,-1.6978,-1.6978,-1.6978,-1.6978,-1.6978,-1.6978,-1.6978,-1.6978,-1.6978,-1.6978,-1.6978,-1.6978,-1.7053,-1.7317,-1.7399,-1.7507,-1.7812,-1.7915,-1.7915,-1.7915,-1.7936,-1.7914,-1.7914,-1.8036,-1.8145,-1.8145,-1.8247,-1.8335,-1.8355,-1.8464,-1.8474,-1.8474,-1.864,-1.8654,-1.8498,-1.8409,-1.8287,-1.8145,-1.7989,-1.7956,-1.7915,-1.7915,-1.7915,-1.7915,-1.7738,-1.7534,-1.7236,-1.7209,-1.7114,0.0,0.0,0.0,0.0,0.1466,0.0,0.0,0.0,0.0559,0.0479,0.0,0.0375,0.0,0.0,0.0,-0.0935,-0.1582,-0.2256,-0.2929,-0.3237,-0.3369,-0.3466,-0.3308,-0.2872,-0.2101,-0.0818,0.0,0.0,0.0,0.0,0.0,0.0,0.0,0.0,0.0,0.0,0.0,0.0,-0.1076,-0.3179,-0.349,-0.4792,-0.6997,-0.7075,-0.721,-0.7386,-0.7397,-0.748,-0.7778,-1.0167,-1.1541,-1.2092,-1.2199,-1.4005,-1.6486,-1.6621,-1.6836,-1.6978,-1.6978,-1.6978,-1.6978,-1.6978,-1.6978,-1.6978,-1.6978,-1.6978,-1.6978,-1.6978,-1.6978,-1.6978,-1.6978,-1.6978,-1.6978,-1.6978,-1.6978,-1.7026,-1.7182,-1.7324,-1.7507,-1.7812,-1.7915,-1.7915,-1.7915,-1.8024,-1.8077,-1.8077,-1.8199,-1.8301,-1.8301,-1.8301,-1.8375,-1.844,-1.8511,-1.8474,-1.8474,-1.8494,-1.8498,-1.8355,-1.8443,-1.8443,-1.8301,-1.8145,-1.8002,-1.7915,-1.7915,-1.7915,-1.7915,-1.7902,-1.7684,-1.7392,-1.7256,-1.7114,0.0,0.0,0.0,0.0,0.0,0.0,0.1718,0.0,0.076,0.0,0.0,0.0,0.0,0.0,0.0,0.0,-0.2083,-0.2881,-0.4135,-0.4845,-0.4885,-0.3952,-0.4114,-0.3834,-0.2661,-0.2586,-0.2385,-0.1851,-0.1432,-0.1389,-0.1782,-0.0675,0.0,0.0,0.0,0.0,0.0,-0.139,-0.2597,-0.3625,-0.6388,-0.8326,-0.9485,-1.0811,-1.143,-1.1531,-1.1716,-1.1853,-1.2022,-1.3506,-1.4165,-1.4342,-1.4562,-1.5316,-1.6415,-1.6513,-1.6714,-1.6863,-1.6951,-1.6978,-1.6978,-1.6978,-1.6978,-1.6978,-1.6978,-1.6978,-1.6978,-1.6978,-1.6978,-1.6978,-1.6978,-1.6978,-1.7005,-1.7087,-1.7107,-1.7168,-1.7405,-1.7575,-1.7738,-1.7948,-1.8077,-1.8124,-1.8124,-1.8111,-1.8124,-1.8213,-1.8423,-1.8552,-1.8407,-1.8599,-1.8694,-1.8674,-1.8674,-1.8674,-1.8674,-1.8674,-1.864,-1.8586,-1.8552,-1.8389,-1.8077,-1.8077,-1.8023,-1.7915,-1.7915,-1.7915,-1.7915,-1.7915,-1.7758,-1.75,-1.7433,-1.7378,0.7183,0.0,0.0,0.0,0.0,0.0,0.0,0.0,0.0,0.0,0.0,0.0,0.0,0.0,0.0,0.0,0.0,-0.3675,-0.5043,-0.6087,-0.6233,-0.4947,-0.5052,-0.4882,-0.39,-0.4321,-0.4403,-0.3781,-0.3333,-0.3072,-0.3061,-0.1624,-0.0534,0.0,0.0,0.0,0.0,-0.2374,-0.3938,-0.4606,-0.8753,-1.113,-1.1916,-1.3656,-1.4475,-1.4523,-1.4794,-1.495,-1.5065,-1.5629,-1.5894,-1.599,-1.6157,-1.6273,-1.6327,-1.6469,-1.6646,-1.6777,-1.6944,-1.6978,-1.6978,-1.6978,-1.6978,-1.6978,-1.6978,-1.6978,-1.6978,-1.6978,-1.6978,-1.6978,-1.6978,-1.6978,-1.7019,-1.7161,-1.7195,-1.7277,-1.7527,-1.7758,-1.797,-1.8111,-1.8247,-1.8335,-1.8423,-1.8321,-1.8247,-1.8355,-1.864,-1.8762,-1.862,-1.883,-1.8938,-1.8841,-1.882,-1.88,-1.8708,-1.8694,-1.8694,-1.8694,-1.8586,-1.8375,-1.8002,-1.8091,-1.8057,-1.7915,-1.7915,-1.7915,-1.7915,-1.7915,-1.7812,-1.7704,-1.7615,-1.7514,0.0,0.0,0.0,0.7088,0.0,0.0,0.0,0.0,0.1158,0.0,0.0,0.0,0.0,0.0,0.0,0.0,0.0,0.0,0.0,-0.6773,-0.7572,-0.7407,-0.6786,-0.645,-0.6643,-0.572,-0.5132,-0.5318,-0.5411,-0.475,-0.3019,-0.2863,-0.1953,-0.0045,0.0,0.0,0.0,-0.2374,-0.474,-0.7012,-0.9513,-1.1983,-1.4368,-1.4322,-1.438,-1.4523,-1.4633,-1.4909,-1.5201,-1.5465,-1.5811,-1.6076,-1.6083,-1.6178,-1.6327,-1.6469,-1.6714,-1.6971,-1.6978,-1.6978,-1.6978,-1.6978,-1.6978,-1.6978,-1.6978,-1.6978,-1.6978,-1.6978,-1.6978,-1.6978,-1.6978,-1.6978,-1.7019,-1.7161,-1.7195,-1.7277,-1.7527,-1.7758,-1.8004,-1.8247,-1.8321,-1.8409,-1.8752,-1.862,-1.8511,-1.8474,-1.8776,-1.8918,-1.8841,-1.8884,-1.8938,-1.8841,-1.882,-1.8708,-1.8552,-1.8531,-1.8531,-1.8531,-1.8474,-1.8464,-1.8265,-1.8301,-1.8179,-1.7915,-1.7915,-1.7915,-1.7915,-1.7915,-1.7915,-1.7902,-1.7663,-1.7514,0.0,0.0,1.0547,1.0325,0.0,0.0,0.0,0.0,0.0,0.0,0.0,0.0,0.0,0.0,0.0,0.0,0.0,0.0,0.0,-0.639,-0.694,-0.7251,-0.7566,-0.7583,-0.724,-0.7443,-0.7615,-0.7578,-0.6877,-0.6574,-0.6861,-0.5596,-0.4001,-0.2105,-0.2268,-0.1614,0.0,-0.3938,-0.6302,-0.7149,-1.1161,-1.3515,-1.4373,-1.4319,-1.4326,-1.4387,-1.4586,-1.4909,-1.5215,-1.5615,-1.5961,-1.6239,-1.6334,-1.6469,-1.654,-1.6537,-1.6653,-1.6842,-1.6944,-1.6978,-1.6978,-1.6978,-1.6978,-1.6978,-1.6978,-1.6978,-1.6978,-1.6978,-1.6978,-1.6978,-1.6978,-1.7053,-1.7161,-1.7311,-1.7419,-1.7548,-1.7758,-1.7989,-1.8199,-1.8301,-1.8565,-1.8762,-1.882,-1.8796,-1.8796,-1.8694,-1.8938,-1.904,-1.8854,-1.8905,-1.8938,-1.8841,-1.882,-1.8742,-1.8694,-1.8694,-1.864,-1.8531,-1.862,-1.8565,-1.8335,-1.8321,-1.8233,-1.8023,-1.797,-1.7915,-1.7915,-1.7915,-1.7915,-1.7915,-1.7812,-1.7758,0.9073,0.9896,0.0,1.0984,0.809,0.0,0.4326,0.0,0.0,0.0,0.0,0.0,0.0,0.0,0.0,0.0,0.0,0.0,0.0,-0.6271,-0.6596,-0.6872,-0.7541,-0.7896,-0.7701,-0.8497,-0.9063,-0.916,-0.8477,-0.828,-0.8818,-0.6804,-0.4868,-0.3164,-0.2614,-0.1569,0.0,-0.3893,-0.6255,-0.7149,-1.1117,-1.3489,-1.4299,-1.4299,-1.4299,-1.4319,-1.4566,-1.4909,-1.5215,-1.5615,-1.5954,-1.6246,-1.6388,-1.6486,-1.6615,-1.6567,-1.6648,-1.6842,-1.6944,-1.6978,-1.6978,-1.6978,-1.6978,-1.6978,-1.6978,-1.6978,-1.6992,-1.7039,-1.7019,-1.6992,-1.7039,-1.7121,-1.7229,-1.7385,-1.7487,-1.7649,-1.7901,-1.8145,-1.8335,-1.8332,-1.8674,-1.8884,-1.8841,-1.8884,-1.8959,-1.8909,-1.9006,-1.9061,-1.8871,-1.8938,-1.8938,-1.8841,-1.882,-1.8841,-1.8888,-1.885,-1.8816,-1.8776,-1.8816,-1.8728,-1.8477,-1.8375,-1.8321,-1.8342,-1.8078,-1.799,-1.8091,-1.799,-1.7915,-1.7915,-1.7915,-1.7915]},{"header":{"parameterUnit":"m.s-1","parameterCategory":1,"la1":30.6,"la2":29.2853,"lo1":-89.7004,"lo2":-87.6739,"dy":0.0162,"dx":0.0183,"nx":112,"ny":82,"refTime":"2023-08-21T06:00:00:Z","depth":0,"parameterNumber":3,"parameterNumberName":"V-component_of_WINDS"},"data":[0.0,0.0,0.0,0.0,0.0,0.0,0.0,0.0,0.0,0.0,0.0,0.0,0.0,0.0,0.0,0.0,0.0,0.0,0.0,0.0,0.0,0.0,0.0,0.0,0.0,0.0,0.0,0.0,0.0,0.0,0.0,0.0,0.0,0.0,0.0,0.0,0.0,0.0,0.0,0.0,0.0,0.0,0.0,0.0,0.0,0.0,0.0,0.0,0.0,0.0,0.0,0.0,0.0,0.0,0.0,0.0,0.0,0.0,0.0,0.0,0.0,0.0,0.0,0.0,0.0,0.0,0.0,0.0,0.0,0.0,0.0,0.0,0.0,0.0,0.0,0.0,0.0,0.0,0.0,0.0,0.0,0.0,0.0,0.0,0.0,0.0,0.0,0.0,0.0,0.0,4.4782,4.8398,5.2439,5.4126,5.2274,5.1125,4.8575,4.3988,0.0,0.0,0.0,0.0,0.0,0.0,0.0,0.0,0.0,0.0,0.0,0.0,0.0,0.0,0.0,0.0,0.0,0.0,0.0,0.0,0.0,0.0,0.0,0.0,0.0,0.0,0.0,0.0,0.0,0.0,0.0,0.0,0.0,0.0,0.0,0.0,0.0,0.0,0.0,0.0,0.0,0.0,0.0,0.0,0.0,0.0,0.0,0.0,0.0,0.0,0.0,0.0,0.0,0.0,0.0,0.0,0.0,0.0,0.0,0.0,0.0,0.0,0.0,0.0,0.0,0.0,0.0,0.0,0.0,0.0,0.0,0.0,0.0,0.0,0.0,0.0,0.0,0.0,0.0,0.0,0.0,0.0,0.0,0.0,0.0,0.0,0.0,0.0,0.0,0.0,0.0,0.0,0.0,0.0,0.0,0.0,0.0,0.0,0.0,0.0,0.0,0.0,0.0,0.0,4.7613,5.1967,5.4944,5.5631,5.3197,5.0894,4.7928,4.4021,0.0,0.0,0.0,0.0,0.0,0.0,0.0,0.0,0.0,0.0,0.0,0.0,0.0,0.0,0.0,0.0,0.0,0.0,0.0,0.0,0.0,0.0,0.0,0.0,0.0,0.0,0.0,0.0,0.0,0.0,0.0,0.0,0.0,0.0,0.0,0.0,0.0,0.0,0.0,0.0,0.0,0.0,0.0,0.0,0.0,0.0,0.0,0.0,0.0,0.0,0.0,0.0,0.0,0.0,0.0,0.0,0.0,0.0,0.0,0.0,0.0,0.0,0.0,0.0,0.0,0.0,0.0,0.0,0.0,0.0,0.0,0.0,0.0,0.0,0.0,0.0,0.0,0.0,0.0,0.0,0.0,0.0,0.0,0.0,0.0,0.0,0.0,0.0,0.0,0.0,0.0,0.0,0.0,0.0,0.0,0.0,0.0,0.0,0.0,0.0,0.0,0.0,0.0,4.8459,5.1144,5.3626,5.5324,5.5241,5.2697,5.0159,4.7481,4.4562,4.1136,0.0,0.0,0.0,0.0,0.0,0.0,0.0,0.0,0.0,0.0,0.0,0.0,0.0,0.0,0.0,0.0,0.0,0.0,0.0,0.0,0.0,0.0,0.0,0.0,0.0,0.0,0.0,0.0,0.0,0.0,0.0,0.0,0.0,0.0,0.0,0.0,0.0,0.0,0.0,0.0,0.0,0.0,0.0,0.0,0.0,0.0,0.0,0.0,0.0,0.0,0.0,0.0,0.0,0.0,0.0,0.0,0.0,0.0,0.0,0.0,0.0,0.0,0.0,0.0,0.0,0.0,0.0,0.0,0.0,0.0,0.0,0.0,0.0,0.0,0.0,0.0,0.0,0.0,0.0,0.0,0.0,0.0,0.0,0.0,0.0,0.0,0.0,0.0,0.0,0.0,0.0,0.0,0.0,0.0,0.0,0.0,0.0,0.0,0.0,0.0,0.0,0.0,5.147,5.3436,5.4642,5.5324,5.4664,5.212,4.9682,4.7246,4.4764,4.091,0.0,0.0,0.0,0.0,0.0,0.0,0.0,0.0,0.0,0.0,0.0,0.0,0.0,0.0,0.0,0.0,0.0,0.0,0.0,0.0,0.0,0.0,0.0,0.0,0.0,0.0,0.0,0.0,0.0,0.0,0.0,0.0,0.0,0.0,0.0,0.0,0.0,0.0,0.0,0.0,0.0,0.0,0.0,0.0,0.0,0.0,0.0,0.0,0.0,0.0,0.0,0.0,0.0,0.0,0.0,0.0,0.0,0.0,0.0,0.0,0.0,0.0,0.0,0.0,0.0,0.0,0.0,0.0,0.0,0.0,0.0,0.0,0.0,0.0,0.0,0.0,0.0,0.0,0.0,0.0,0.0,0.0,0.0,0.0,0.0,0.0,0.0,0.0,0.0,0.0,0.0,0.0,0.0,0.0,0.0,0.0,0.0,0.0,0.0,0.0,0.0,0.0,5.1277,5.2938,5.5362,5.567,5.4664,5.212,5.0019,4.7348,4.3929,4.0897,0.0,0.0,0.0,0.0,0.0,0.0,0.0,0.0,0.0,0.0,0.0,0.0,0.0,0.0,0.0,0.0,0.0,0.0,0.0,0.0,0.0,0.0,0.0,0.0,0.0,0.0,0.0,0.0,0.0,0.0,0.0,0.0,0.0,0.0,0.0,0.0,0.0,0.0,0.0,0.0,0.0,0.0,0.0,0.0,0.0,0.0,0.0,0.0,0.0,0.0,0.0,0.0,0.0,0.0,0.0,0.0,0.0,0.0,0.0,0.0,0.0,0.0,0.0,0.0,0.0,0.0,0.0,0.0,0.0,0.0,0.0,0.0,0.0,0.0,0.0,0.0,0.0,0.0,0.0,0.0,0.0,0.0,0.0,0.0,0.0,0.0,0.0,0.0,0.0,0.0,0.0,0.0,0.0,0.0,0.0,0.0,0.0,0.0,0.0,0.0,0.0,0.0,5.216,5.3853,5.4857,5.3972,5.2505,5.051,4.7233,4.4612,4.2998,0.0,0.0,0.0,0.0,0.0,0.0,0.0,0.0,0.0,0.0,0.0,0.0,0.0,0.0,0.0,0.0,0.0,0.0,0.0,0.0,0.0,0.0,0.0,0.0,0.0,0.0,0.0,0.0,0.0,0.0,0.0,0.0,0.0,0.0,0.0,0.0,0.0,0.0,0.0,0.0,0.0,0.0,0.0,0.0,0.0,0.0,0.0,0.0,0.0,0.0,0.0,0.0,0.0,0.0,0.0,0.0,0.0,0.0,0.0,0.0,0.0,0.0,0.0,0.0,0.0,0.0,0.0,0.0,0.0,0.0,0.0,0.0,0.0,0.0,0.0,0.0,0.0,0.0,0.0,0.0,0.0,0.0,0.0,0.0,0.0,0.0,0.0,0.0,0.0,0.0,0.0,0.0,0.0,0.0,0.0,0.0,0.0,0.0,0.0,0.0,0.0,0.0,5.039,5.1979,5.3238,5.439,5.2702,5.0813,4.9125,4.525,4.2671,4.2075,0.0,0.0,0.0,0.0,0.0,0.0,0.0,0.0,0.0,0.0,0.0,0.0,0.0,0.0,0.0,0.0,0.0,0.0,0.0,0.0,0.0,0.0,0.0,0.0,0.0,0.0,0.0,0.0,0.0,0.0,0.0,0.0,0.0,0.0,0.0,0.0,0.0,0.0,0.0,0.0,0.0,0.0,0.0,0.0,0.0,0.0,0.0,0.0,0.0,0.0,0.0,0.0,0.0,0.0,0.0,0.0,0.0,0.0,0.0,0.0,0.0,0.0,0.0,0.0,0.0,0.0,0.0,0.0,0.0,0.0,0.0,0.0,0.0,0.0,0.0,0.0,0.0,0.0,0.0,0.0,0.0,0.0,0.0,0.0,0.0,0.0,0.0,0.0,0.0,0.0,0.0,0.0,0.0,0.0,0.0,0.0,0.0,0.0,0.0,0.0,0.0,0.0,5.1064,5.0376,5.0702,5.4087,5.2207,4.9976,4.8235,4.4627,4.2106,0.0,0.0,0.0,0.0,0.0,0.0,0.0,0.0,0.0,0.0,0.0,0.0,0.0,0.0,0.0,0.0,0.0,0.0,0.0,0.0,0.0,0.0,0.0,0.0,0.0,0.0,0.0,0.0,0.0,0.0,0.0,0.0,0.0,0.0,0.0,0.0,0.0,0.0,0.0,0.0,0.0,0.0,0.0,0.0,0.0,0.0,0.0,0.0,0.0,0.0,0.0,0.0,0.0,0.0,0.0,0.0,0.0,0.0,0.0,0.0,0.0,0.0,0.0,0.0,0.0,0.0,0.0,0.0,0.0,0.0,0.0,0.0,0.0,0.0,0.0,0.0,0.0,0.0,0.0,0.0,0.0,0.0,0.0,0.0,0.0,0.0,0.0,0.0,0.0,0.0,0.0,0.0,0.0,0.0,0.0,0.0,0.0,0.0,0.0,0.0,0.0,0.0,0.0,5.0364,5.0497,5.0707,5.1707,5.0592,4.886,4.6513,4.2603,4.1307,4.3749,0.0,0.0,0.0,0.0,0.0,0.0,0.0,0.0,0.0,0.0,0.0,0.0,0.0,0.0,0.0,0.0,0.0,0.0,0.0,0.0,0.0,0.0,0.0,0.0,0.0,0.0,0.0,0.0,0.0,0.0,0.0,0.0,0.0,0.0,0.0,0.0,0.0,0.0,0.0,0.0,0.0,0.0,0.0,0.0,0.0,0.0,0.0,0.0,0.0,0.0,0.0,0.0,0.0,0.0,0.0,0.0,0.0,0.0,0.0,0.0,0.0,0.0,0.0,0.0,0.0,0.0,0.0,0.0,0.0,0.0,0.0,0.0,0.0,0.0,0.0,0.0,0.0,0.0,0.0,0.0,0.0,0.0,0.0,0.0,0.0,0.0,0.0,0.0,0.0,0.0,0.0,0.0,0.0,0.0,0.0,0.0,0.0,0.0,0.0,0.0,0.0,0.0,5.055,5.02,4.9938,5.063,4.963,4.7971,4.5787,4.1743,4.0419,4.2978,0.0,0.0,0.0,0.0,0.0,0.0,0.0,0.0,0.0,0.0,0.0,0.0,0.0,0.0,0.0,0.0,0.0,0.0,0.0,0.0,0.0,0.0,0.0,0.0,0.0,0.0,0.0,0.0,0.0,0.0,0.0,0.0,0.0,0.0,0.0,0.0,0.0,0.0,0.0,0.0,0.0,0.0,0.0,0.0,0.0,0.0,0.0,0.0,0.0,0.0,0.0,0.0,0.0,0.0,0.0,0.0,0.0,0.0,0.0,0.0,0.0,0.0,0.0,0.0,0.0,0.0,0.0,0.0,0.0,0.0,0.0,0.0,0.0,0.0,0.0,0.0,0.0,0.0,0.0,0.0,0.0,0.0,0.0,0.0,0.0,0.0,0.0,0.0,0.0,0.0,0.0,0.0,0.0,0.0,0.0,0.0,0.0,0.0,0.0,0.0,0.0,0.0,5.1179,4.96,4.8702,5.0284,4.9048,4.7394,4.5629,4.1743,3.9749,4.0496,0.0,0.0,0.0,0.0,0.0,0.0,0.0,0.0,0.0,0.0,0.0,0.0,0.0,0.0,0.0,0.0,0.0,0.0,0.0,0.0,0.0,0.0,0.0,0.0,0.0,0.0,0.0,0.0,0.0,0.0,0.0,0.0,0.0,0.0,0.0,0.0,0.0,0.0,0.0,0.0,0.0,0.0,0.0,0.0,0.0,0.0,0.0,0.0,0.0,0.0,0.0,0.0,0.0,0.0,0.0,0.0,0.0,0.0,0.0,0.0,3.6477,0.0,0.0,0.0,0.0,0.0,0.0,0.0,0.0,0.0,0.0,0.0,0.0,0.0,0.0,0.0,0.0,0.0,0.0,0.0,0.0,0.0,0.0,0.0,0.0,0.0,0.0,0.0,0.0,0.0,0.0,0.0,0.0,0.0,0.0,0.0,0.0,0.0,0.0,0.0,0.0,0.0,5.0411,4.9211,4.8235,4.8625,4.8312,4.7124,4.4782,4.1897,4.1113,4.3125,3.9092,0.0,0.0,0.0,0.0,0.0,0.0,0.0,0.0,0.0,0.0,0.0,0.0,0.0,0.0,0.0,0.0,0.0,0.0,0.0,0.0,0.0,0.0,0.0,0.0,0.0,0.0,0.0,0.0,0.0,0.0,0.0,0.0,0.0,0.0,0.0,0.0,0.0,0.0,0.0,0.0,0.0,0.0,0.0,0.0,0.0,0.0,0.0,0.0,0.0,0.0,0.0,0.0,0.0,0.0,0.0,0.0,0.0,0.0,0.0,0.0,4.0672,0.0,0.0,0.0,0.0,0.0,0.0,0.0,0.0,0.0,0.0,0.0,0.0,0.0,0.0,0.0,0.0,0.0,0.0,0.0,0.0,0.0,0.0,0.0,0.0,0.0,0.0,0.0,0.0,0.0,0.0,0.0,0.0,0.0,0.0,0.0,0.0,0.0,0.0,0.0,0.0,4.967,4.8841,4.8274,4.8663,4.8355,4.7389,4.5701,4.3201,4.2099,4.2953,4.041,0.0,0.0,0.0,0.0,0.0,0.0,0.0,0.0,0.0,0.0,0.0,0.0,0.0,0.0,0.0,0.0,0.0,0.0,0.0,0.0,0.0,0.0,0.0,0.0,0.0,0.0,0.0,0.0,0.0,0.0,0.0,0.0,0.0,0.0,0.0,0.0,0.0,0.0,0.0,0.0,0.0,0.0,0.0,0.0,0.0,0.0,0.0,0.0,0.0,0.0,0.0,0.0,0.0,5.2594,5.4181,5.6225,5.622,5.6319,5.6231,5.0798,4.6702,4.3833,4.3627,0.0,0.0,0.0,0.0,0.0,0.0,0.0,0.0,0.0,0.0,0.0,0.0,0.0,0.0,0.0,0.0,0.0,0.0,0.0,0.0,0.0,0.0,0.0,0.0,5.4864,5.326,4.5716,0.0,0.0,0.0,0.0,0.0,0.0,0.0,0.0,0.0,0.0,0.0,4.8899,4.8625,4.8586,4.9317,4.8625,4.7774,4.6966,4.4701,4.2931,4.2081,4.166,4.0376,0.0,0.0,0.0,0.0,0.0,0.0,0.0,0.0,0.0,0.0,0.0,0.0,0.0,0.0,0.0,0.0,0.0,0.0,0.0,0.0,0.0,0.0,0.0,0.0,0.0,0.0,0.0,0.0,0.0,0.0,0.0,0.0,3.8894,3.749,0.0,0.0,0.0,0.0,0.0,0.0,0.0,0.0,0.0,0.0,0.0,0.0,0.0,5.3054,5.3749,5.6971,5.8219,5.7481,5.9061,5.9688,5.949,5.9482,5.9905,6.0553,5.9392,0.0,4.9796,4.5698,0.0,0.0,0.0,0.0,0.0,0.0,0.0,0.0,0.0,0.0,0.0,0.0,0.0,0.0,0.0,0.0,0.0,0.0,0.0,0.0,0.0,0.0,5.8682,5.745,5.6676,5.5504,0.0,5.1319,4.993,4.8375,4.6326,0.0,0.0,0.0,0.0,0.0,0.0,0.0,4.8179,4.8784,4.9279,4.9394,4.8625,4.7774,4.6966,4.5201,4.3778,4.297,4.15,4.0488,4.0126,4.0802,0.0,0.0,0.0,0.0,0.0,0.0,0.0,0.0,0.0,0.0,0.0,0.0,0.0,0.0,0.0,0.0,0.0,0.0,0.0,0.0,0.0,0.0,0.0,0.0,0.0,0.0,0.0,0.0,0.0,4.1881,4.3025,4.0692,4.2451,4.3652,0.0,0.0,0.0,0.0,0.0,0.0,0.0,0.0,0.0,5.6575,5.9878,6.1415,6.095,6.3369,6.4563,6.4468,6.5703,6.6364,6.6554,6.6548,6.678,6.7122,6.6977,6.4761,6.0778,5.4537,5.1541,5.0587,0.0,0.0,0.0,0.0,4.6945,4.9273,4.9092,5.0577,5.2406,5.1307,0.0,0.0,0.0,0.0,0.0,0.0,0.0,0.0,0.0,0.0,6.5682,6.4015,6.3314,6.2299,5.9604,5.7295,5.4893,0.0,5.0495,4.9843,5.051,0.0,0.0,0.0,0.0,4.906,4.9452,5.0264,5.0813,5.0813,5.0048,4.9009,4.7697,4.6466,4.5201,4.3855,4.2628,4.1512,4.0554,4.079,4.0466,0.0,0.0,0.0,0.0,0.0,0.0,0.0,0.0,0.0,0.0,0.0,0.0,0.0,0.0,0.0,0.0,0.0,0.0,0.0,0.0,0.0,0.0,0.0,0.0,0.0,0.0,0.0,0.0,4.5645,4.7184,4.379,4.6787,4.8646,0.0,0.0,0.0,0.0,0.0,0.0,5.8846,6.1876,6.4026,6.519,6.8132,6.9265,6.8473,6.9977,7.104,7.1699,7.2316,7.2991,7.3679,7.3445,7.3367,7.3365,7.3098,7.2077,7.012,6.2883,5.8868,5.7026,5.4795,5.4602,5.544,5.4042,5.5527,5.8253,5.8824,6.0041,6.1219,6.0259,5.9095,5.7444,5.3922,0.0,0.0,0.0,0.0,6.3006,6.6216,6.9204,7.1051,6.9804,6.914,6.7969,6.4687,6.2344,5.9568,0.0,5.3869,5.3295,5.3086,0.0,0.0,0.0,0.0,5.0445,5.1077,5.1829,5.2339,5.2271,5.1345,5.0205,4.886,4.762,4.6339,4.505,4.4017,4.2865,4.1562,4.1292,4.0823,4.0005,0.0,0.0,0.0,0.0,0.0,0.0,0.0,0.0,0.0,0.0,0.0,0.0,0.0,0.0,0.0,0.0,0.0,0.0,0.0,0.0,0.0,0.0,0.0,0.0,0.0,0.0,0.0,0.0,0.0,4.6147,5.1466,0.0,0.0,0.0,0.0,6.0587,6.3005,6.5195,6.7114,6.8956,7.0707,7.2323,7.4101,7.5725,7.7235,7.8189,7.8726,7.8959,7.895,7.9066,7.9257,7.8515,7.8163,7.8085,7.7073,7.6108,7.474,6.7713,6.4754,6.4574,6.3595,6.4237,6.5656,6.5639,6.6716,6.7864,6.5569,6.5385,6.627,6.6964,6.552,6.3624,6.4265,6.2746,0.0,0.0,6.8659,6.8762,7.3795,7.4131,7.3164,7.3047,7.1797,6.9844,6.7265,6.5937,6.3475,0.0,5.4298,5.3109,5.4595,0.0,5.1566,5.3169,5.276,5.2278,5.2327,5.3011,5.3485,5.3351,5.1865,5.0817,5.0577,4.8317,4.6904,4.6862,4.5338,4.4376,4.4302,4.3489,4.302,4.2885,4.3544,0.0,0.0,0.0,0.0,0.0,0.0,0.0,0.0,0.0,0.0,0.0,0.0,0.0,0.0,0.0,0.0,0.0,0.0,0.0,0.0,0.0,0.0,0.0,0.0,0.0,0.0,0.0,0.0,5.7609,6.1159,0.0,6.1502,6.2522,6.4907,6.8691,6.9787,7.2028,7.6075,7.7953,7.967,8.1386,8.2594,8.3451,8.4074,8.4384,8.4588,8.4641,8.4054,8.4098,8.4687,8.3242,8.2929,8.3398,8.2457,8.1868,8.136,7.8307,7.4314,7.0011,6.9195,6.9226,6.9802,7.0353,7.1279,7.2202,7.1866,7.1986,7.2034,7.0745,6.8305,6.5996,6.69,6.651,6.6588,7.038,7.2259,7.3786,7.6714,7.746,7.7148,7.6055,7.4492,7.2656,7.0625,6.8203,6.5781,6.3591,5.9672,5.6523,5.5993,5.4151,5.3174,5.4303,5.4679,5.5059,5.5604,5.5901,5.5836,5.524,5.4185,5.2801,5.1111,4.963,4.829,4.7212,4.6048,4.4921,4.3831,4.3481,4.3034,4.2477,4.2681,4.3518,0.0,0.0,0.0,0.0,0.0,0.0,0.0,0.0,0.0,0.0,0.0,0.0,0.0,0.0,0.0,0.0,0.0,0.0,0.0,0.0,0.0,0.0,0.0,0.0,0.0,6.2091,6.609,6.6167,6.9512,7.1554,7.0976,7.1512,7.3488,7.7292,7.8075,8.0151,8.4258,8.5586,8.6875,8.832,8.8906,8.9219,8.9219,8.8945,8.8633,8.832,8.7461,8.7187,8.7461,8.6289,8.6094,8.6601,8.6015,8.5781,8.5742,8.5156,8.1901,7.7255,7.6398,7.6088,7.6205,7.7022,7.7291,7.7365,7.7634,7.7554,7.6979,7.5079,7.2805,7.0859,7.1133,7.1445,7.207,7.4062,7.6055,7.7969,7.9414,7.9961,7.9726,7.8047,7.6523,7.4844,7.25,7.0234,6.8281,6.7109,6.3589,6.061,6.0025,5.8948,5.861,6.0013,6.0243,6.0547,6.1395,6.0223,5.896,5.8098,5.6422,5.4463,5.2125,5.1395,5.0121,4.7844,4.7435,4.6378,4.4377,4.4853,4.4703,4.3809,4.4926,4.5888,4.6625,0.0,0.0,0.0,0.0,0.0,0.0,0.0,0.0,0.0,0.0,0.0,0.0,0.0,0.0,0.0,0.0,0.0,0.0,0.0,0.0,0.0,0.0,0.0,6.0954,6.7913,7.263,7.114,7.6214,7.9211,7.7592,8.0543,8.3633,8.6211,8.7929,8.9609,9.1328,9.1406,9.1797,9.2656,9.2695,9.2695,9.2695,9.1836,9.1015,9.0156,8.9297,8.8476,8.7734,8.7695,8.7656,8.7656,8.7617,8.7617,8.7578,8.7578,8.707,8.6211,8.5312,8.4961,8.5,8.5898,8.5117,8.3476,8.2617,8.1758,8.0898,8.0078,7.9258,7.8437,7.7578,7.789,7.875,7.9531,8.0351,8.125,8.207,8.1679,8.0625,7.8945,7.7851,7.6289,7.2812,7.2031,7.1015,6.7656,6.5625,6.4922,6.6523,6.6836,6.7656,7.0117,6.9101,0.0,6.9099,6.5507,6.2573,6.1696,5.8542,5.5751,5.3962,5.3649,5.2173,4.8932,4.9401,4.8656,4.6168,4.7629,4.804,4.7051,5.0406,5.0075,4.5903,0.0,0.0,0.0,0.0,0.0,0.0,0.0,0.0,0.0,0.0,0.0,0.0,0.0,0.0,0.0,0.0,0.0,0.0,0.0,0.0,0.0,6.8494,7.2791,7.1651,7.6214,8.0635,8.335,8.5698,8.7184,8.7342,8.8242,8.9375,9.0742,9.1836,9.2969,9.4062,9.414,9.4258,9.4492,9.4492,9.4492,9.4492,9.4258,9.4023,9.375,9.289,9.2695,9.3047,9.1758,9.1211,9.1172,9.0547,8.9883,8.9297,8.9297,8.9179,8.8828,8.7344,8.6015,8.5,8.5898,8.5117,8.3476,8.2617,8.2148,8.1914,8.164,8.1015,8.0273,8.0039,8.0117,8.0351,8.0586,8.1289,8.1992,8.2226,8.2109,8.1523,7.9765,7.875,7.7344,7.4492,7.289,7.1523,6.9961,6.8281,6.668,6.5273,6.5,6.5234,6.5937,6.5117,0.0,6.4726,6.2617,6.1758,6.3358,6.0467,5.8473,5.851,5.5102,5.2053,4.9917,4.8235,4.6672,4.5348,4.5733,4.5842,4.5597,4.767,4.7885,0.0,0.0,0.0,0.0,0.0,0.0,0.0,0.0,0.0,0.0,0.0,0.0,0.0,0.0,0.0,0.0,0.0,0.0,0.0,0.0,0.0,0.0,7.4915,8.0543,8.2534,8.4682,8.7223,9.0508,9.164,9.2656,9.3867,9.3672,9.3828,9.4687,9.5195,9.5703,9.6211,9.625,9.625,9.625,9.625,9.625,9.625,9.625,9.6094,9.5742,9.5234,9.5078,9.5156,9.414,9.3672,9.3672,9.3164,9.2422,9.164,9.164,9.1211,0.0,0.0,0.0,0.0,0.0,8.4765,8.3476,8.2617,8.2304,8.2304,8.2304,8.1953,8.1523,8.1523,8.1523,8.1523,8.1523,8.1914,8.2304,8.2304,8.2304,8.1875,8.0117,7.9336,7.8281,7.5703,7.4062,7.2734,7.1484,7.0156,0.0,6.6797,6.707,6.789,6.8984,6.8437,6.7734,6.7343,6.5195,6.3984,6.4765,6.2109,6.0,5.9413,5.6913,0.0,0.0,0.0,4.8201,4.6562,4.6442,0.0,0.0,0.0,5.0696,4.8824,0.0,0.0,0.0,4.8197,4.8538,0.0,0.0,0.0,0.0,0.0,0.0,0.0,0.0,0.0,0.0,0.0,0.0,0.0,0.0,0.0,0.0,8.0856,8.664,9.25,9.2656,9.2695,9.414,9.5,9.6094,9.7695,9.7187,9.7109,9.7929,9.8008,9.8008,9.8008,9.789,0.0,0.0,0.0,9.7695,9.7695,9.7695,9.7344,9.664,9.664,9.6211,9.5469,9.5469,9.5429,9.5351,9.5351,9.4844,9.4062,9.4062,9.3086,9.1562,9.1172,9.0117,8.8515,8.5898,8.4414,8.3594,8.2656,0.0,0.0,8.2304,8.2304,8.2304,8.2304,8.2304,8.2304,8.2304,8.2304,8.2304,8.2304,8.2304,8.1875,8.0117,7.9687,7.8984,7.6445,7.5273,7.4258,7.2617,7.1601,7.0781,7.0195,7.0976,7.25,7.4805,7.4336,7.3437,7.2693,6.9765,6.7265,6.6014,0.0,0.0,5.8945,5.89,5.7258,5.3203,5.2615,5.1365,4.8982,4.8757,4.9723,5.1937,5.5221,5.5455,5.2484,5.5808,5.5851,5.2926,5.257,5.2866,0.0,0.0,0.0,0.0,0.0,0.0,0.0,0.0,0.0,0.0,0.0,0.0,0.0,0.0,0.0,8.3825,8.8241,9.2461,9.7109,9.7617,9.7383,9.6992,9.7109,9.7617,9.8633,9.8594,9.8867,9.9726,9.9804,9.9804,9.9804,9.914,9.875,9.875,9.8086,9.7695,9.7695,9.7695,9.7617,9.7461,0.0,0.0,9.7226,9.7226,9.6875,9.625,9.625,9.5742,9.4961,9.4961,9.4336,9.3125,9.0312,8.9414,8.9336,8.6094,8.4804,8.4414,8.2851,8.2304,8.2304,8.2304,8.2304,8.2304,8.2304,8.2304,0.0,8.2304,8.2304,8.2304,8.2304,8.2304,8.1875,8.0117,7.9687,7.8984,7.6445,7.5781,7.5351,7.4297,7.3398,7.2969,7.3515,7.1562,7.0078,7.0586,6.9375,6.832,6.8164,6.6328,6.5742,6.7499,6.4726,6.3125,6.4021,6.043,5.7147,5.4771,5.2529,5.1074,5.0549,5.0527,5.0719,5.1202,5.2606,5.2993,5.2327,5.3687,5.4351,5.4358,5.3082,5.2532,0.0,0.0,0.0,0.0,0.0,0.0,0.0,0.0,0.0,0.0,0.0,6.9512,7.4321,0.0,8.4647,8.9803,9.3554,9.6719,9.9297,9.9648,9.9492,9.9062,9.8984,9.9179,9.9609,9.9648,9.9844,10.0312,10.0312,10.0312,10.0312,9.9453,9.9219,9.9648,9.8398,9.8125,9.8984,9.8554,9.8554,9.8984,9.8554,9.8359,9.8359,9.789,9.7461,9.7109,9.7109,9.664,9.5781,9.4922,9.4297,9.3633,9.1015,8.9726,8.9023,8.6484,8.5,8.4101,8.3242,8.2656,8.2304,8.2304,8.2304,8.2304,8.2304,8.2304,8.2304,8.2304,8.2304,8.2304,8.2304,8.2304,8.1953,8.0664,8.0039,7.9258,7.7578,7.6523,7.5781,7.5351,7.4531,7.4101,7.4531,7.3164,7.1719,7.082,6.9609,6.8515,6.7656,6.6797,6.6406,6.6835,6.5351,6.4492,6.4921,6.132,5.8048,5.5766,5.3877,5.265,5.2217,5.2136,5.2322,5.2744,5.3659,5.4326,5.4749,5.5647,5.6538,5.7364,5.6502,5.5614,0.0,0.0,0.0,0.0,0.0,0.0,0.0,6.1682,6.4788,7.1254,7.4238,7.7449,8.3232,8.7535,9.1366,9.4842,9.7695,9.9883,10.0898,10.0898,10.0781,10.0781,10.0508,10.039,10.0508,10.0586,10.0586,10.0781,10.0781,10.0703,10.0586,9.9726,9.957,10.0312,9.8789,9.8711,10.0312,9.9609,9.9609,10.0312,9.9414,9.8984,9.8984,9.8086,9.7695,9.7695,9.7695,9.7344,9.6601,9.4883,9.414,9.3945,9.2031,9.0351,8.875,8.707,8.5351,8.3828,8.3672,8.3047,8.2304,8.2304,8.2304,8.2304,8.2304,8.2304,8.2304,8.2304,8.2304,8.2304,8.2304,8.2304,8.207,8.1211,8.0469,7.9726,7.8906,7.75,7.6406,7.6406,7.5703,7.5117,7.5117,7.4961,7.4258,7.25,7.1523,7.039,6.8867,6.8555,6.789,6.6484,6.6055,6.543,6.4375,6.2088,5.9668,5.7262,5.6209,5.5302,5.4383,5.426,5.4511,5.5203,5.614,5.6932,5.7666,5.8645,5.946,6.0162,5.9994,5.9111,5.1294,5.239,5.4955,5.8005,6.0692,6.4669,0.0,7.6072,7.87,8.3358,8.6874,8.9609,9.1171,9.375,9.6758,10.0195,10.1094,10.1914,10.3515,10.3086,10.2617,10.2617,10.1211,10.0586,10.1406,10.1484,10.1797,10.2617,10.2617,10.2304,10.1484,10.0586,10.0195,10.0312,9.9375,9.9336,10.0312,10.0195,10.0195,10.0312,9.9414,9.8984,9.8984,9.8086,9.7695,9.7695,9.7695,9.7656,9.7422,9.5742,9.5039,9.4804,9.2265,9.0703,8.9648,8.7969,8.625,8.4648,8.3867,8.3047,8.2304,8.2304,8.2304,8.2304,8.2304,8.2304,8.2304,8.2304,8.2304,8.2304,8.2304,8.2304,8.207,8.1211,8.0937,8.0625,7.9765,7.8867,7.8203,7.8203,7.75,7.6914,7.6914,7.6289,7.5156,7.3437,7.2422,7.1523,7.0547,6.9805,6.9258,6.8984,6.7656,6.6094,6.4453,6.3184,6.1983,6.0809,5.9784,5.8793,5.7791,5.7753,5.7775,5.7857,5.8693,5.9133,5.9249,6.0129,6.0608,6.0724,6.069,6.0275,5.9137,6.0065,6.1723,6.5787,6.922,7.3368,8.007,8.3317,8.6444,9.1797,9.4414,9.6523,9.8906,10.0195,10.1601,10.3594,10.3398,10.3398,10.4101,10.3008,10.1992,10.1406,10.0703,10.0781,10.2187,10.2383,10.25,10.289,10.289,10.2695,10.2383,10.1484,10.1289,10.1797,10.0508,10.039,10.1797,10.1289,10.1289,10.1797,10.0898,10.0195,9.9726,9.8867,9.8164,9.7695,9.7695,9.7695,9.7617,9.6445,9.5664,9.5039,9.3437,9.1953,9.0547,8.8828,8.7109,8.5547,8.4648,8.3789,8.2969,8.2461,8.2304,8.2304,8.2304,8.2304,8.2304,8.2304,8.2304,8.2304,8.2304,8.2304,8.2226,8.1836,8.1367,8.0898,8.0547,7.9805,7.9219,7.9219,7.8906,7.8515,7.8047,7.7656,7.6836,7.5078,7.3633,7.2422,7.1562,7.0703,7.0,6.9492,6.8398,6.7108,6.5765,6.4805,6.3828,6.2722,6.1771,6.1026,6.0529,6.0012,5.9742,5.9742,6.0089,6.0242,6.0242,6.0633,6.0787,6.0787,6.0787,6.0663,6.4675,6.6421,6.8654,7.378,7.7873,8.2026,8.7226,9.0234,9.3398,9.875,10.039,10.1601,10.4414,10.4492,10.4492,10.539,10.4804,10.4101,10.3906,10.2304,10.0703,9.9414,9.8828,9.9219,10.1015,10.1992,10.2617,10.289,10.289,10.2812,10.2617,10.1914,10.1914,10.25,10.1289,10.1406,10.289,10.2304,10.2304,10.289,10.1992,10.1094,10.0312,9.914,9.8281,9.7695,9.7695,9.7695,9.7656,9.6836,9.5976,9.5117,9.4258,9.2812,9.1133,8.9609,8.8008,8.6445,8.5547,8.4687,8.3867,8.3203,8.2851,8.2656,8.2656,8.25,8.2304,8.2304,8.2304,8.2304,8.2304,8.2304,8.2304,8.2304,8.1836,8.1367,8.1367,8.0664,8.0078,8.0078,7.9844,7.9453,7.8633,7.8515,7.8008,7.6484,7.4961,7.3711,7.2812,7.1953,7.1094,7.0273,6.9414,6.8355,6.7059,6.6427,6.548,6.402,6.3334,6.2834,6.2453,6.182,6.1473,6.1473,6.1287,6.1172,6.1172,6.0941,6.0787,6.0787,6.0787,6.0787,6.5829,6.9709,7.4608,8.1512,8.6443,9.0976,9.6133,9.8672,10.1015,10.4492,10.5312,10.5586,10.6484,10.5312,10.4492,10.539,10.4804,10.3906,10.3086,10.1406,9.9414,9.6914,9.5117,9.4765,9.6523,9.9687,10.1992,10.2812,10.289,10.25,10.1719,10.1601,10.1601,10.1601,10.1601,10.1992,10.289,10.289,10.289,10.289,10.1992,10.1094,10.0195,9.8515,9.7734,9.7695,9.7695,9.7695,9.7656,9.6836,9.5976,9.5117,9.4258,9.2812,9.1172,9.0273,8.8906,8.7344,8.6445,8.5586,8.4844,8.4844,8.4258,8.3554,8.3554,8.2969,8.2304,8.2304,8.2304,8.2304,8.2304,8.2304,8.2304,8.2304,8.2265,8.2265,8.2265,8.1562,8.0976,8.0976,8.0273,7.9453,7.8633,7.8515,7.8203,7.7305,7.6406,7.5508,7.4648,7.375,7.289,7.2031,7.1133,6.9878,6.803,6.7829,6.6958,6.4906,6.4758,6.4294,6.3288,6.3237,6.3237,6.3237,6.248,6.2062,6.2062,6.121,6.0787,6.0787,6.0787,6.0787,7.0997,7.7159,8.4162,9.0545,9.4961,9.875,10.2812,10.4609,10.5586,10.6211,10.3984,10.1991,10.1601,9.832,9.6874,10.0586,10.0508,10.0586,10.2617,10.1914,9.957,9.5273,9.5742,9.5742,9.4062,9.6523,9.9297,10.1797,10.2617,10.2812,10.25,10.3008,10.3086,10.25,10.25,10.2617,10.289,10.289,10.289,10.289,10.1992,10.0781,9.9453,9.9414,9.8789,9.7734,9.832,9.8242,9.7695,9.7422,9.6484,9.5156,9.4883,9.3711,9.207,9.1172,9.0508,8.9648,8.7109,8.6015,8.5664,8.5078,8.4687,8.4336,8.3789,8.3398,8.3047,8.2461,8.2304,8.2304,8.2304,8.2304,8.2304,8.2304,8.2304,8.2304,8.2304,8.207,8.1875,8.1875,8.164,8.1172,8.0312,8.0156,7.9803,7.8799,7.7064,7.5545,7.4544,7.4147,7.3582,7.2576,7.1707,7.0751,6.954,6.8369,6.7347,6.6554,6.5451,6.4598,6.4179,6.3622,6.3314,6.3314,6.3051,6.2897,6.2897,6.2589,6.2474,6.2474,6.2474,6.2474,7.8143,8.503,9.1945,9.7421,10.1406,10.4414,10.6289,10.6914,10.6601,10.4804,10.1484,9.8476,9.6992,9.3476,9.2343,9.6914,9.6914,9.7539,10.1015,10.0195,9.8086,9.4765,9.5,9.4804,9.3203,9.457,9.6992,10.039,10.2109,10.289,10.289,10.3711,10.4101,10.3789,10.3203,10.3008,10.3398,10.2695,10.2304,10.1992,10.1094,10.0195,9.9453,9.9414,9.8945,9.8164,9.8437,9.8203,9.7695,9.7695,9.6914,9.5625,9.5312,9.4336,9.2929,9.1758,9.1289,9.0898,8.8086,8.7109,8.6953,8.6094,8.5625,8.5273,8.4687,8.4101,8.3476,8.2929,8.2539,8.2304,8.2304,8.2304,8.2304,8.2304,8.2304,8.2304,8.2304,8.2304,8.2304,8.2304,8.2304,8.2031,8.1133,8.0661,8.0168,7.9403,7.8006,7.6698,7.5691,7.5372,7.4691,7.3327,7.2405,7.1442,7.0207,6.9076,6.8092,6.7337,6.6543,6.576,6.5102,6.4782,6.4512,6.4243,6.3929,6.3775,6.3775,6.3468,6.3314,6.3314,6.3314,6.3314,8.6665,9.2806,9.7847,10.2187,10.5586,10.7695,10.6914,10.5898,10.4218,10.0702,9.7734,9.5,9.242,9.0585,9.0703,9.4414,9.4492,9.5351,9.8906,9.7304,9.5703,9.5508,9.3359,9.2461,9.3945,9.4179,9.5625,9.8945,10.1484,10.3008,10.3008,10.3906,10.4687,10.5508,10.3906,10.3398,10.4219,10.25,10.1094,10.0195,9.9492,9.9492,10.0117,9.8594,9.8281,9.8906,9.8125,9.7734,9.7695,9.7695,9.7226,9.6406,9.5586,9.4726,9.3711,9.2031,9.1406,9.1133,8.9414,8.8789,8.8633,8.7812,8.6992,8.6328,8.6211,8.5039,8.3711,8.3672,8.3047,8.2383,8.2383,8.2344,8.2304,8.2304,8.2304,8.2304,8.2304,8.2304,8.2304,8.2304,8.2304,8.2031,8.1171,8.0202,7.9437,7.9267,7.9244,7.8863,7.7922,7.7295,7.6196,7.4237,7.3274,7.199,7.0176,6.9923,6.9115,6.7346,6.7975,6.7699,6.609,6.675,6.6789,6.5981,6.5166,6.4705,6.4666,6.3852,6.3429,6.3429,6.3429,6.3429,9.0897,9.7304,10.3203,10.7617,10.7812,10.7109,10.7617,10.3984,9.9687,9.625,9.0429,8.5311,8.3359,8.2616,8.4491,9.1211,9.4804,9.8594,10.3984,10.4219,10.2617,9.9375,9.957,9.9101,9.6953,9.789,9.957,10.1719,10.3086,10.4219,10.4804,10.6211,10.6601,10.5508,10.4414,10.3984,10.4219,10.25,10.0781,9.9336,10.039,10.0,9.8398,9.9922,9.9648,9.8047,9.8476,9.8281,9.7695,9.7695,9.7226,9.6484,9.625,9.5234,9.3867,9.3398,9.2812,9.2109,9.1015,9.0195,8.9531,8.8672,8.8242,8.7812,8.6562,8.5898,8.539,8.4765,8.3945,8.3281,8.3281,8.2773,8.2304,8.2304,8.2304,8.2304,8.2304,8.2304,8.2304,8.2304,8.2175,8.1968,8.1605,8.1276,8.1065,8.0857,8.0949,8.0219,7.7932,7.754,7.6666,7.4737,7.3773,7.2854,7.1692,7.0452,6.9528,6.9058,6.8622,6.8199,6.7776,6.7968,6.7667,6.6827,6.6596,6.6167,6.5551,6.5359,6.5243,6.5243,6.5243,6.5243,9.7343,10.289,10.75,10.9492,10.8906,10.7109,10.41,10.0312,9.5507,8.9018,8.3902,7.949,7.5857,7.7655,8.1484,8.7031,9.2812,9.8828,10.5312,10.5781,10.5117,10.3789,10.3594,10.289,10.1289,10.1719,10.289,10.5,10.4883,10.5312,10.6484,10.75,10.7695,10.7187,10.5195,10.3789,10.3086,10.1719,10.0312,9.9023,10.0,9.9883,9.8867,9.9961,9.9883,9.8828,0.0,9.8164,9.7695,9.7695,9.7422,9.6992,9.664,9.5898,9.4961,9.4179,9.3594,9.3047,9.2187,9.1562,9.0859,8.9219,8.8711,8.8476,8.7148,8.6484,8.6094,8.5625,8.4844,8.4179,8.4179,8.3515,8.2969,8.3359,8.3164,8.2969,8.3359,8.3355,8.3179,8.2718,8.2194,8.1819,8.1614,8.1572,8.1519,8.1436,8.1512,8.0898,7.9083,7.8491,7.7537,7.5613,7.4642,7.3768,7.2836,7.1898,7.1206,7.0821,7.0321,6.9744,6.9007,6.8968,6.8545,6.7705,6.7667,6.7244,6.6442,6.6821,6.6628,6.5904,6.625,6.625,10.4218,10.8281,11.039,10.9492,10.8789,10.6287,9.8743,9.5149,9.0693,8.1024,7.8228,7.5855,7.0264,7.488,8.0625,8.3906,9.0664,9.8086,10.5508,10.5703,10.5898,10.8203,10.6484,10.5312,10.6093,10.5508,10.6015,10.8281,10.7187,10.6914,10.8281,10.8515,10.8711,10.8906,10.6015,10.3515,10.1601,10.0898,10.0,9.9179,9.9297,9.9687,10.0312,9.9531,9.9531,10.0,9.8398,9.7695,9.7695,9.7695,9.7695,9.7617,9.6914,9.6601,9.6328,9.4804,9.4101,9.3789,9.3047,9.2695,9.2226,8.9804,8.8984,8.875,8.8047,8.7148,8.6406,8.664,8.6015,8.5234,8.5234,8.4609,8.4101,8.4765,8.4296,8.3944,8.4686,8.469,8.4265,8.3302,8.2409,8.176,8.1556,8.1461,8.1407,8.1407,8.1403,8.1227,8.0691,7.9835,7.8547,7.6715,7.571,7.4812,7.3772,7.3584,7.3224,7.2406,7.2367,7.1668,7.009,7.0014,6.959,6.8584,6.8584,6.8129,6.7289,6.8013,6.766,6.6244,6.6936,6.6898,10.75,10.9609,11.039,10.9492,10.6005,10.1096,9.4827,8.8672,8.2589,7.6641,7.4161,7.214,6.898,7.4021,8.0897,8.7773,9.3594,10.0703,11.0508,11.0508,10.9883,11.1093,11.0195,10.9492,10.9687,10.9609,11.0,11.1093,11.1015,11.0586,11.0195,11.0781,11.0,10.7187,10.5898,10.4101,10.1601,10.1484,10.0898,10.0117,10.0781,10.0898,10.0312,10.0117,9.9765,9.9179,9.8125,0.0,9.7695,9.7695,9.7695,9.7695,9.7539,9.7109,9.6445,9.6172,9.5156,9.3867,9.3711,9.3203,9.2422,9.1211,9.0351,8.9765,8.9609,8.8476,8.7578,8.8945,8.8242,8.7031,8.7031,8.6406,8.5625,8.5039,8.4672,8.4473,8.4629,8.4451,8.4185,8.3812,8.3026,8.239,8.2191,8.1729,8.1407,8.1407,8.1534,8.1664,8.1714,8.0809,7.9536,7.7793,7.6856,7.5871,7.4818,7.4138,7.3603,7.3297,7.3276,7.2822,7.1828,7.179,7.1052,6.9513,6.9468,6.9052,6.816,6.8314,6.8237,6.7968,6.8122,6.8084,10.4917,10.8514,11.1991,10.9203,10.4492,9.845,9.0181,8.3984,7.8318,7.2394,7.1251,7.0408,6.7409,7.3195,7.9488,8.2812,8.8398,9.6132,10.6992,10.6992,10.7695,11.2695,11.2109,11.1484,11.1914,11.1484,11.1601,11.25,11.2617,11.2383,11.1992,11.1484,10.9804,10.6797,10.5898,10.4492,10.2304,10.1797,10.1406,10.1015,10.1406,10.1406,10.1015,10.1015,10.0508,9.9648,9.875,9.8125,9.7695,9.7695,9.7695,9.7695,9.7695,9.7461,9.707,9.664,9.5664,9.4492,9.4062,9.332,9.2617,9.2656,9.1758,9.0586,9.0156,8.9453,8.8984,8.9765,8.9414,8.8789,8.8789,8.8164,8.7382,8.6859,8.6239,8.5718,8.561,8.5146,8.4544,8.3866,8.3031,8.228,8.1739,8.1535,8.1425,8.1534,8.1749,8.1912,8.2124,8.1714,8.085,7.95,7.8481,7.7636,7.7024,7.6157,7.5593,7.5491,7.463,7.393,7.3514,7.3091,7.2514,7.1699,7.1661,7.1245,7.0398,7.0398,6.9937,6.909,6.909,6.8814,10.36,10.8486,11.3211,10.8488,10.2992,9.6059,8.5659,7.9873,7.4922,6.8789,6.8915,6.9256,6.6376,7.1661,7.6748,7.7614,8.2576,9.0428,10.2304,10.289,10.5117,11.3008,11.3086,11.2695,11.3398,11.3203,11.3203,11.3711,11.3593,11.3398,11.3203,11.1484,10.9492,10.7109,10.6015,10.4687,10.289,10.2187,10.1914,10.1914,10.1914,10.1914,10.1914,10.1719,10.1094,10.0312,9.9375,9.8515,9.7695,9.7695,9.7695,9.7695,9.7695,9.7695,9.7617,9.6992,9.6211,9.539,9.4687,9.3906,9.3281,9.3945,9.3008,9.1484,9.0976,9.0586,9.0312,9.0508,9.0429,9.0273,9.0273,8.9725,8.9086,8.862,8.7612,8.6724,8.6767,8.6036,8.5112,8.4126,8.3202,8.2317,8.1554,8.1452,8.1504,8.1699,8.1873,8.2051,8.217,8.2173,8.1846,8.0996,8.0015,7.9291,7.8897,7.8084,7.7526,7.7292,7.6015,7.5091,7.47,7.4084,7.3661,7.3507,7.3507,7.3168,7.2476,7.229,7.1629,7.0514,7.0321,6.9975,11.0004,11.2602,11.2489,10.7281,10.0412,9.21,8.2041,7.5762,7.0786,6.6538,6.7091,6.7991,6.6871,6.8642,7.225,7.8473,8.1326,8.7498,10.1094,10.3594,10.6015,11.1484,11.3398,11.4297,11.4414,11.5703,11.6289,11.5586,11.4804,11.3984,11.3203,11.1484,10.9804,10.789,10.6289,10.4687,10.289,10.2812,10.2812,10.2812,10.2812,10.2812,10.2812,10.1992,10.1094,10.0312,9.9375,9.8515,0.0,9.7695,9.7695,9.7695,9.7695,9.7695,9.7695,9.7617,9.707,9.6367,9.6289,9.5703,9.4961,9.5039,9.3906,9.2617,9.332,9.2422,9.1367,9.2148,9.1797,9.1172,9.1172,9.0998,9.0493,8.926,8.7704,8.6711,8.7448,8.6759,8.583,8.5178,8.4199,8.3256,8.2587,8.2033,8.166,8.168,8.1873,8.1958,8.1795,8.1778,8.1732,8.1636,8.0976,8.0168,7.9143,7.8814,7.8284,7.7352,7.7138,7.6361,7.4776,7.4623,7.4238,7.3507,7.3507,7.3469,7.3392,7.2591,7.2514,7.3122,7.2322,7.236,9.971,10.6804,11.3,10.7184,9.9125,9.0382,8.1796,7.4262,6.82,6.5239,6.6061,6.7035,6.6194,6.8316,7.1069,7.3824,7.531,7.9452,8.914,9.1718,9.6054,10.539,10.8398,11.1211,11.4883,11.5781,11.5898,11.5117,11.4687,11.4101,11.3203,11.1484,10.9804,10.8086,10.6406,10.4687,10.289,10.289,10.289,10.289,10.289,10.289,10.289,10.1992,10.1094,10.0312,9.9375,9.8515,0.0,9.7695,9.7695,9.7695,9.7695,9.7695,9.7695,9.7695,9.7187,9.6484,9.6484,9.5937,9.5273,9.582,9.5508,9.4922,9.4726,9.4219,9.3594,9.3437,9.3,9.2507,9.196,9.12,9.0431,8.9919,8.8888,8.7958,8.7752,8.7504,8.6881,8.5491,8.4443,8.3473,8.2579,8.1925,8.1504,8.1504,8.1672,8.1809,8.1695,8.1684,8.1684,8.1684,8.1368,8.0949,8.05,7.9822,7.9208,7.883,7.8323,7.7715,7.7015,7.6976,7.6592,7.5784,7.5784,7.5515,7.5014,7.413,7.3899,7.4199,7.3353,7.3168,9.3226,10.1394,10.9105,10.5891,9.7516,8.8236,8.1394,7.2897,6.593,6.4101,6.4952,6.5923,6.5554,6.7717,6.981,0.0,7.1638,7.4804,8.1717,8.4607,8.9647,9.9453,10.289,10.6796,11.2812,11.5,11.5781,11.4883,11.4609,11.4101,11.3203,11.1797,11.0195,10.8398,10.6992,10.5311,10.3195,10.3202,10.3085,10.2803,10.2889,10.289,10.289,10.2304,10.1406,10.0312,9.9648,9.875,0.0,9.7695,9.7695,9.7695,9.7695,9.7695,9.7695,9.7695,9.7344,9.6836,9.6836,9.6445,9.6054,9.664,9.6795,9.6632,9.6046,9.574,9.539,9.4531,9.3925,9.3335,9.2578,9.1345,9.034,9.0534,8.9583,8.8539,8.8178,8.7858,8.7132,8.5521,8.4663,8.3893,8.2953,8.2213,8.1755,8.1755,8.1664,8.1596,8.1519,8.1509,8.1509,8.1509,8.1401,8.1343,8.1401,8.0667,8.0092,7.9815,7.9208,7.8754,7.8523,7.8484,7.8215,7.7676,7.7638,7.7253,7.6361,7.5515,7.5207,7.5438,7.4353,7.4007,9.5201,9.8616,9.8848,10.2915,9.5084,8.5046,8.0067,7.1145,6.3729,6.2958,6.356,6.4497,6.5338,6.6216,6.7693,7.0269,7.2146,7.5703,8.2616,8.6521,9.0311,9.4765,9.7538,10.1483,10.75,11.3515,11.6718,11.5781,11.5,11.4101,11.3203,11.2383,11.1093,10.9297,10.8398,10.6591,10.3812,10.4091,10.3582,10.2483,10.2803,10.289,10.289,10.289,10.1914,10.0312,10.0312,9.9297,0.0,9.7695,9.7695,9.7695,9.7695,9.7695,9.7695,9.7695,9.7695,9.7695,9.7695,9.7695,9.7695,9.7695,9.756,9.7373,9.7373,9.6967,9.6289,9.5429,9.4355,9.3407,9.293,9.156,9.0467,9.1052,8.9416,8.7945,8.8791,8.7674,8.6254,8.5357,8.5031,8.4682,8.3998,8.3176,8.2601,8.2601,8.1916,8.1336,8.1116,8.1108,8.1108,8.1108,8.11,8.1181,8.1383,8.1207,8.0708,7.9854,7.9777,7.94,7.8523,7.8484,7.8484,7.8484,7.8484,7.8099,7.7292,7.6399,7.6438,7.7215,7.5515,7.5168,8.0566,8.5841,8.9717,8.8714,8.3027,7.6545,7.2175,6.6919,6.2613,6.1298,6.2198,6.3496,6.4363,6.5769,6.7646,7.0256,7.2178,7.406,7.6248,8.3046,8.9648,9.4608,10.5312,11.289,11.4883,11.6797,11.7304,11.5781,11.6015,11.5586,11.4218,11.4414,11.3203,11.0312,10.8613,10.6697,10.4707,10.3986,10.318,10.2187,10.2291,10.2397,10.2283,10.1289,10.05,9.9956,9.8941,9.8203,9.7695,9.7695,9.7695,9.7695,9.7695,9.7695,9.7695,9.7695,9.7695,9.7695,9.7695,9.7695,9.7695,9.7552,9.7439,9.7354,9.7164,9.7008,9.6639,9.5599,9.4635,9.3696,9.2836,9.2192,9.1696,9.1283,9.0311,8.9385,8.9069,8.87,8.8127,8.7104,8.6855,8.65,8.5575,8.4704,8.3972,8.3362,8.3054,8.2893,8.2809,8.2285,8.19,8.19,8.1439,8.1147,8.1196,8.1131,8.0977,8.0708,8.0708,8.0554,8.0285,8.0285,8.0015,7.94,7.94,7.8977,7.8138,7.783,7.7869,7.8099,7.7561,7.7445,7.1325,7.5957,7.9835,8.0238,7.6063,7.1103,6.8234,6.4282,6.1006,6.0339,6.1584,6.3081,6.395,6.5578,6.7538,6.982,7.1674,7.3047,7.3711,7.996,8.6794,9.3003,10.6288,11.4883,11.4882,11.6406,11.6992,11.6211,11.6093,11.5586,11.4609,11.5,11.4218,11.1718,10.9918,10.7883,10.5484,10.4408,10.3182,10.1911,10.1715,10.1609,10.1613,10.0313,9.9656,9.94,9.8486,9.7925,0.0,9.7695,9.7695,9.7695,9.7695,9.7695,9.7695,9.7695,9.7695,9.7695,9.7695,9.7654,9.756,9.7433,9.7259,9.7057,9.6819,9.6844,9.6843,9.6075,9.5,9.3903,9.314,9.2479,9.1864,9.1325,9.0728,9.012,8.9472,8.926,8.8967,8.8207,8.8091,8.7864,8.7182,8.6132,8.5286,8.5055,8.4217,8.3717,8.4055,8.3324,8.2785,8.2785,8.2054,8.1554,8.1554,8.1285,8.1093,8.1093,8.1093,8.1093,8.1093,8.1093,8.0823,8.0285,8.0277,7.9862,7.8977,7.8977,7.883,7.8523,7.8823,7.883,0.0,6.8265,6.9298,7.5472,7.2457,6.7794,6.698,6.2676,0.0,5.9843,6.1406,6.2899,6.3823,6.5398,6.7162,6.9155,7.0898,7.2614,7.4412,7.8318,8.3778,9.1319,10.2694,10.9882,10.9686,11.3398,11.6211,11.6914,11.5586,11.4687,11.4687,11.4687,11.4297,11.3398,11.2185,10.9794,10.6114,10.5114,10.3579,10.1702,10.0994,10.082,10.0703,9.9872,9.9179,0.0,9.8614,9.824,9.7654,9.7655,9.7695,9.7695,9.7695,9.7695,9.7695,9.7695,9.7695,9.7695,9.7695,9.7557,9.7407,9.7348,9.7007,9.6558,9.6346,9.6588,9.6903,9.6643,9.5469,9.4153,9.3787,9.2556,9.1364,9.1248,9.0736,9.0197,8.994,8.9516,8.9082,8.8832,8.891,8.8949,8.8795,8.744,8.6632,8.7363,8.5486,8.4255,8.5055,8.4401,8.387,8.3793,8.3016,8.2439,8.2401,8.1593,8.1093,8.1093,8.1093,8.1093,8.1093,8.1093,8.1093,8.1093,8.1093,8.0708,7.9892,7.9892,7.9477,7.8715,7.9515,7.9477,5.562,0.0,5.9267,6.0208,6.0287,5.9937,0.0,5.8867,5.8723,5.8289,5.9604,6.1277,6.283,6.4008,6.5937,6.9699,7.1233,7.2773,7.5195,8.5895,9.5386,10.0586,11.0117,11.539,11.3515,11.6015,11.75,11.6992,11.7304,11.7109,11.6406,11.6406,11.6015,11.5195,11.2809,10.9989,10.7014,10.5085,10.3197,10.1382,10.0582,10.0295,10.0187,9.8912,9.8227,9.8052,9.7815,9.7486,9.7178,9.7373,9.7487,9.7487,9.7487,9.7559,9.7695,9.7695,9.7695,9.7695,9.7508,9.7431,9.7335,9.6939,9.6616,9.6355,9.6325,9.6364,9.644,9.6408,9.6112,9.5469,9.4054,9.3403,9.2787,9.1518,9.0586,8.9982,8.9919,9.0325,9.0483,8.9765,9.071,9.1171,8.9863,8.9278,8.8863,8.8449,8.7872,8.7564,8.7795,8.7055,8.6247,8.5593,8.4786,8.4016,8.337,8.1939,8.1093,8.1093,8.1093,8.1093,8.1093,8.1093,8.1093,8.1093,8.1093,8.1016,8.0785,8.0785,8.0708,8.0477,8.0708,8.0669,5.1373,5.3443,5.5457,5.5416,5.6172,5.6879,5.682,5.7239,5.7764,5.8097,5.9238,6.0843,6.3001,6.4435,6.6451,7.003,7.198,7.4687,7.9335,8.9843,9.8867,10.3594,11.1211,11.6015,11.6211,11.6797,11.7109,11.6992,11.6718,11.6406,11.5898,11.5898,11.5508,11.4609,11.2185,10.9716,10.7291,10.5201,10.2988,10.0712,9.9904,9.9288,9.8875,9.7701,9.7225,9.7299,9.7113,9.703,9.7021,9.7145,9.7227,9.7227,9.7227,9.728,9.739,9.7509,9.7559,9.7555,9.7431,9.7243,9.6984,9.6595,9.6378,9.6288,9.6288,9.6288,9.6288,9.6288,9.6019,9.5403,9.4057,9.3441,9.2826,9.1518,9.0825,9.0509,9.0509,9.1171,9.1556,9.0663,9.1595,9.2056,9.074,9.0163,8.9893,8.9863,8.918,8.8833,8.921,8.8517,8.7833,8.7325,8.6555,8.5709,8.4824,8.3593,8.267,8.2285,8.1862,8.1631,8.1631,8.1285,8.1093,8.1093,8.1093,8.1093,8.1093,8.1093,8.1093,8.1093,8.1093,8.1093,5.0819,5.2983,5.5054,5.5734,5.6056,5.6442,5.7296,5.6984,5.6958,5.8514,5.9675,6.1184,6.3803,6.5934,6.8223,7.1114,7.4334,7.8827,8.5507,9.3008,9.9413,10.3905,11.0117,11.5,11.75,11.6797,11.6406,11.6992,11.5703,11.4804,11.4687,11.4609,11.4218,11.3398,11.1414,10.9282,10.7381,10.5315,10.29,10.0106,9.9221,9.8327,9.748,9.6673,9.6395,9.6542,0.0,0.0,9.6893,9.6934,9.6954,9.6954,9.6954,9.6979,9.7035,9.7253,9.7341,9.7335,9.7274,9.6969,9.6521,9.6338,9.6288,9.6288,9.6288,9.6288,9.6288,9.6288,9.5788,9.4989,9.4134,9.3287,9.2479,9.1595,9.1287,9.121,9.121,9.1979,9.2441,9.1556,9.221,9.2595,9.1748,9.097,9.0701,9.1325,9.0171,8.9479,9.0009,8.9633,8.918,8.891,8.8325,8.7594,8.6594,8.5863,8.517,8.4447,8.3054,8.2285,8.2285,8.1516,8.117,8.1285,8.117,8.1093,8.1093,8.1093,8.1093,8.1093,8.1093,8.1093,5.226,5.4344,5.5694,5.5182,5.563,5.644,5.7366,5.7474,5.7684,5.8671,6.0179,6.2102,6.4712,6.7848,7.1356,7.545,8.1325,8.7304,9.2768,9.9609,10.4296,10.5116,11.25,11.6914,11.5195,11.6797,11.7695,11.6992,11.6797,11.6289,11.5586,11.4883,11.4414,11.4297,11.1913,10.9588,10.761,10.5387,10.29,10.0106,9.9221,9.8327,9.748,9.6673,9.6325,9.6346,0.0,9.6514,9.642,9.6585,9.6669,9.6669,9.6669,9.6804,9.7017,9.7053,9.7065,9.7039,9.681,9.6551,9.6349,9.6306,9.6288,9.6288,9.6288,9.6288,9.6288,9.6288,9.6211,9.5903,9.5027,9.4181,9.3326,9.2479,9.1748,9.121,9.121,9.2402,9.3249,9.2441,9.3557,9.4335,9.348,9.321,9.2941,9.2364,9.2095,9.1672,9.1095,9.1556,9.1364,8.9855,9.0248,8.9979,8.8449,8.8179,8.8064,8.7948,8.4362,8.2285,8.2285,8.1516,8.14,8.2093,8.1439,8.1093,8.1093,8.1093,8.1093,8.1093,8.1093,8.1093,5.133,5.3623,5.595,5.8476,5.8725,5.8437,5.891,5.9036,5.9411,6.0755,6.243,6.4581,6.7654,7.1841,7.7293,8.4953,9.1172,9.6249,9.9569,10.3515,10.6992,10.9296,11.3086,11.5781,11.6484,11.7187,11.7187,11.6406,11.5898,11.5312,11.4414,11.3984,11.3789,11.3789,11.1718,10.96,10.7603,10.5687,10.2987,9.9603,9.8572,9.7673,9.6826,9.648,9.6288,9.6297,0.0,9.6369,9.6306,9.6403,9.6456,9.6456,9.6456,9.6499,9.6645,9.6759,9.6786,9.6763,9.6649,9.6482,9.6288,9.6288,9.6288,9.6288,9.6288,9.6288,9.6288,9.6288,9.6288,9.598,9.4643,9.4335,9.395,9.221,9.2172,9.2441,9.2018,9.321,9.4143,9.3287,9.4143,9.472,9.3835,9.371,9.3441,9.2633,9.2864,9.2864,9.2018,9.2249,9.2172,9.1402,9.1672,9.121,8.9479,8.9787,8.9248,8.7401,8.544,8.3939,8.3054,8.2208,8.19,8.2285,8.1516,8.1093,8.1093,8.1093,8.1093,8.1093,8.1093,8.1323,5.1048,5.3563,5.6501,6.1003,6.0814,6.0175,6.2666,6.2512,6.2648,6.5521,6.7234,6.9096,7.1912,7.7361,8.4368,9.332,9.9452,10.3903,10.6289,10.789,11.0195,11.3984,11.4414,11.539,11.8008,11.7695,11.6914,11.5781,11.5117,11.4297,11.3281,11.3203,11.3203,11.3203,11.1484,10.9681,10.7719,10.5819,10.2983,9.95,9.8403,9.7437,9.6557,9.6403,9.6288,9.6288,9.6288,9.6288,9.6288,9.6288,9.6288,9.6288,9.6288,9.6288,9.6334,9.6452,9.6529,9.6529,9.6529,9.6432,9.6288,9.6288,9.6288,9.6288,9.6288,9.6288,9.6288,9.6288,9.6288,9.598,9.4672,9.4643,9.4527,9.2556,9.2903,9.3518,9.2903,9.395,9.4797,9.4143,9.472,9.5104,9.4403,9.4326,9.4018,9.321,9.3595,9.3633,9.2633,9.2826,9.2864,9.2249,9.271,9.2402,9.0663,9.1133,9.021,8.7162,8.6632,8.5632,8.3986,8.3054,8.2593,8.2593,8.1593,8.1093,8.1093,8.1285,8.1362,8.14,8.1593,8.2016,5.3331,5.5889,5.7793,5.988,5.9072,6.0304,7.003,6.9183,6.8164,7.4637,7.6131,7.6575,7.7644,8.4724,9.1914,9.6673,10.3084,10.8984,11.3203,11.4609,11.5781,11.7695,11.789,11.8008,11.8281,11.8203,11.75,11.5781,11.5703,11.5,11.3281,11.3203,11.3203,11.3203,11.1484,10.9804,10.8007,10.5311,10.2714,10.0391,9.951,9.8484,9.7403,9.6634,9.6288,9.6288,9.6288,9.6288,9.6288,9.6288,9.6288,9.6288,9.6288,9.6288,9.6288,9.6325,9.6334,9.6334,9.6334,9.6315,9.6288,9.6288,9.6288,9.6288,9.6288,9.6288,9.6288,9.6288,9.6288,9.6288,9.6134,9.5557,9.4951,9.4758,9.422,9.3672,9.3633,9.4335,9.4989,9.4912,9.5595,9.6211,9.6134,9.6095,9.5826,9.4951,9.4874,9.4335,9.271,9.3873,9.3912,9.1556,9.3403,9.4143,9.2441,9.2364,9.1595,8.9739,8.8171,8.6555,8.4901,8.3978,8.3524,8.3524,8.19,8.1093,8.1093,8.1862,8.2208,8.2247,8.3024,8.3447,5.2198,5.6343,6.0428,6.3313,6.4013,6.5263,7.041,7.2048,7.3937,7.9208,8.2024,8.4333,8.6795,9.2539,9.8125,10.1913,10.8281,11.3398,11.5,11.6484,11.7383,11.75,11.8008,11.8281,11.8281,11.7812,11.6992,11.5781,11.5312,11.441,11.3008,11.2889,11.2587,11.1913,11.0902,10.9295,10.6991,10.5606,10.3688,10.1484,9.9384,9.7828,9.6749,9.6442,9.6288,9.6288,9.6288,9.6288,9.6288,9.6288,9.6288,9.6288,9.6288,9.6288,9.6288,9.6288,9.6288,9.6288,9.6288,9.6288,9.6288,9.6288,9.6288,9.6288,9.6288,9.6288,9.6288,9.6288,9.6288,9.6057,9.4941,9.5249,9.5403,9.3826,9.4403,9.5172,9.4643,9.5172,9.5826,9.5826,9.6057,9.6288,9.6288,9.6288,9.6019,9.5143,9.5441,9.5365,9.422,9.4604,9.4412,9.2903,9.2672,9.2787,9.321,9.2287,9.1171,8.997,8.9316,8.8209,8.6517,8.5632,8.4901,8.4439,8.3247,8.2639,8.2678,8.2947,8.3101,8.3139,8.3447,8.3901,5.2211,5.6575,6.1285,6.5083,6.755,7.0206,7.4519,7.5495,7.7576,8.4882,8.8281,9.0625,9.2968,9.6718,10.0586,10.4101,11.0703,11.539,11.5703,11.6992,11.7617,11.6718,11.7109,11.75,11.75,11.7187,11.6484,11.539,11.4996,11.419,11.2788,11.2388,11.1709,11.0692,10.9791,10.8103,10.5806,10.5201,10.3716,10.1293,9.9254,9.7867,9.7057,9.6557,9.6288,9.6288,9.6288,9.6288,9.6288,9.6288,9.6288,9.6288,9.6288,9.6288,9.6288,9.6288,9.6288,9.6288,9.6288,9.6288,9.6288,9.6288,9.6288,9.6288,9.6288,9.6288,9.6288,9.6288,9.6288,9.598,9.448,9.5211,9.5865,9.4095,9.5018,9.6134,9.5518,9.5865,9.6288,9.6288,9.6288,9.6288,9.6288,9.6288,9.6095,9.548,9.5903,9.598,9.5104,9.4989,9.4758,9.4181,9.3095,9.2749,9.3633,9.2633,9.1518,9.0393,9.0316,8.9556,8.7863,8.7248,8.6517,8.5709,8.4593,8.4132,8.4401,8.4401,8.4401,8.4401,8.4678,8.4978,5.4009,5.6734,5.9905,6.4262,6.8637,7.4396,8.3963,8.0227,7.8592,9.2343,9.5234,9.5273,9.5149,9.656,9.8905,10.2297,10.9412,11.4804,11.5703,11.6484,11.6718,11.5781,11.5703,11.5703,11.5781,11.6484,11.6289,11.4609,11.4998,11.4503,11.2819,11.1711,11.0715,10.9786,10.8113,10.6405,10.4698,10.3798,10.2119,9.9619,9.9326,9.9057,9.8721,9.7057,9.6288,9.6288,9.6288,9.6288,9.6288,9.6288,9.6288,9.6288,9.6288,9.6288,9.6288,9.6288,9.6288,9.6288,9.6288,9.6288,9.6288,9.6288,9.6288,9.6288,9.6288,9.6288,9.6288,9.6288,9.6288,9.6095,9.5258,9.5634,9.6288,9.6288,9.6288,9.6288,9.6288,9.6288,9.6288,9.6288,9.6288,9.6288,9.6288,9.6288,9.6288,9.6288,9.6288,9.598,9.5104,9.5027,9.4989,9.5027,9.4989,9.4643,9.3749,9.3672,9.2979,9.1325,9.121,9.0441,8.8795,8.8718,8.8295,8.744,8.5786,8.5316,8.6132,8.6132,8.6132,8.617,8.7017,8.694,5.373,5.8012,6.3301,6.7779,7.351,7.9916,8.7063,8.6083,8.5508,9.2031,9.8203,10.1015,9.6054,10.0,10.4218,10.4609,10.9687,11.3711,11.3906,11.5195,11.5781,11.5,11.539,11.5703,11.5703,11.539,11.4918,11.421,11.3201,11.2216,11.1293,10.9811,10.8508,10.7418,10.6509,10.4906,10.2611,10.2494,10.1501,9.958,9.8884,9.8097,9.7218,9.6595,9.6288,9.6288,9.6288,9.6288,9.6288,9.6288,9.6288,9.6288,9.6288,9.6288,9.6288,9.6288,9.6288,9.6288,9.6288,9.6288,9.6288,9.6288,9.6288,9.6288,9.6288,9.6288,9.6288,9.6288,9.6288,9.6249,9.598,9.6095,9.6134,9.5518,9.5865,9.6288,9.6288,9.6288,9.6288,9.6288,9.6288,9.6288,9.6288,9.6288,9.6288,9.6288,9.6288,9.6211,9.5942,9.5374,9.522,9.5865,9.4826,9.3989,9.371,9.3172,9.2364,9.1287,9.121,9.071,8.9594,8.9556,8.9171,8.8333,8.7833,8.7671,8.794,8.794,8.794,8.7948,8.8179,8.7863,5.6634,6.1204,6.686,7.3023,7.9219,8.5678,9.2866,9.4839,9.5703,9.7773,10.289,10.5781,10.1992,10.3984,10.6406,10.6914,11.0508,11.3203,11.3203,11.4414,11.4883,11.4101,11.4414,11.4687,11.4687,11.4609,11.4093,11.3111,11.2303,11.1209,10.9686,10.8208,10.658,10.4905,10.4209,10.2816,10.0686,10.0916,10.0387,9.9203,9.8575,9.7806,9.6924,9.6682,9.6537,9.6398,9.6331,9.6288,9.6288,9.6288,9.6288,9.6288,9.6288,9.6288,9.6288,9.6288,9.6288,9.6288,9.6288,9.6288,9.6288,9.6288,9.6288,9.6288,9.6288,9.6288,9.6288,9.6288,9.6288,9.6288,9.6288,9.6288,9.6172,9.5634,9.5903,9.6288,9.6288,9.6288,9.6288,9.6288,9.6288,9.6288,9.6288,9.6288,9.6288,9.6288,9.6288,9.6172,9.5826,9.5634,9.5595,9.5749,9.5134,9.4595,9.4258,9.3441,9.2633,9.1787,9.1402,9.1133,9.0941,9.0932,9.071,9.0218,8.9863,8.9863,9.0218,8.9517,8.9171,8.9171,8.9171,8.8709,6.1454,6.5467,7.0426,7.947,8.611,9.2517,10.0702,10.5117,10.7304,10.6289,10.8086,10.9883,11.0117,10.789,10.6797,10.9101,11.1406,11.3008,11.3086,11.3789,11.3984,11.3085,11.3085,11.3084,11.2888,11.3707,11.3495,11.1512,11.1684,11.0788,10.8114,10.6708,10.4905,10.2597,10.1597,10.0517,9.9084,9.912,9.8908,9.849,9.8221,9.7808,9.7288,9.706,9.6821,9.6556,9.6399,9.6288,9.6288,9.6288,9.6288,9.6288,9.6288,9.6288,9.6288,9.6288,9.6288,9.6288,9.6288,9.6288,9.6288,9.6288,9.6288,9.6288,9.6288,9.6288,9.6288,9.6288,9.6288,9.6288,9.6288,9.6288,9.6288,9.6288,9.6288,9.6288,9.6288,9.6288,9.6288,9.6288,9.6288,9.6288,9.6288,9.6288,9.6288,9.6288,9.6288,9.6019,9.522,9.5826,9.6019,9.522,9.5826,9.5942,9.5066,9.4258,9.348,9.2672,9.1864,9.1787,9.2595,9.2556,9.2518,9.2595,9.1825,9.1787,9.2479,9.0893,9.0086,9.0009,9.0009,8.9594,6.2552,6.7282,7.3726,8.5191,9.6483,10.5702,10.8906,11.1797,11.1484,10.3281,10.8398,11.2695,10.7617,10.8711,11.0508,11.0312,11.0781,11.1406,11.2109,11.2304,11.2301,11.1901,11.2396,11.2203,11.0708,11.1892,11.1987,11.0013,10.929,10.8291,10.6796,10.4003,10.2087,10.1587,10.0295,9.9196,9.8201,9.8396,9.8203,9.7641,9.6909,9.6521,9.6392,9.6574,9.658,9.6355,9.6334,9.6288,9.6288,9.6288,9.6288,9.6288,9.6288,9.6288,9.6288,9.6288,9.6288,9.6288,9.6288,9.6288,9.6288,9.6288,9.6288,9.6288,9.6288,9.6288,9.6288,9.6288,9.6288,9.6288,9.6288,9.6288,9.6288,9.6288,9.6288,9.6288,9.6288,9.6288,9.6288,9.6288,9.6288,9.6288,9.6288,9.6288,9.6288,9.6288,9.6288,9.6249,9.6057,9.6172,9.6249,9.6057,9.6172,9.5942,9.5066,9.4835,9.4335,9.348,9.3249,9.3249,9.3441,9.2826,9.2787,9.3441,9.3249,9.2941,9.2479,9.2133,9.1595,9.0932,9.0932,9.047,6.5948,7.1307,7.8485,9.3124,10.3398,11.0508,11.2695,11.4492,11.4218,10.8789,11.1992,11.4414,11.0,11.0703,11.1601,11.0703,11.0586,11.0702,11.0996,11.111,11.1003,11.0702,11.1105,11.0905,10.9884,11.0603,11.052,10.8911,10.7997,10.6606,10.4704,10.251,10.0702,9.9519,9.8879,9.8206,9.7485,9.7723,9.7487,9.6789,9.6444,9.5949,9.5307,9.5783,9.6171,9.6456,9.6349,9.6288,9.6288,9.6288,9.6057,9.5711,9.6134,9.6057,9.5711,9.6134,9.6288,9.6288,9.6288,9.6288,9.6288,9.6288,9.6288,9.6288,9.6288,9.6288,9.6288,9.6288,9.6288,9.6288,9.6288,9.6288,9.6288,9.6288,9.6288,9.6288,9.6288,9.6288,9.6288,9.6288,9.6288,9.6288,9.6288,9.6288,9.6288,9.6288,9.6288,9.6288,9.6288,9.6288,9.6288,9.6288,9.6288,9.6134,9.5672,9.5258,9.4797,9.4335,9.3941,9.3903,9.4296,9.3912,9.3912,9.4296,9.4335,9.4104,9.3719,9.2903,9.2287,9.1825,9.1402,9.0979,6.8303,7.5707,8.4601,10.0312,10.7304,11.1015,11.3281,11.4492,11.5,11.4883,11.5117,11.4804,11.3515,11.2187,11.1211,11.0508,11.0194,10.9986,10.9798,10.9801,10.9798,10.9288,10.9488,10.9583,10.9213,10.9285,10.8899,10.7718,10.6812,10.5216,10.2501,10.1394,9.9827,9.7557,9.7681,9.7428,9.6774,9.709,9.6767,9.5894,9.586,9.5244,9.4135,9.4647,9.5412,9.6319,9.6304,9.6211,9.6095,9.6095,9.5634,9.5066,9.5788,9.5711,9.5297,9.6019,9.6288,9.6288,9.6288,9.6288,9.6288,9.6288,9.6288,9.6288,9.6288,9.6288,9.6288,9.6288,9.6288,9.6288,9.6288,9.6288,9.6288,9.6288,9.6288,9.6288,9.6288,9.6288,9.6288,9.6288,9.6288,9.6288,9.6288,9.6288,9.6288,9.6288,9.6288,9.6288,9.6288,9.6288,9.6288,9.6288,9.6288,9.6288,9.6288,9.5634,9.522,9.522,9.4557,9.448,9.5181,9.522,9.522,9.522,9.522,9.5143,9.4989,9.3595,9.2864,9.2672,9.1979,9.1633,6.445,7.8215,9.2889,10.1914,10.6914,10.9804,11.0898,11.1797,11.2187,11.1406,11.25,11.3515,11.3203,11.1289,10.9609,10.9492,10.8608,10.8005,10.7993,10.8408,10.8299,10.7316,10.8506,10.8779,10.7008,10.7509,10.7288,10.5601,10.4716,10.3483,10.1597,9.9981,9.8634,9.7519,9.7238,9.6741,9.5874,9.6353,9.6078,9.4953,9.3842,9.319,9.2994,9.2928,9.3731,9.5233,9.5969,9.5865,9.5181,9.5181,9.5104,9.5027,9.5143,9.5557,9.6134,9.6249,9.6288,9.6288,9.6288,9.6288,9.6288,9.6288,9.6288,9.6288,9.6288,9.6288,9.6288,9.6288,9.6288,9.6288,9.6288,9.6288,9.6288,9.6288,9.6288,9.6288,9.6288,9.6288,9.6288,9.6288,9.6288,9.6288,9.6288,9.6288,9.6288,9.6288,9.6288,9.6288,9.6288,9.6288,9.6288,9.6288,9.6288,9.6288,9.6288,9.6211,9.6134,9.6134,9.6019,9.6019,9.6134,9.6134,9.6134,9.6134,9.6134,9.5749,9.4989,9.4797,9.4296,9.3518,9.3403,9.3364,6.8143,8.0608,9.2656,9.8984,10.3906,10.75,10.8789,10.9414,10.9609,10.9218,10.9804,11.039,11.0898,11.0117,10.9101,10.8711,10.7586,10.6893,10.6893,10.6584,10.6188,10.5584,10.622,10.6388,10.5478,10.5609,10.5387,10.4701,10.3299,10.1904,10.0712,9.8981,9.7673,9.6865,9.636,9.5961,9.5714,9.5605,9.5035,9.4051,9.3088,9.2433,9.2114,9.2839,9.3557,9.4296,9.4672,9.4634,9.4258,9.4258,9.4027,9.3681,9.4643,9.4951,9.4941,9.5942,9.6288,9.6288,9.6288,9.6288,9.6288,9.6288,9.6288,9.6288,9.6288,9.6288,9.6288,9.6288,9.6288,9.6288,9.6288,9.6288,9.6403,9.6865,9.698,9.7096,9.7596,9.7326,9.698,9.698,9.6596,9.6288,9.6288,9.6288,9.6288,9.6288,9.6673,9.698,9.698,9.7403,9.7711,9.7711,9.725,9.698,9.698,9.6557,9.6288,9.6288,9.6288,9.6288,9.6288,9.6288,9.6288,9.6288,9.6288,9.6095,9.5711,9.5258,9.4797,9.4412,9.395,9.371,7.0244,7.9167,8.7343,9.4062,9.9179,10.3281,10.6289,10.6992,10.7109,10.7183,10.7298,10.7413,10.7987,10.8394,10.8398,10.7812,10.6805,10.5995,10.5719,10.5099,10.459,10.4308,10.4308,10.438,10.4619,10.3994,10.3608,10.3598,10.198,10.0613,9.949,9.8211,9.7134,9.6326,9.5726,9.5401,9.5364,9.4331,9.3392,9.2527,9.2169,9.1765,9.1318,9.264,9.3238,9.3269,9.3585,9.3595,9.3403,9.3403,9.3018,9.2633,9.3873,9.4104,9.3864,9.5172,9.5788,9.598,9.598,9.6095,9.6288,9.6288,9.6288,9.6288,9.6288,9.6288,9.6288,9.6288,9.6288,9.6288,9.6288,9.6288,9.6519,9.7326,9.7519,9.775,9.8596,9.8134,9.7519,9.7519,9.6865,9.6365,9.6557,9.6596,9.6596,9.6596,9.7288,9.775,9.7519,9.825,9.8788,9.8788,9.8211,9.775,9.7519,9.6942,9.6519,9.6326,9.6288,9.6288,9.6288,9.6288,9.6288,9.6288,9.6288,9.6288,9.6288,9.5634,9.5335,9.5297,9.4672,9.4364,6.6522,7.1233,7.6792,8.7695,9.2461,9.625,10.289,10.4414,10.4606,10.5092,10.5305,10.5188,10.5014,10.5986,10.6797,10.6797,10.5904,10.4897,10.4002,10.4311,10.4308,10.3612,10.3486,10.3792,10.4502,10.3203,10.2111,10.18,10.0981,9.9684,9.7739,9.7557,9.7134,9.6326,9.5726,9.5084,9.446,9.2297,9.0771,8.991,9.0431,9.0672,9.0682,9.1572,9.1995,9.2045,9.3192,9.3249,9.2556,9.2556,9.2556,9.2518,9.2595,9.3056,9.371,9.3787,9.4373,9.5066,9.5066,9.5595,9.6288,9.6288,9.6288,9.6288,9.6288,9.6288,9.6288,9.6288,9.6288,9.6288,9.6288,9.6288,9.6519,9.7326,9.7519,9.775,9.8596,9.8134,9.7519,9.7519,9.6865,9.6557,9.7326,9.7442,9.7442,9.7442,9.8173,9.8442,9.7596,9.825,9.8788,9.8788,9.875,9.8404,9.7557,9.7442,9.7096,9.6365,9.6288,9.6288,9.6288,9.6288,9.6288,9.6288,9.6288,9.6288,9.6288,9.6249,9.6249,9.6249,9.6211,9.6172,6.4998,6.9399,7.3981,8.0233,8.539,8.9883,9.3437,9.6707,9.9206,9.9987,10.1818,10.3201,10.329,10.4597,10.5703,10.5703,10.4891,10.4186,10.4084,10.3114,10.2389,10.2283,10.1781,10.1506,10.1818,10.1083,10.0604,10.0613,9.9643,9.8757,9.8053,9.7323,9.653,9.5764,9.4962,9.3814,9.2249,9.0862,9.0029,8.9715,8.9749,9.0077,9.0626,9.0937,9.1054,9.1123,9.21,9.2079,9.128,9.1128,9.1097,9.1191,9.213,9.2672,9.2979,9.3518,9.4258,9.4989,9.4989,9.5557,9.6288,9.6288,9.6288,9.6288,9.6288,9.6288,9.6288,9.6288,9.6288,9.6288,9.6288,9.6673,9.7403,9.8827,9.9558,9.9865,9.9673,9.8942,9.8173,9.7596,9.6865,9.6403,9.6673,9.7173,9.7519,9.7519,9.8711,9.9529,9.9221,9.9904,10.0404,10.0404,9.9942,9.9298,9.8404,9.7827,9.7173,9.6365,9.6788,9.7057,9.7057,9.7596,9.7634,9.7096,9.7634,9.7365,9.6288,9.6288,9.6288,9.6288,9.6288,9.6288,6.3706,6.6974,7.0581,7.5544,7.9764,8.3789,8.7773,9.1843,9.5117,9.6187,9.8972,10.1291,10.1396,10.2491,10.3587,10.4289,10.3902,10.3489,10.3281,10.2212,10.1303,10.121,10.039,9.9961,10.0312,9.9866,9.9552,9.9514,9.8832,9.8259,9.7868,9.6871,9.5672,9.427,9.3742,9.2243,8.9715,8.9477,8.9061,8.8515,8.8911,8.9412,8.9961,9.0273,9.039,9.039,9.0704,9.0755,9.0613,9.078,9.079,9.081,9.1763,9.2117,9.2172,9.2979,9.3826,9.4604,9.4912,9.5557,9.6288,9.6288,9.6288,9.6288,9.6288,9.6288,9.6288,9.6288,9.6288,9.6288,9.6288,9.7096,9.8288,9.976,10.0712,10.1096,10.0298,9.9413,9.8519,9.7673,9.7057,9.6788,9.7096,9.7827,9.8365,9.8365,9.9596,10.0404,10.0106,10.0789,10.1279,10.1279,10.0789,10.0212,9.9298,9.8711,9.8019,9.7173,9.7634,9.7942,9.7942,9.8481,9.8519,9.7942,9.8519,9.825,9.7134,9.6865,9.6557,9.6288,9.6288,9.6288,0.0,0.0,0.0,7.3706,7.5661,7.789,8.6287,9.0081,9.2273,9.3862,9.6925,9.9306,9.9189,9.9535,10.0485,10.2499,10.2812,10.25,10.1719,10.1484,10.1211,10.039,9.9492,9.9297,10.0117,9.9453,9.886,9.8674,9.8665,9.8138,9.7044,9.6087,9.4478,9.1979,9.2018,9.0454,8.7139,8.8076,8.7773,8.6211,8.7851,8.8633,8.8711,8.957,8.9961,8.9922,8.9101,8.9442,9.0643,9.1499,9.1664,9.1457,9.1476,9.136,9.1304,9.218,9.3018,9.3826,9.472,9.5557,9.6288,9.6288,9.6288,9.6288,9.6288,9.6288,9.6288,9.6288,9.6288,9.6326,9.6326,9.7557,9.8981,9.9875,10.0712,10.1019,10.0298,9.9413,9.8519,9.7673,9.748,9.775,9.8596,9.949,10.0106,10.0106,10.0789,10.1019,10.0221,10.0789,10.1279,10.1279,10.1279,10.1019,10.0183,10.0106,9.9721,9.8865,9.8827,9.8827,9.8827,9.8865,9.8865,9.8827,9.8865,9.8865,9.8788,9.7942,9.7096,9.6326,9.6326,9.6288,6.1742,0.0,0.0,0.0,0.0,0.0,7.5676,7.9786,8.4017,8.8062,9.1111,9.4013,9.7275,9.8012,9.8537,9.9842,10.0586,10.0898,10.0703,10.0117,9.9648,9.9375,9.8594,9.8164,9.8398,9.8203,9.8046,9.7962,9.7454,9.698,9.6652,9.4439,9.2858,9.215,8.9769,8.8148,8.7414,8.6444,8.6015,8.6211,8.6679,8.7539,8.8711,8.8945,8.9062,8.9062,8.9453,8.984,9.0164,9.0289,9.0258,9.0266,9.1145,9.1486,9.1513,9.2216,9.3018,9.3826,9.472,9.5557,9.6288,9.6288,9.6288,9.6288,9.6288,9.6288,9.6288,9.6288,9.6288,9.6442,9.7019,9.7519,9.825,9.976,9.9788,9.9596,9.999,9.9413,9.8519,9.7673,9.7019,9.6903,9.7711,9.8596,9.9375,9.999,10.0789,10.1202,10.1019,10.1212,10.1279,10.1279,10.1279,10.1019,10.0183,10.0106,9.9721,9.8865,9.9375,9.976,9.976,10.0289,10.0289,9.976,10.0289,10.0019,9.8788,9.7942,9.7403,9.7134,9.6557,9.6288,0.0,0.0,0.0,6.5731,0.0,0.0,7.1346,7.5185,7.9274,8.2964,8.6292,8.9366,9.2066,9.2949,9.3926,9.6015,9.6758,9.7695,9.9492,9.9336,9.875,9.8047,9.75,9.707,9.6679,9.664,9.664,9.664,9.6211,9.5625,9.4922,9.3269,9.1727,9.0279,8.8328,8.6822,8.5898,8.5234,8.4961,8.5117,8.5469,8.6367,8.7656,8.7656,8.7851,8.8242,8.875,8.8945,8.8984,8.9593,9.0122,9.07,9.1379,9.178,9.2018,9.273,9.3518,9.4373,9.5249,9.5865,9.6288,9.6288,9.6288,9.6288,9.6288,9.6288,9.6288,9.6288,9.6288,9.648,9.7288,9.7519,9.7865,9.9211,9.9173,9.9019,9.9913,9.9413,9.8634,9.8134,9.7942,9.8019,9.8481,9.9288,10.0019,10.0481,10.1019,10.1279,10.1279,10.1279,10.1279,10.1279,10.1587,10.1712,10.1212,10.1491,10.1299,10.0404,10.0904,10.0991,10.0596,10.1096,10.1096,10.0596,10.1096,10.0712,9.9336,9.8481,9.7673,9.698,9.6519,9.6288,0.0,0.0,0.0,0.0,6.6671,0.0,7.0583,7.3552,7.6221,7.8148,8.1609,8.4447,8.5034,8.6037,8.7812,9.0937,9.2031,9.3906,9.8125,9.8711,9.8125,9.6523,9.6367,9.6054,9.5273,9.5117,9.5078,9.5078,9.4883,9.4062,9.2383,9.2148,9.0625,8.7617,8.7226,8.5937,8.3633,8.4258,8.4258,8.3594,8.4375,8.5273,8.6211,8.6211,8.6679,8.75,8.75,8.7539,8.7734,8.9218,9.0566,9.168,9.1927,9.2249,9.2627,9.3498,9.4335,9.5104,9.6019,9.6288,9.6288,9.6288,9.6288,9.6288,9.6288,9.6288,9.6288,9.6288,9.6288,9.648,9.7173,9.7365,9.7596,9.8442,9.8596,9.8788,9.976,9.9336,9.8827,9.8942,9.949,9.999,10.0106,10.0712,10.1212,10.1279,10.1279,10.1279,10.1279,10.1279,10.1279,10.1394,10.2097,10.2597,10.2712,10.3482,10.3597,10.2789,10.2712,10.2404,10.151,10.1394,10.1394,10.1279,10.1279,10.0904,10.0106,9.9211,9.798,9.6442,9.6326,9.6288,0.0,0.0,0.0,0.0,0.0,0.0,6.6644,6.7777,6.9656,7.2585,7.3987,7.5967,8.0112,8.1638,8.2733,8.41,8.8397,9.2812,9.6484,9.6992,9.6601,9.5586,9.5469,9.539,9.5234,9.457,9.414,9.414,9.2851,9.1601,9.0547,8.9219,8.8203,8.7539,8.5469,8.4101,8.3594,8.3086,8.3086,8.3594,8.3789,8.4687,8.6211,8.6211,8.6679,8.75,8.75,8.7851,8.8476,8.8644,8.9257,9.0329,9.2207,9.2876,9.291,9.4236,9.4835,9.5104,9.6019,9.6288,9.6288,9.6288,9.6288,9.6288,9.6288,9.6288,9.6288,9.6288,9.6288,9.6326,9.648,9.6519,9.6749,9.7557,9.725,9.7211,9.8711,9.8904,9.9029,9.9721,9.9413,9.9298,9.999,10.0221,10.0606,10.1202,10.1279,10.1279,10.1279,10.1279,10.1597,10.2289,10.252,10.2904,10.3597,10.3789,10.3789,10.3712,10.3597,10.3289,10.2404,10.2289,10.202,10.1279,10.1279,10.0904,10.0106,9.9211,9.825,9.725,9.6596,9.6288,0.0,0.0,0.0,6.4202,0.0,0.0,0.0,6.6167,6.695,6.9439,7.0035,7.1015,7.4023,7.496,7.6093,7.8709,8.1638,8.4685,8.7692,9.2226,9.457,9.2812,9.2226,9.1797,9.1406,9.1328,9.1328,9.1328,9.0117,8.9023,8.8164,8.7304,8.6445,8.5586,8.4297,8.3398,8.2969,8.2539,8.2539,8.2969,8.2842,8.373,8.5407,8.5254,8.5662,8.6523,8.695,8.7145,8.7182,8.8362,8.9051,8.9523,9.111,9.2367,9.3322,9.4069,9.4903,9.5711,9.6134,9.6288,9.6288,9.6288,9.6288,9.6288,9.6288,9.6288,9.6288,9.6288,9.6288,9.6288,9.6288,9.6288,9.6403,9.6826,9.6596,9.6749,9.8442,9.8788,9.9173,10.0481,10.0289,10.0212,10.0596,10.0712,10.0789,10.1202,10.1712,10.1894,10.1894,10.2289,10.2789,10.3212,10.3597,10.3982,10.4492,10.4905,10.4982,10.4482,10.4097,10.3482,10.2597,10.2212,10.1702,10.1279,10.1279,10.1096,10.0712,9.9865,9.8788,9.748,9.7096,9.6673,0.0,0.0,0.0,0.0,0.0,6.527,0.0,0.0,0.0,6.6718,6.6952,6.7147,6.7812,6.8242,6.9531,7.2654,7.441,7.585,7.7244,8.4912,8.9723,8.7926,8.7419,8.7068,8.6756,8.7187,8.7617,8.7929,8.6914,8.6172,8.5976,8.5781,8.5039,8.3633,8.3437,8.3008,8.2304,8.2304,8.2265,8.2223,8.2065,8.2875,8.4525,8.4125,8.4525,8.5541,8.6237,8.6237,8.5922,8.8092,8.9105,8.9333,9.0392,9.1978,9.371,9.3903,9.4941,9.6288,9.6288,9.6288,9.6288,9.6288,9.6288,9.6288,9.6288,9.6288,9.6288,9.6288,9.6288,9.6288,9.6288,9.6288,9.6288,9.6288,9.6288,9.6711,9.8211,9.8673,9.9288,10.1019,10.1279,10.1279,10.1279,10.1394,10.1597,10.1597,10.2289,10.2904,10.2904,10.3482,10.3982,10.4097,10.4713,10.5107,10.5107,10.5713,10.579,10.4905,10.4405,10.3712,10.2904,10.202,10.151,10.1279,10.1279,10.1279,10.1279,10.0596,9.9442,9.775,9.7596,9.7057,0.0,0.0,0.0,0.0,6.7171,0.0,0.0,0.0,6.406,6.2732,0.0,6.246,6.2578,0.0,0.0,6.347,6.9044,7.2543,6.9704,7.4148,7.813,7.9377,8.0831,8.2254,8.3723,8.3355,8.3672,8.5234,8.3086,8.2695,8.4922,8.4336,8.3789,8.3594,8.2851,8.2383,8.2304,8.2304,8.2219,8.2048,8.1996,8.2791,8.4202,8.349,8.3988,8.5502,8.5618,8.6042,8.6722,8.7536,8.8784,9.0327,9.1889,9.3014,9.3796,9.4566,9.548,9.6288,9.6288,9.6288,9.6288,9.6288,9.6288,9.6288,9.6288,9.6288,9.6288,9.6288,9.6288,9.6288,9.6288,9.6288,9.6288,9.6288,9.6288,9.6557,9.7442,9.825,9.9288,10.1019,10.1279,10.1279,10.1279,10.1894,10.252,10.252,10.3212,10.3789,10.3789,10.3789,10.4212,10.4915,10.4982,10.5107,10.5107,10.5223,10.4905,10.4097,10.4597,10.4597,10.3789,10.2904,10.2097,10.1279,10.1279,10.1279,10.1279,10.1202,10.0289,9.8634,9.7865,9.7057,0.0,0.0,0.0,0.0,0.0,0.0,6.5602,0.0,6.3355,0.0,0.0,0.0,0.0,0.0,0.0,0.0,6.3638,6.5171,6.3616,6.5681,6.932,7.4622,7.5356,7.6349,7.8666,7.7691,7.8049,8.0799,7.9557,7.9597,8.166,8.2458,8.2851,8.2851,8.25,8.2304,8.2304,8.2176,8.2068,8.199,8.1743,8.2236,8.325,8.2813,8.2966,8.3701,8.4701,8.5353,8.5881,8.8072,8.9432,9.0234,9.194,9.2767,9.3095,9.395,9.4788,9.5634,9.6134,9.6288,9.6288,9.6288,9.6288,9.6288,9.6288,9.6288,9.6288,9.6288,9.6288,9.6288,9.6288,9.6288,9.6442,9.6903,9.7019,9.7365,9.8711,9.9673,10.0596,10.1789,10.252,10.2789,10.2789,10.2712,10.2789,10.3289,10.4482,10.5213,10.4723,10.5482,10.602,10.5905,10.5905,10.5905,10.5905,10.5905,10.5713,10.5405,10.5213,10.4289,10.252,10.252,10.2212,10.1279,10.1279,10.1279,10.1279,10.1279,10.0712,9.9567,9.9183,9.8557,7.3752,0.0,0.0,0.0,0.0,0.0,0.0,0.0,0.0,0.0,0.0,0.0,0.0,0.0,0.0,0.0,0.0,6.0083,5.9513,6.0122,6.2934,6.912,7.0052,7.0926,7.2903,7.194,7.264,7.6117,7.5395,7.6071,7.9003,8.0452,8.1522,8.2265,8.2304,8.2304,8.2304,8.2114,8.1976,8.1902,8.1563,8.1785,8.2503,8.2154,8.2093,8.2362,8.3901,8.4786,8.544,8.8355,8.9855,9.0393,9.1633,9.2287,9.2595,9.3403,9.4403,9.5451,9.6095,9.6288,9.6288,9.6288,9.6288,9.6288,9.6288,9.6288,9.6288,9.6288,9.6288,9.6288,9.6288,9.6288,9.6519,9.7326,9.7519,9.798,9.9721,10.0712,10.1587,10.2712,10.3482,10.3982,10.4482,10.3905,10.3482,10.4097,10.5713,10.6405,10.5597,10.679,10.7405,10.651,10.6395,10.628,10.6097,10.602,10.602,10.602,10.5405,10.4212,10.2097,10.2597,10.2404,10.1279,10.1279,10.1279,10.1279,10.1279,10.1019,10.0404,10.0221,9.9644,0.0,0.0,0.0,7.278,0.0,0.0,0.0,0.0,6.6318,0.0,0.0,0.0,0.0,0.0,0.0,0.0,0.0,0.0,0.0,5.8319,5.952,6.143,6.4566,6.6602,6.6701,6.663,6.8049,7.156,7.0221,7.1874,7.791,7.8307,7.9546,8.2226,8.2304,8.2304,8.2304,8.2114,8.1894,8.1692,8.1517,8.1704,8.227,8.1485,8.1554,8.2362,8.3255,8.4555,8.6209,8.7987,8.9671,9.1171,9.121,9.1748,9.2595,9.3403,9.4788,9.6249,9.6288,9.6288,9.6288,9.6288,9.6288,9.6288,9.6288,9.6288,9.6288,9.6288,9.6288,9.6288,9.6288,9.6288,9.6519,9.7326,9.7519,9.798,9.9721,10.0712,10.1779,10.3482,10.3905,10.4405,10.601,10.5597,10.4982,10.5107,10.6482,10.729,10.651,10.7098,10.7405,10.651,10.6395,10.6097,10.5213,10.5097,10.5097,10.5097,10.5107,10.4713,10.3915,10.3789,10.3097,10.1279,10.1279,10.1279,10.1279,10.1279,10.1279,10.1202,10.0491,9.9644,0.0,0.0,8.3634,7.8425,0.0,0.0,0.0,0.0,0.0,0.0,0.0,0.0,0.0,0.0,0.0,0.0,0.0,0.0,0.0,5.6908,5.704,5.7001,5.9993,6.2038,6.204,6.2016,6.3451,6.6837,6.7188,6.9063,7.3352,7.6436,7.8805,8.0402,8.1531,8.2171,8.2304,8.1976,8.1789,8.1719,8.1347,8.1306,8.1516,8.1208,8.1246,8.1593,8.2986,8.4555,8.6286,8.8556,9.0517,9.2095,9.2633,9.3403,9.4104,9.3787,9.4441,9.5518,9.6095,9.6288,9.6288,9.6288,9.6288,9.6288,9.6288,9.6288,9.6288,9.6288,9.6288,9.6288,9.6288,9.6711,9.7326,9.8173,9.8788,9.9519,10.0712,10.202,10.3212,10.3789,10.529,10.6405,10.6395,10.6597,10.6597,10.602,10.7405,10.7982,10.6587,10.7213,10.7405,10.651,10.6395,10.629,10.602,10.602,10.5713,10.5097,10.5597,10.529,10.3982,10.3905,10.3405,10.2212,10.1587,10.1279,10.1279,10.1279,10.1279,10.1279,10.1019,10.0712,8.6321,8.686,0.0,8.1371,7.9904,0.0,7.3349,0.0,0.0,0.0,0.0,0.0,0.0,0.0,0.0,0.0,0.0,0.0,0.0,5.531,5.4957,5.4018,5.6333,5.802,5.8007,5.7935,5.9311,6.2694,6.3854,6.6242,7.0545,7.4494,7.7503,7.9429,8.1208,8.2172,8.2304,8.1978,8.1753,8.1719,8.1353,8.1152,8.1093,8.1093,8.1093,8.1208,8.287,8.4555,8.6286,8.8556,9.0479,9.2133,9.2941,9.3796,9.4527,9.4258,9.472,9.5518,9.6095,9.6288,9.6288,9.6288,9.6288,9.6288,9.6288,9.6288,9.6365,9.6634,9.6519,9.6365,9.6634,9.7096,9.7711,9.8596,9.949,10.0414,10.152,10.2904,10.3982,10.4299,10.5905,10.7098,10.651,10.7098,10.7521,10.6895,10.779,10.8098,10.7021,10.7405,10.7405,10.651,10.6395,10.651,10.678,10.6905,10.6713,10.6482,10.6713,10.6213,10.4789,10.4212,10.3905,10.402,10.2202,10.1702,10.2597,10.1702,10.1279,10.1279,10.1279,10.1279]}]]